[[{"header":{"parameterUnit":"m.s-1","parameterCategory":1,"la1":30.6,"la2":29.2853,"lo1":-89.7004,"lo2":-87.6739,"dy":0.0162,"dx":0.0183,"nx":112,"ny":82,"refTime":"2025-01-15T06:00:00:Z","depth":0,"parameterNumber":2,"parameterNumberName":"U-component_of_WINDS"},"data":[0.0,0.0,0.0,0.0,0.0,0.0,0.0,0.0,0.0,0.0,0.0,0.0,0.0,0.0,0.0,0.0,0.0,0.0,0.0,0.0,0.0,0.0,0.0,0.0,0.0,0.0,0.0,0.0,0.0,0.0,0.0,0.0,0.0,0.0,0.0,0.0,0.0,0.0,0.0,0.0,0.0,0.0,0.0,0.0,0.0,0.0,0.0,0.0,0.0,0.0,0.0,0.0,0.0,0.0,0.0,0.0,0.0,0.0,0.0,0.0,0.0,0.0,0.0,0.0,0.0,0.0,0.0,0.0,0.0,0.0,0.0,0.0,0.0,0.0,0.0,0.0,0.0,0.0,0.0,0.0,0.0,0.0,0.0,0.0,0.0,0.0,0.0,0.0,0.0,0.0,1.8109,1.9438,1.9707,1.9865,1.9954,2.0058,2.0002,1.985,0.0,0.0,0.0,0.0,0.0,0.0,0.0,0.0,0.0,0.0,0.0,0.0,0.0,0.0,0.0,0.0,0.0,0.0,0.0,0.0,0.0,0.0,0.0,0.0,0.0,0.0,0.0,0.0,0.0,0.0,0.0,0.0,0.0,0.0,0.0,0.0,0.0,0.0,0.0,0.0,0.0,0.0,0.0,0.0,0.0,0.0,0.0,0.0,0.0,0.0,0.0,0.0,0.0,0.0,0.0,0.0,0.0,0.0,0.0,0.0,0.0,0.0,0.0,0.0,0.0,0.0,0.0,0.0,0.0,0.0,0.0,0.0,0.0,0.0,0.0,0.0,0.0,0.0,0.0,0.0,0.0,0.0,0.0,0.0,0.0,0.0,0.0,0.0,0.0,0.0,0.0,0.0,0.0,0.0,0.0,0.0,0.0,0.0,0.0,0.0,0.0,0.0,0.0,0.0,1.9288,1.9873,1.996,2.0037,2.015,2.0122,2.0037,1.9876,0.0,0.0,0.0,0.0,0.0,0.0,0.0,0.0,0.0,0.0,0.0,0.0,0.0,0.0,0.0,0.0,0.0,0.0,0.0,0.0,0.0,0.0,0.0,0.0,0.0,0.0,0.0,0.0,0.0,0.0,0.0,0.0,0.0,0.0,0.0,0.0,0.0,0.0,0.0,0.0,0.0,0.0,0.0,0.0,0.0,0.0,0.0,0.0,0.0,0.0,0.0,0.0,0.0,0.0,0.0,0.0,0.0,0.0,0.0,0.0,0.0,0.0,0.0,0.0,0.0,0.0,0.0,0.0,0.0,0.0,0.0,0.0,0.0,0.0,0.0,0.0,0.0,0.0,0.0,0.0,0.0,0.0,0.0,0.0,0.0,0.0,0.0,0.0,0.0,0.0,0.0,0.0,0.0,0.0,0.0,0.0,0.0,0.0,0.0,0.0,0.0,0.0,0.0,1.9254,1.9792,1.9963,1.9986,2.0033,2.0076,2.0178,2.013,2.0022,2.0065,0.0,0.0,0.0,0.0,0.0,0.0,0.0,0.0,0.0,0.0,0.0,0.0,0.0,0.0,0.0,0.0,0.0,0.0,0.0,0.0,0.0,0.0,0.0,0.0,0.0,0.0,0.0,0.0,0.0,0.0,0.0,0.0,0.0,0.0,0.0,0.0,0.0,0.0,0.0,0.0,0.0,0.0,0.0,0.0,0.0,0.0,0.0,0.0,0.0,0.0,0.0,0.0,0.0,0.0,0.0,0.0,0.0,0.0,0.0,0.0,0.0,0.0,0.0,0.0,0.0,0.0,0.0,0.0,0.0,0.0,0.0,0.0,0.0,0.0,0.0,0.0,0.0,0.0,0.0,0.0,0.0,0.0,0.0,0.0,0.0,0.0,0.0,0.0,0.0,0.0,0.0,0.0,0.0,0.0,0.0,0.0,0.0,0.0,0.0,0.0,0.0,0.0,2.0106,2.0298,2.0345,2.047,2.0597,2.0581,2.0516,2.0465,2.0351,2.028,0.0,0.0,0.0,0.0,0.0,0.0,0.0,0.0,0.0,0.0,0.0,0.0,0.0,0.0,0.0,0.0,0.0,0.0,0.0,0.0,0.0,0.0,0.0,0.0,0.0,0.0,0.0,0.0,0.0,0.0,0.0,0.0,0.0,0.0,0.0,0.0,0.0,0.0,0.0,0.0,0.0,0.0,0.0,0.0,0.0,0.0,0.0,0.0,0.0,0.0,0.0,0.0,0.0,0.0,0.0,0.0,0.0,0.0,0.0,0.0,0.0,0.0,0.0,0.0,0.0,0.0,0.0,0.0,0.0,0.0,0.0,0.0,0.0,0.0,0.0,0.0,0.0,0.0,0.0,0.0,0.0,0.0,0.0,0.0,0.0,0.0,0.0,0.0,0.0,0.0,0.0,0.0,0.0,0.0,0.0,0.0,0.0,0.0,0.0,0.0,0.0,0.0,2.0828,2.1246,2.1301,2.1905,2.2337,2.2315,2.1551,2.108,2.1118,2.0379,0.0,0.0,0.0,0.0,0.0,0.0,0.0,0.0,0.0,0.0,0.0,0.0,0.0,0.0,0.0,0.0,0.0,0.0,0.0,0.0,0.0,0.0,0.0,0.0,0.0,0.0,0.0,0.0,0.0,0.0,0.0,0.0,0.0,0.0,0.0,0.0,0.0,0.0,0.0,0.0,0.0,0.0,0.0,0.0,0.0,0.0,0.0,0.0,0.0,0.0,0.0,0.0,0.0,0.0,0.0,0.0,0.0,0.0,0.0,0.0,0.0,0.0,0.0,0.0,0.0,0.0,0.0,0.0,0.0,0.0,0.0,0.0,0.0,0.0,0.0,0.0,0.0,0.0,0.0,0.0,0.0,0.0,0.0,0.0,0.0,0.0,0.0,0.0,0.0,0.0,0.0,0.0,0.0,0.0,0.0,0.0,0.0,0.0,0.0,0.0,0.0,0.0,2.1574,2.178,0.0,2.176,2.1997,2.1531,2.1727,2.1696,2.1279,0.0,0.0,0.0,0.0,0.0,0.0,0.0,0.0,0.0,0.0,0.0,0.0,0.0,0.0,0.0,0.0,0.0,0.0,0.0,0.0,0.0,0.0,0.0,0.0,0.0,0.0,0.0,0.0,0.0,0.0,0.0,0.0,0.0,0.0,0.0,0.0,0.0,0.0,0.0,0.0,0.0,0.0,0.0,0.0,0.0,0.0,0.0,0.0,0.0,0.0,0.0,0.0,0.0,0.0,0.0,0.0,0.0,0.0,0.0,0.0,0.0,0.0,0.0,0.0,0.0,0.0,0.0,0.0,0.0,0.0,0.0,0.0,0.0,0.0,0.0,0.0,0.0,0.0,0.0,0.0,0.0,0.0,0.0,0.0,0.0,0.0,0.0,0.0,0.0,0.0,0.0,0.0,0.0,0.0,0.0,0.0,0.0,0.0,0.0,0.0,0.0,0.0,2.144,2.2206,2.252,0.0,2.2449,2.2622,2.2137,2.2425,2.2462,2.2004,0.0,0.0,0.0,0.0,0.0,0.0,0.0,0.0,0.0,0.0,0.0,0.0,0.0,0.0,0.0,0.0,0.0,0.0,0.0,0.0,0.0,0.0,0.0,0.0,0.0,0.0,0.0,0.0,0.0,0.0,0.0,0.0,0.0,0.0,0.0,0.0,0.0,0.0,0.0,0.0,0.0,0.0,0.0,0.0,0.0,0.0,0.0,0.0,0.0,0.0,0.0,0.0,0.0,0.0,0.0,0.0,0.0,0.0,0.0,0.0,0.0,0.0,0.0,0.0,0.0,0.0,0.0,0.0,0.0,0.0,0.0,0.0,0.0,0.0,0.0,0.0,0.0,0.0,0.0,0.0,0.0,0.0,0.0,0.0,0.0,0.0,0.0,0.0,0.0,0.0,0.0,0.0,0.0,0.0,0.0,0.0,0.0,0.0,0.0,0.0,0.0,0.0,2.1511,2.2776,2.3587,2.351,2.4238,2.4714,2.4634,2.3902,2.3416,0.0,0.0,0.0,0.0,0.0,0.0,0.0,0.0,0.0,0.0,0.0,0.0,0.0,0.0,0.0,0.0,0.0,0.0,0.0,0.0,0.0,0.0,0.0,0.0,0.0,0.0,0.0,0.0,0.0,0.0,0.0,0.0,0.0,0.0,0.0,0.0,0.0,0.0,0.0,0.0,0.0,0.0,0.0,0.0,0.0,0.0,0.0,0.0,0.0,0.0,0.0,0.0,0.0,0.0,0.0,0.0,0.0,0.0,0.0,0.0,0.0,0.0,0.0,0.0,0.0,0.0,0.0,0.0,0.0,0.0,0.0,0.0,0.0,0.0,0.0,0.0,0.0,0.0,0.0,0.0,0.0,0.0,0.0,0.0,0.0,0.0,0.0,0.0,0.0,0.0,0.0,0.0,0.0,0.0,0.0,0.0,0.0,0.0,0.0,0.0,0.0,0.0,0.0,2.2977,2.4384,2.5017,2.4294,2.5517,2.6139,2.556,2.5362,2.5295,2.5425,0.0,0.0,0.0,0.0,0.0,0.0,0.0,0.0,0.0,0.0,0.0,0.0,0.0,0.0,0.0,0.0,0.0,0.0,0.0,0.0,0.0,0.0,0.0,0.0,0.0,0.0,0.0,0.0,0.0,0.0,0.0,0.0,0.0,0.0,0.0,0.0,0.0,0.0,0.0,0.0,0.0,0.0,0.0,0.0,0.0,0.0,0.0,0.0,0.0,0.0,0.0,0.0,0.0,0.0,0.0,0.0,0.0,0.0,0.0,0.0,0.0,0.0,0.0,0.0,0.0,0.0,0.0,0.0,0.0,0.0,0.0,0.0,0.0,0.0,0.0,0.0,0.0,0.0,0.0,0.0,0.0,0.0,0.0,0.0,0.0,0.0,0.0,0.0,0.0,0.0,0.0,0.0,0.0,0.0,0.0,0.0,0.0,0.0,0.0,0.0,0.0,0.0,2.4068,2.5213,2.5876,2.5551,2.6517,2.6943,2.6489,2.6547,2.6645,2.6772,0.0,0.0,0.0,0.0,0.0,0.0,0.0,0.0,0.0,0.0,0.0,0.0,0.0,0.0,0.0,0.0,0.0,0.0,0.0,0.0,0.0,0.0,0.0,0.0,0.0,0.0,0.0,0.0,0.0,0.0,0.0,0.0,0.0,0.0,0.0,0.0,0.0,0.0,0.0,0.0,0.0,0.0,0.0,0.0,0.0,0.0,0.0,0.0,0.0,0.0,0.0,0.0,0.0,0.0,0.0,0.0,0.0,0.0,0.0,0.0,0.0,0.0,0.0,0.0,0.0,0.0,0.0,0.0,0.0,0.0,0.0,0.0,0.0,0.0,0.0,0.0,0.0,0.0,0.0,0.0,0.0,0.0,0.0,0.0,0.0,0.0,0.0,0.0,0.0,0.0,0.0,0.0,0.0,0.0,0.0,0.0,0.0,0.0,0.0,0.0,0.0,0.0,2.4811,2.5677,2.6547,2.7249,2.7469,2.765,2.7792,2.7827,2.7888,2.7964,0.0,0.0,0.0,0.0,0.0,0.0,0.0,0.0,0.0,0.0,0.0,0.0,0.0,0.0,0.0,0.0,0.0,0.0,0.0,0.0,0.0,0.0,0.0,0.0,0.0,0.0,0.0,0.0,0.0,0.0,0.0,0.0,0.0,0.0,0.0,0.0,0.0,0.0,0.0,0.0,0.0,0.0,0.0,0.0,0.0,0.0,0.0,0.0,0.0,0.0,0.0,0.0,0.0,0.0,0.0,0.0,0.0,0.0,0.0,0.0,1.7535,0.0,0.0,0.0,0.0,0.0,0.0,0.0,0.0,0.0,0.0,0.0,0.0,0.0,0.0,0.0,0.0,0.0,0.0,0.0,0.0,0.0,0.0,0.0,0.0,0.0,0.0,0.0,0.0,0.0,0.0,0.0,0.0,0.0,0.0,0.0,0.0,0.0,0.0,0.0,0.0,0.0,2.564,2.7102,2.8357,2.9132,2.9952,3.0679,3.1341,3.089,3.0845,3.1461,2.9679,0.0,0.0,0.0,0.0,0.0,0.0,0.0,0.0,0.0,0.0,0.0,0.0,0.0,0.0,0.0,0.0,0.0,0.0,0.0,0.0,0.0,0.0,0.0,0.0,0.0,0.0,0.0,0.0,0.0,0.0,0.0,0.0,0.0,0.0,0.0,0.0,0.0,0.0,0.0,0.0,0.0,0.0,0.0,0.0,0.0,0.0,0.0,0.0,0.0,0.0,0.0,0.0,0.0,0.0,0.0,0.0,0.0,0.0,0.0,0.0,1.8439,0.0,0.0,0.0,0.0,0.0,0.0,0.0,0.0,0.0,0.0,0.0,0.0,0.0,0.0,0.0,0.0,0.0,0.0,0.0,0.0,0.0,0.0,0.0,0.0,0.0,0.0,0.0,0.0,0.0,0.0,0.0,0.0,0.0,0.0,0.0,0.0,0.0,0.0,0.0,0.0,2.701,2.8341,2.9502,3.0351,3.1286,3.2053,3.2521,3.2256,3.2263,3.2669,3.1475,0.0,0.0,0.0,0.0,0.0,0.0,0.0,0.0,0.0,0.0,0.0,0.0,0.0,0.0,0.0,0.0,0.0,0.0,0.0,0.0,0.0,0.0,0.0,0.0,0.0,0.0,0.0,0.0,0.0,0.0,0.0,0.0,0.0,0.0,0.0,0.0,0.0,0.0,0.0,0.0,0.0,0.0,0.0,0.0,0.0,0.0,0.0,0.0,0.0,0.0,0.0,0.0,0.0,2.0685,2.0975,2.1602,2.1712,2.205,2.2535,2.1773,2.1009,2.0263,1.9688,0.0,0.0,0.0,0.0,0.0,0.0,0.0,0.0,0.0,0.0,0.0,0.0,0.0,0.0,0.0,0.0,0.0,0.0,0.0,0.0,0.0,0.0,0.0,0.0,2.3687,2.3941,0.0,0.0,0.0,0.0,0.0,0.0,0.0,0.0,0.0,0.0,0.0,0.0,2.8477,2.9619,3.0612,3.1497,3.2416,3.307,3.3303,3.357,3.3628,3.3503,3.335,3.2861,0.0,0.0,0.0,0.0,0.0,0.0,0.0,0.0,0.0,0.0,0.0,0.0,0.0,0.0,0.0,0.0,0.0,0.0,0.0,0.0,0.0,0.0,0.0,0.0,0.0,0.0,0.0,0.0,0.0,0.0,0.0,0.0,1.5505,1.5228,0.0,0.0,0.0,0.0,0.0,0.0,0.0,0.0,0.0,0.0,0.0,0.0,0.0,2.0858,2.0823,2.2005,2.2694,2.3017,2.3545,2.3887,2.4015,2.4045,2.4086,2.4132,2.4723,0.0,2.1191,2.1473,0.0,0.0,0.0,0.0,0.0,0.0,0.0,0.0,0.0,0.0,0.0,0.0,0.0,0.0,0.0,0.0,0.0,0.0,0.0,0.0,0.0,0.0,2.4771,2.546,2.6216,2.6729,0.0,2.4693,2.3427,2.4182,2.452,0.0,0.0,0.0,0.0,0.0,0.0,0.0,2.9687,3.1118,3.2509,3.35,3.4419,3.5247,3.6089,3.6863,3.6993,3.6234,3.5489,3.4669,3.3782,3.2981,0.0,0.0,0.0,0.0,0.0,0.0,0.0,0.0,0.0,0.0,0.0,0.0,0.0,0.0,0.0,0.0,0.0,0.0,0.0,0.0,0.0,0.0,0.0,0.0,0.0,0.0,0.0,0.0,0.0,1.6876,1.7276,1.6728,1.7223,1.7823,0.0,0.0,0.0,0.0,0.0,0.0,0.0,0.0,0.0,2.1231,2.22,2.2816,2.297,2.3774,2.4286,2.4469,2.4579,2.468,2.4779,2.4779,2.5013,2.5481,2.5883,2.5108,2.362,2.3677,2.2915,2.1607,0.0,0.0,0.0,0.0,2.2037,2.2544,2.2716,2.3069,0.0,2.2856,0.0,0.0,0.0,0.0,0.0,0.0,0.0,0.0,0.0,0.0,0.0,2.7328,2.8365,2.925,2.9232,2.8389,2.7301,0.0,2.6547,2.704,2.7371,0.0,0.0,0.0,0.0,3.0711,3.1252,3.2821,3.4086,3.4617,3.5889,3.6872,3.7333,3.7762,3.7868,3.7497,3.7151,3.6738,3.631,3.5072,3.425,0.0,0.0,0.0,0.0,0.0,0.0,0.0,0.0,0.0,0.0,0.0,0.0,0.0,0.0,0.0,0.0,0.0,0.0,0.0,0.0,0.0,0.0,0.0,0.0,0.0,0.0,0.0,0.0,1.7998,1.9022,1.8645,1.9039,1.9417,0.0,0.0,0.0,0.0,0.0,0.0,2.1862,2.2769,2.3046,2.2519,2.3761,2.4521,2.4776,2.5447,2.5947,2.638,2.5969,2.5931,2.6168,2.6002,2.6308,2.6914,2.7317,2.7155,2.6486,2.5747,2.4514,2.3094,2.3449,2.3237,2.2689,2.2977,2.3515,2.413,2.4247,2.4739,2.5197,2.453,0.0,2.4494,2.3437,0.0,0.0,0.0,0.0,2.7231,2.7511,2.8316,2.9119,2.9308,3.0264,3.1182,3.1464,3.1461,3.0842,0.0,2.8798,2.93,2.9695,0.0,0.0,0.0,0.0,3.2674,3.3314,3.4735,3.5737,3.5873,3.7277,3.8223,3.8262,3.8551,3.8656,3.8452,3.8452,3.8309,3.8036,3.6884,3.6151,3.5855,0.0,0.0,0.0,0.0,0.0,0.0,0.0,0.0,0.0,0.0,0.0,0.0,0.0,0.0,0.0,0.0,0.0,0.0,0.0,0.0,0.0,0.0,0.0,0.0,0.0,0.0,0.0,0.0,0.0,2.109,2.0927,0.0,0.0,0.0,0.0,2.0998,2.2617,2.348,2.3211,2.4433,2.4948,2.4487,2.5031,2.5379,2.5566,2.6697,2.7977,2.9297,2.8638,2.8671,2.9343,2.8791,2.8528,2.8628,3.0118,3.0359,2.9517,2.7324,2.548,2.4081,2.4946,2.4777,2.4108,2.4326,2.4513,2.4692,2.4953,2.5079,2.5142,2.5322,2.5429,2.5473,2.5805,2.5948,0.0,0.0,2.7237,2.817,2.9116,2.9959,3.0801,3.1723,3.1986,3.2248,3.2932,3.3125,3.2863,0.0,3.1219,3.1317,3.2735,0.0,3.3658,3.4408,3.5322,3.597,3.6103,3.6936,3.7632,3.7753,3.8646,3.9234,3.9315,4.0153,4.0282,3.9406,3.9329,3.8955,3.8119,3.8066,3.7665,3.6856,3.606,0.0,0.0,0.0,0.0,0.0,0.0,0.0,0.0,0.0,0.0,0.0,0.0,0.0,0.0,0.0,0.0,0.0,0.0,0.0,0.0,0.0,0.0,0.0,0.0,0.0,0.0,0.0,0.0,2.1439,2.1678,0.0,2.2202,2.2389,2.2736,2.3289,2.4569,2.5279,2.5108,2.6457,2.698,2.6489,2.7161,2.7681,2.7984,2.8483,2.9037,2.9536,2.9421,2.9226,2.9068,2.8833,2.877,2.8918,2.9349,2.9488,2.9293,2.8986,2.8404,2.7688,2.7147,2.7019,2.716,2.7333,2.7471,2.7572,2.7836,2.7932,2.7999,2.8463,2.8287,2.801,2.8298,2.8504,2.8676,2.8819,2.9636,3.0531,3.0835,3.2002,3.3172,3.3493,3.4435,3.5342,3.5709,3.5769,3.5716,3.5415,3.4701,3.4304,3.4867,3.5539,3.6054,3.6377,3.7258,3.7869,3.789,3.9185,4.0176,4.0321,4.1119,4.1437,4.0962,4.1292,4.1142,4.0229,4.0204,4.0088,3.9779,3.9301,3.8899,3.8593,3.7864,3.6601,0.0,0.0,0.0,0.0,0.0,0.0,0.0,0.0,0.0,0.0,0.0,0.0,0.0,0.0,0.0,0.0,0.0,0.0,0.0,0.0,0.0,0.0,0.0,0.0,0.0,0.0,2.304,2.2947,2.3102,2.333,2.3526,2.3696,2.4094,2.4884,2.5987,2.6615,2.6702,2.7875,2.8492,2.8337,2.8925,2.9536,3.0096,3.0485,3.0842,3.1199,3.1079,3.0851,3.0695,3.0387,3.0499,3.0813,3.0774,3.1083,3.1596,3.1529,3.1584,3.153,2.9398,2.88,2.9151,2.9096,2.9102,2.9175,2.9489,2.9764,3.0141,3.06,3.064,3.0641,3.0892,3.1137,3.132,3.1409,3.2194,3.305,3.3073,3.4172,3.5273,3.5319,3.6414,3.7587,3.7981,3.8267,3.8554,3.8878,3.7717,3.6866,3.7181,3.7958,3.8659,3.9012,3.965,4.0096,4.0118,4.115,4.1972,4.212,4.2616,4.2783,4.2294,4.2318,4.1962,4.1142,4.1106,4.1003,4.0733,4.0227,3.9796,3.9536,3.8799,3.7747,3.6287,0.0,0.0,0.0,0.0,0.0,0.0,0.0,0.0,0.0,0.0,0.0,0.0,0.0,0.0,0.0,0.0,0.0,0.0,0.0,0.0,0.0,0.0,0.0,2.2405,2.4049,2.5252,2.574,2.531,2.5029,2.5268,2.4893,2.4927,2.5641,2.6805,2.7627,2.7947,2.8659,2.9367,3.007,3.0335,3.0856,3.1712,3.254,3.3372,3.4374,3.3624,3.3657,3.4341,3.3719,3.3753,3.4374,3.4428,3.5318,3.6535,3.4901,3.4766,3.5216,3.163,3.0171,2.996,2.944,2.9276,2.9418,2.973,3.052,3.1346,3.1579,3.2299,3.3224,3.3495,3.3761,3.3954,3.4153,3.4897,3.5665,3.5857,3.6503,3.7164,3.728,3.7943,3.8771,3.9637,4.05,4.1278,4.2033,4.0201,3.8855,3.98,4.0608,4.1402,4.2276,4.2563,0.0,4.2713,4.2872,4.3003,4.3056,4.314,4.315,4.315,4.3188,4.2869,4.211,4.2021,4.1699,4.0887,4.087,4.0519,3.9746,3.8966,3.8199,3.7425,0.0,0.0,0.0,0.0,0.0,0.0,0.0,0.0,0.0,0.0,0.0,0.0,0.0,0.0,0.0,0.0,0.0,0.0,0.0,0.0,0.0,2.2666,2.3823,2.3469,2.3585,2.4371,2.6171,2.6028,2.6243,2.7438,2.7094,2.7165,2.7979,2.8651,2.8967,2.8893,2.9809,3.0675,3.1447,3.2164,3.254,3.2573,3.2894,3.3225,3.359,3.344,3.3482,3.3685,3.3448,3.3482,3.3685,3.3812,3.4092,3.4499,3.4653,3.4823,3.4839,3.3673,3.2991,3.2644,3.2598,3.2762,3.2988,3.3244,3.3635,3.4055,3.426,3.4666,3.51,3.5187,3.5864,3.6573,3.662,3.7431,3.8338,3.8338,3.9039,3.974,3.974,4.0854,4.2032,4.2321,4.2624,4.2901,4.3114,4.2648,4.2044,4.1713,4.2319,4.2796,4.2496,4.308,0.0,4.3614,4.4268,4.4729,4.4822,4.482,4.4607,4.4025,4.4029,4.3728,4.2917,4.2897,4.286,4.2628,4.2717,4.2714,4.2563,4.1123,4.0272,0.0,0.0,0.0,0.0,0.0,0.0,0.0,0.0,0.0,0.0,0.0,0.0,0.0,0.0,0.0,0.0,0.0,0.0,0.0,0.0,0.0,0.0,2.4498,2.5884,2.5601,2.5394,2.5932,2.7824,2.7615,2.7672,2.8494,2.8588,2.8912,2.9728,3.0348,3.0757,3.1,3.1332,3.1964,3.2929,3.3062,3.3551,3.4421,3.4667,3.4925,3.5228,3.5273,3.5284,3.5284,3.5328,3.5542,0.0,3.5596,3.6048,3.6877,3.6151,3.6321,0.0,0.0,0.0,0.0,0.0,3.4476,3.4574,3.5001,3.5578,3.6185,3.6394,3.7063,3.7874,3.8,3.8579,3.9165,3.9254,3.9825,4.0392,4.0381,4.0798,4.1278,4.1278,4.2344,4.3348,4.3375,4.3717,4.4108,4.4537,4.4903,0.0,4.4524,4.4537,4.4524,4.4128,4.4867,4.549,4.554,4.6084,4.6472,4.6551,4.6532,4.6359,4.5898,4.5928,0.0,0.0,0.0,4.4018,4.3363,4.3424,0.0,0.0,0.0,0.0,0.0,0.0,0.0,0.0,3.5555,3.4683,0.0,0.0,0.0,0.0,0.0,0.0,0.0,0.0,0.0,0.0,0.0,0.0,0.0,0.0,0.0,0.0,2.5673,2.7019,2.8362,2.8599,2.8989,3.0056,2.9696,2.9336,2.9316,2.9811,3.0442,3.1113,3.1866,3.2723,3.3523,0.0,0.0,0.0,0.0,3.4426,3.6686,3.7023,3.7408,3.7922,3.7922,3.7922,3.7889,3.8031,3.8452,3.903,3.8397,3.931,4.0929,3.8404,3.8635,4.0206,3.6713,3.5258,3.5181,3.5559,3.5471,3.5322,3.6028,0.0,0.0,3.815,3.9369,4.0773,4.1009,4.1314,4.165,4.1809,4.2039,4.2276,4.2417,4.2473,4.2527,4.2596,4.3401,4.4116,4.4089,4.4708,4.5477,4.6259,4.6879,4.7337,4.739,4.6833,4.6379,4.6379,4.7086,4.7638,4.7709,4.7821,4.7945,4.7987,0.0,0.0,4.8008,4.8145,4.7545,4.597,4.594,4.5341,4.3892,4.386,4.3895,4.3977,4.3905,4.3859,4.3849,4.2985,4.2555,4.2449,3.8456,3.6957,0.0,0.0,0.0,0.0,0.0,0.0,0.0,0.0,0.0,0.0,0.0,0.0,0.0,0.0,0.0,2.7404,2.7949,2.8825,3.1016,3.1515,3.1595,3.1497,3.1056,3.1224,3.2319,3.2429,3.2521,3.2655,3.2942,3.3691,3.5116,3.5093,3.5802,3.7542,3.7441,3.736,3.7494,3.7562,3.7677,3.7922,0.0,0.0,3.7889,3.8031,3.8146,3.8329,3.8345,3.8357,3.8413,3.8814,3.9767,4.0804,3.8708,3.7939,3.8027,3.8377,3.8515,3.8647,3.9064,3.9475,3.9878,3.995,4.0448,4.1009,4.1075,4.2189,0.0,4.3447,4.4569,4.573,4.5761,4.5881,4.6006,4.6035,4.7229,4.8318,4.8318,4.8528,4.8671,4.8859,4.8032,4.7311,4.7311,4.7818,4.801,4.7414,4.7476,4.7662,4.7821,4.7865,4.7945,4.7987,4.8008,4.8008,4.7987,4.8068,4.7971,4.7625,4.7747,4.7424,4.6589,4.6558,4.6318,4.5817,4.5117,4.4765,4.4765,4.3854,4.3453,4.3375,4.1147,4.0203,0.0,0.0,0.0,0.0,0.0,0.0,0.0,0.0,0.0,0.0,0.0,2.4151,2.5357,0.0,2.7465,2.9533,3.0351,3.1254,3.284,3.3377,3.3319,3.2645,3.262,3.2855,3.3397,3.4057,3.4462,3.4462,3.5161,3.5982,3.6818,3.7114,3.7555,3.8241,3.9044,3.9316,3.9069,3.9151,3.9559,4.0322,3.9914,3.9948,4.0356,4.047,4.0568,4.0666,4.068,4.0831,4.1099,4.1712,4.225,4.2579,4.1545,4.0304,3.9111,3.9701,3.9847,3.9807,4.0356,4.1061,4.1686,4.1796,4.2557,4.3532,4.3634,4.4321,4.5115,4.5185,4.5876,4.6605,4.6637,4.7031,4.743,4.7522,4.8527,4.9427,4.949,4.9183,4.9025,4.9499,4.8616,4.7957,4.8455,4.8926,4.8981,4.8251,4.853,4.8871,4.8991,4.9037,4.9083,4.9127,4.9171,4.9209,4.9149,4.8833,4.8683,4.874,4.839,4.8099,4.792,4.7912,4.7825,4.761,4.7183,4.695,4.6951,4.6522,4.6088,4.562,4.4755,4.3651,0.0,0.0,0.0,0.0,0.0,0.0,0.0,2.2668,2.3422,2.4136,2.5063,2.609,2.7308,2.8474,2.9701,3.1165,3.2367,3.333,3.4084,3.473,3.4828,3.4047,3.4268,3.4438,3.432,3.546,3.6242,3.6287,3.7305,3.8051,3.8329,3.8867,3.9084,3.8772,4.0172,4.094,4.0929,4.1013,4.1629,4.2774,4.2176,4.221,4.2826,4.298,4.3131,4.3232,4.3166,4.3646,4.4451,4.4435,4.4396,4.4265,4.3908,4.2331,4.0355,4.1032,4.1109,4.1046,4.1694,4.258,4.3429,4.3578,4.4675,4.5993,4.6135,4.635,4.6564,4.6702,4.6958,4.7215,4.7281,4.7909,4.8609,4.8739,4.9407,5.0001,4.9947,4.9415,4.9107,4.9695,4.9122,4.8805,4.9637,4.9807,4.9607,4.906,4.9542,5.0012,5.0114,5.0163,5.0212,5.0259,5.0344,5.0367,5.0344,4.9805,4.9547,4.9644,4.9026,4.8717,4.8722,4.8779,4.8801,4.8873,4.8889,4.8895,4.8895,4.8864,4.8515,4.7851,4.7849,4.6551,2.1569,2.0931,2.0894,2.2359,2.2941,2.3483,0.0,2.541,2.5708,2.5769,2.7067,2.8225,2.8406,3.0252,3.1996,3.2685,3.3426,3.412,3.4695,3.5814,3.6457,3.6267,3.6049,3.6148,3.6835,3.7376,3.7746,3.7979,3.8023,3.8397,3.9221,3.9904,4.0588,4.1169,4.2108,4.2552,4.2535,4.2535,4.2638,4.2774,4.286,4.2877,4.298,4.3232,4.3346,4.338,4.3672,4.3993,4.4244,4.4251,4.4418,4.4576,4.405,4.3849,4.3748,4.3953,4.4135,4.4319,4.4714,4.5025,4.533,4.5479,4.5737,4.6101,4.6101,4.6687,4.7311,4.7453,4.8524,4.9707,4.9849,5.0549,5.1214,5.1353,5.2023,5.2432,5.1748,5.1555,5.1292,5.0723,4.9995,4.9491,4.9692,4.975,4.9852,4.9999,5.0025,5.0063,5.0236,5.0212,5.0188,5.0212,5.0259,5.0344,5.039,5.0489,5.0529,5.0489,5.0642,5.039,4.9588,4.9751,4.9488,4.8816,4.8794,4.8802,4.8798,4.8819,4.8787,4.875,4.8747,4.7764,2.3674,2.3502,2.3552,2.4244,2.4866,2.5384,2.5638,2.6897,2.7887,2.7533,2.8789,3.0107,3.0586,3.1642,3.2921,3.4271,3.4623,3.5249,3.6667,3.7096,3.7443,3.781,3.8087,3.8116,3.7978,3.8482,3.9084,3.9624,3.9973,4.0519,4.1454,4.1797,4.2106,4.2414,4.2909,4.3388,4.3751,4.3439,4.3696,4.4509,4.4162,4.4196,4.4611,4.4748,4.5057,4.5544,4.6168,4.6463,4.6498,4.6669,4.6856,4.6956,4.6892,4.7015,4.7037,4.5276,4.4729,4.4941,4.5228,4.5718,4.6314,4.643,4.6948,4.75,4.75,4.7794,4.8235,4.8825,4.9489,5.0156,5.0784,5.1563,5.2082,5.174,5.2599,5.3381,5.2694,5.2169,5.1753,5.148,5.0385,4.9582,4.9663,4.9692,4.9958,5.0824,5.0798,5.0719,5.085,5.1268,5.1408,5.0988,5.0517,5.0488,5.1101,5.1272,5.1567,5.2146,5.1776,5.1478,5.1342,5.0837,5.049,5.0338,5.0308,5.0313,5.0321,5.0328,5.0064,4.9597,4.9644,4.9007,2.5398,2.5568,2.5715,2.5925,2.6704,2.7338,2.7059,2.8469,2.9653,2.9188,3.0395,3.1693,3.2211,3.3104,3.4227,3.5615,3.603,3.6741,3.8228,3.8285,3.8416,3.9049,3.964,3.9743,3.9204,3.9718,4.0323,4.1003,4.1626,4.2311,4.3097,4.3459,4.37,4.37,4.4284,4.487,4.5373,4.5022,4.5351,4.6378,4.5924,4.5959,4.6516,4.6516,4.6846,4.7491,4.8015,4.826,4.8295,4.8504,4.8607,4.8659,4.8912,4.9159,4.9115,4.6874,4.6227,4.644,4.6613,4.7179,4.7849,4.7968,4.8488,4.9156,4.9156,4.9157,4.9306,4.9788,5.0232,5.075,5.1195,5.2122,5.2828,5.2343,5.3125,5.3795,5.3115,5.2514,5.2061,5.1903,5.0922,5.0197,5.0312,5.0282,5.056,5.157,5.1764,5.1746,5.1657,5.2151,5.2292,5.1879,5.1255,5.119,5.1959,5.188,5.2103,5.2801,5.2144,5.1796,5.2092,5.142,5.1181,5.138,5.1386,5.1396,5.1406,5.141,5.1066,5.0445,5.0507,5.0183,2.6044,2.6194,2.6551,2.7282,2.8287,2.9302,2.9925,3.0433,3.0728,3.065,3.1816,3.2858,3.2858,3.4822,3.647,3.6606,3.7615,3.8505,3.8721,3.9306,3.9664,3.9835,4.0341,4.0741,4.0977,4.1346,4.166,4.194,4.2599,4.3097,4.3346,4.4613,4.5407,4.5511,4.6984,4.7726,4.7596,4.7835,4.7942,4.7815,4.8049,4.8207,4.8242,4.8347,4.8399,4.8434,4.8365,4.84,4.8591,4.8607,4.8659,4.8811,4.9096,4.9256,4.9329,4.9493,4.9722,4.9945,5.0039,5.0211,5.0492,5.0492,5.0611,5.0729,5.0729,5.0729,5.0585,4.9892,5.0929,5.2079,5.138,5.2493,5.3795,5.387,5.3944,5.3795,5.3047,5.2928,5.2735,5.1948,5.1828,5.185,5.1914,5.1914,5.1977,5.2145,5.2824,5.3135,5.2623,5.2465,5.2465,5.2641,5.2628,5.2654,5.2766,5.2171,5.1795,5.1727,5.137,5.1088,5.1062,5.1201,5.1281,5.1281,5.1356,5.1414,5.1414,5.1401,5.1385,5.1359,5.1359,5.1367,2.8331,2.8355,2.8378,2.9639,3.0648,3.1447,3.192,3.2866,3.3633,3.3352,3.4104,3.483,3.483,3.6005,3.7072,3.7468,3.8302,3.9153,3.9912,4.0097,4.0314,4.0643,4.0886,4.1185,4.1657,4.1885,0.0,4.2797,4.3657,4.4558,4.5441,4.6047,4.6584,4.7122,4.7715,4.8047,4.81,4.826,4.8365,4.8312,4.8521,4.8659,4.8659,4.9186,4.9398,4.9328,4.9802,5.0328,5.0838,5.0524,5.0699,5.1175,5.0951,5.0986,5.1179,5.1227,5.1509,5.1601,5.0591,5.0314,5.0477,5.0477,5.0561,5.057,5.0021,4.9955,5.0071,5.037,5.0927,5.1556,5.2486,5.323,5.3604,5.3049,5.3423,5.3721,5.3047,5.2746,5.2629,5.2728,5.2569,5.2371,5.2065,5.1957,5.2151,5.2779,5.3176,5.3565,5.4019,5.3535,5.3215,5.3476,5.297,5.2908,5.3607,5.3498,5.3421,5.3507,5.2913,5.2361,5.1942,5.1481,5.1287,5.1356,5.1408,5.1386,5.1401,5.141,5.1418,5.1425,5.1988,5.2264,2.954,3.0024,3.0402,3.1319,3.2406,3.3318,3.3657,3.4474,3.5113,3.5006,3.5479,3.5996,3.6215,3.6967,3.7768,3.8412,3.9294,4.0167,4.106,4.1321,4.1533,4.195,4.1938,4.2111,4.2597,4.2874,0.0,4.3692,4.4748,4.5788,4.6741,4.733,4.787,4.8464,4.8816,4.9009,4.9116,4.9311,4.9609,4.9943,5.0047,5.0275,5.0558,5.0964,5.107,5.1051,5.1525,5.1997,5.2383,5.2218,5.2396,5.2785,5.2692,5.2731,5.2929,5.2978,5.3038,5.2845,5.1492,5.1144,5.1231,5.1231,5.1274,5.1286,5.0775,5.0675,5.0872,5.1136,5.147,5.1915,5.2773,5.3296,5.341,5.2971,5.3269,5.3607,5.3274,5.2826,5.2601,5.2963,5.2881,5.2686,5.2348,5.2503,5.2881,5.3512,5.3687,5.3973,5.4661,5.4283,5.4027,5.4286,5.3791,5.3769,5.4499,5.4345,5.4235,5.4395,5.3725,5.3204,5.2848,5.2103,5.1901,5.2239,5.1993,5.2005,5.2294,5.2303,5.2312,5.2351,5.2884,5.3163,2.9887,3.1247,3.2507,3.2441,3.3599,3.4905,3.5259,3.5259,3.533,3.563,3.6005,3.6431,3.7094,3.7796,3.8579,3.9673,4.0711,4.1614,4.2228,4.2846,4.3346,4.3589,4.3395,4.338,4.372,4.437,0.0,4.4644,0.0,4.6845,4.7299,4.8483,4.9264,4.9571,5.0235,5.064,5.064,5.1016,5.1653,5.252,5.2555,5.2891,5.3599,5.349,5.3379,5.3379,5.3268,5.3247,5.3282,5.3525,5.3635,5.3725,5.4116,5.4323,5.4403,5.4553,5.4243,5.3634,5.2816,5.2618,5.2761,5.2635,5.2717,5.2806,5.2769,5.2857,5.2761,5.2029,5.2443,5.2973,5.232,5.2729,5.3359,5.3635,5.3598,5.3561,5.3756,5.32,5.268,5.2752,5.2897,5.2968,5.2968,5.3568,5.4127,5.4308,5.4308,5.4412,5.4641,5.4673,5.4799,5.5085,5.5057,5.5085,5.5377,5.4639,5.4264,5.4374,5.3819,5.3522,5.3598,5.298,5.3039,5.3779,5.3104,5.3124,5.3923,5.3972,5.399,5.399,5.4047,5.4059,3.2521,3.2879,3.3197,3.4905,3.5581,3.6114,3.6863,3.6934,3.6898,3.7253,3.7113,3.7285,3.8438,3.8922,3.9711,4.1552,4.2356,4.2962,4.3638,4.3909,4.3921,4.3733,4.3698,4.3895,4.4405,4.5172,0.0,0.0,4.6933,4.7666,4.8711,4.9256,4.9853,5.0468,5.0822,5.1034,5.1105,5.1812,5.2343,5.2626,5.3087,5.3422,5.3599,5.3435,5.3359,5.3212,5.3324,5.3676,5.4226,5.3902,5.4117,5.4614,5.4224,5.4132,5.4179,5.3692,5.3468,5.3291,5.2486,5.2444,5.2806,5.2761,5.2761,5.2696,5.2199,5.206,5.2023,5.1761,5.1913,5.2254,5.2663,5.3004,5.3272,5.3433,5.3555,5.3676,5.3644,5.3572,5.3572,5.3719,5.3792,5.3792,5.3792,5.3943,5.4092,5.4273,5.4271,5.4337,5.4565,5.4673,5.4799,5.5085,5.5085,5.514,5.5377,5.5235,5.491,5.437,5.4413,5.4202,5.3598,5.3584,5.3658,5.3869,5.3689,5.3709,5.3961,5.3972,5.3982,5.4029,5.4662,5.4984,3.4171,3.4637,3.4918,3.6077,3.6577,3.6933,3.7578,3.754,3.7429,3.7721,3.7504,3.7605,3.865,3.9128,3.9988,4.1789,4.275,4.3744,4.4941,4.5035,4.5281,4.5852,4.5593,4.5649,4.642,4.6825,4.7334,0.0,4.826,4.8645,4.9485,5.0293,5.0927,5.1403,5.1899,5.2272,5.2395,5.291,5.3353,5.3815,5.4135,5.4526,5.4792,5.4717,5.4606,5.455,0.0,5.4649,5.5036,5.4747,5.4874,5.5319,5.5133,5.5062,5.508,5.4773,5.4517,5.4209,5.3891,5.3566,5.319,5.2817,5.2717,5.2733,5.2258,5.2193,5.2193,5.2069,5.2069,5.2266,5.2827,5.298,5.3103,5.3314,5.3437,5.3521,5.3641,5.3385,5.3237,5.3423,5.346,5.3571,5.3907,5.3982,5.4055,5.42,5.4235,5.4337,5.4603,5.4667,5.4791,5.5028,5.5095,5.5216,5.5313,5.5377,5.527,5.4885,5.5132,5.5072,5.4682,5.4474,5.4548,5.4956,5.4624,5.4648,5.506,5.5074,5.5087,5.5093,5.5582,5.5833,3.5335,3.6233,3.6837,3.6754,3.7184,3.7646,3.7792,3.7644,3.7496,3.7613,3.7503,3.7565,3.8309,3.9005,3.994,4.141,4.2859,4.4397,4.6105,4.6335,4.6996,4.867,4.801,4.7819,4.8741,4.8783,4.9065,4.9838,4.9905,4.9975,5.0206,5.1527,5.2302,5.2411,5.3245,5.3708,5.3869,5.4082,5.4527,5.5205,5.5258,5.5686,5.6328,5.6253,5.6141,5.6141,5.5879,0.0,5.5706,5.5764,5.5764,5.5764,5.6217,5.6308,5.6217,5.6492,5.606,5.5362,5.5649,5.4955,5.3753,5.3017,5.2781,5.2806,5.268,5.2717,5.2761,5.2627,5.259,5.2635,5.2893,5.2893,5.2893,5.3235,5.3318,5.34,5.3674,5.3121,5.264,5.2716,5.2754,5.2977,5.3683,5.3981,5.4131,5.4128,5.4423,5.4675,5.4829,5.4774,5.4754,5.4971,5.5113,5.5171,5.5195,5.5275,5.5389,5.5577,5.5904,5.6111,5.6211,5.5773,5.5874,5.6625,5.5979,5.6008,5.6748,5.6792,5.6847,5.6847,5.6854,5.6836,3.6599,3.693,3.7334,3.8436,3.8762,3.8761,3.8613,3.8424,3.8132,3.7571,3.7164,3.7294,3.8611,3.932,4.0446,4.2633,4.4396,4.5914,4.7174,4.8,4.8629,4.8962,4.8806,4.877,4.8962,5.0079,5.084,0.0,5.2147,5.2552,5.1828,5.2856,5.3549,5.3708,5.3851,5.3922,5.3975,5.467,5.5062,5.5205,5.5774,5.6111,5.6253,5.6049,5.5993,5.5993,5.6049,0.0,5.5879,5.6049,5.5993,5.5879,5.6141,5.6197,5.6182,5.5669,5.5222,5.486,5.4661,5.4448,5.42,5.4078,5.3566,5.2937,5.2937,5.285,5.2761,5.2572,5.2536,5.2635,5.2806,5.2806,5.2893,5.3272,5.3437,5.3518,5.3711,5.368,5.3533,5.3608,5.3608,5.3645,5.3794,5.4465,5.4802,5.4203,5.5432,5.6246,5.5672,5.5093,5.4799,5.5047,5.5038,5.5066,5.5216,5.5301,5.5461,5.5605,5.6483,5.7047,5.7236,5.7871,5.8309,5.8509,5.8403,5.8394,5.8554,5.8562,5.857,5.8663,5.8637,5.8643,3.8109,3.8313,3.8504,3.9554,3.9409,3.8976,3.8827,3.8356,3.7816,3.7425,3.7203,3.745,3.8424,3.9562,4.1079,4.3456,4.5123,4.6791,4.8664,4.8997,4.933,5.0196,4.9862,4.9933,5.0835,5.1528,5.2077,5.2467,5.3618,5.3956,5.3068,5.3939,5.4687,5.5241,5.5169,5.5169,5.5241,5.5633,5.5812,5.5847,5.615,5.6308,5.6308,5.6217,5.6106,5.6049,5.6049,0.0,5.5822,5.5822,5.5799,5.5706,5.5879,5.5936,5.5901,5.5679,5.556,5.5544,5.5506,5.5202,5.4821,5.4976,5.4452,5.3799,5.4159,5.4135,5.3927,5.3298,5.3142,5.3044,5.2708,5.2725,5.285,5.3225,5.3396,5.3558,5.3753,5.3793,5.3794,5.3794,5.4128,5.4464,5.4541,5.5248,5.5772,5.5581,5.6326,5.6659,5.612,5.6031,5.5933,5.5572,5.5996,5.6092,5.5779,5.6289,5.6639,5.6774,5.7405,5.7833,5.7986,5.8542,5.8882,5.888,5.888,5.8904,5.8958,5.8968,5.8987,5.9053,5.9038,5.9053,3.9528,3.9728,3.977,4.0455,3.9912,3.9154,3.9002,3.8285,3.7605,3.735,3.7354,3.7678,3.8383,3.9736,4.1511,4.3988,4.5609,4.7452,4.9791,4.9841,5.0069,5.1414,5.1028,5.1241,5.2624,5.2945,5.3318,5.3921,5.4953,5.524,5.4403,5.5114,5.5845,5.6383,5.6451,5.6486,5.6383,5.6383,5.6383,5.6383,5.6383,5.6383,5.6364,5.6364,5.6308,5.6141,5.5993,0.0,0.0,5.5625,5.5507,5.5507,5.5648,5.5706,5.5706,5.5936,5.6126,5.6257,5.6563,5.6124,5.5496,5.592,5.546,5.4906,5.544,5.546,5.5067,5.4262,5.407,5.3889,5.3217,5.3126,5.3222,5.3219,5.3396,5.3561,5.3754,5.3756,5.383,5.4017,5.4611,5.5209,5.551,5.6257,5.6818,5.6889,5.7223,5.7294,5.6685,5.7276,5.7451,5.6549,5.7005,5.7089,5.6375,5.7168,5.7679,5.7647,5.8235,5.8644,5.8758,5.911,5.9342,5.936,5.936,5.9374,5.9464,5.9449,5.9471,5.9532,5.9737,5.9802,4.0696,4.0664,4.0778,4.1175,4.0703,3.998,3.9593,3.899,3.8244,3.7456,3.7429,3.7863,3.8723,3.9732,4.1351,4.4107,4.6147,4.8057,4.9991,5.1066,5.1665,5.1672,5.2279,5.2707,5.2886,5.417,5.4973,5.5044,5.6599,5.71,5.6204,5.6918,5.7061,5.6418,5.7096,5.7132,5.6418,5.6383,5.6383,5.6383,5.6383,5.6364,5.6197,5.6197,5.6106,5.5936,5.5901,0.0,0.0,5.5706,5.5625,5.5507,5.5648,5.5706,5.5764,5.6162,5.6349,5.6419,5.6809,5.6464,5.6018,5.7,5.6791,5.6226,5.63,5.5843,5.5359,5.5285,5.5249,5.5249,5.5131,5.4846,5.4386,5.3445,5.34,5.36,5.3676,5.3676,5.3901,5.4721,5.5131,5.5581,5.637,5.7267,5.7677,5.7,5.8307,5.8982,5.805,5.8721,5.8942,5.8081,5.7574,5.7062,5.6419,5.7127,5.7395,5.6843,5.8489,5.9531,5.9687,6.0515,6.1026,6.1147,6.1147,6.1175,6.1238,6.125,6.125,6.1289,6.2063,6.2445,4.1426,4.1361,4.1323,4.1965,4.1056,3.9935,3.966,3.878,3.7858,3.7388,3.7856,3.854,3.9363,4.062,4.2374,4.4892,4.682,4.8595,5.0306,5.137,5.2184,5.2601,5.286,5.3432,5.4327,5.4954,5.5705,5.6725,5.7424,5.7853,5.7977,5.8299,5.8244,5.781,5.8096,5.8131,5.781,5.7697,5.764,5.764,5.7583,5.7561,5.7468,5.6972,5.6644,5.6493,5.5976,0.0,0.0,5.5566,5.5566,5.5507,5.5566,5.5742,5.5993,5.6049,5.6311,5.6668,5.6793,5.6624,5.6536,5.712,5.7122,5.6974,5.7261,5.7125,5.6703,5.5957,5.5811,5.5858,5.5727,5.5623,5.5339,5.4503,5.4601,5.4917,5.4999,5.5081,5.5232,5.5569,5.6206,5.6809,5.7305,5.8053,5.8803,5.9248,5.9849,6.0114,5.9778,6.049,6.0977,6.0755,5.9467,5.8358,5.7711,5.857,5.9273,5.9676,6.0119,6.0689,6.135,6.1271,6.1242,6.1337,6.1857,6.2143,6.2238,6.277,6.3003,6.3003,6.3414,6.3553,4.2229,4.2122,4.2042,4.2465,4.145,4.0217,3.9811,3.8821,3.7862,3.7425,3.8144,3.9115,3.9866,4.1375,4.3238,4.5602,4.7419,4.9046,5.0569,5.1778,5.269,5.3217,5.3584,5.4251,5.5362,5.5864,5.6617,5.771,5.8322,5.8824,5.9286,5.9593,5.9465,5.8795,5.8952,5.8952,5.8738,5.8566,5.8508,5.8508,5.8367,5.8249,5.8213,5.7341,5.6976,5.7068,5.6199,0.0,0.0,5.5799,5.5718,5.5625,5.5625,5.5914,5.6253,5.6162,5.6347,5.6724,5.674,5.6809,5.6876,5.7116,5.7266,5.7364,5.7825,5.7883,5.7617,5.6842,5.6744,5.6744,5.6564,5.651,5.6418,5.6088,5.6036,5.6061,5.5997,5.6121,5.6388,5.6792,5.7773,5.8572,5.8653,5.9178,5.9891,6.075,6.0825,6.0866,6.1093,6.1657,6.2071,6.222,6.098,5.9804,5.8891,5.957,6.0341,6.0884,6.0902,6.1323,6.2297,6.1814,6.1694,6.2012,6.261,6.2991,6.3075,6.3687,6.3987,6.4026,6.4312,6.457,4.3142,4.3104,4.2994,4.2688,4.192,4.1053,4.0185,3.9439,3.8579,3.7609,3.8293,3.9337,4.0165,4.172,4.364,4.5905,4.7886,4.9517,5.071,5.2426,5.3435,5.3338,5.4655,5.559,5.559,5.7028,5.7909,5.7782,5.9528,0.0,6.0074,6.1034,6.0783,5.9036,5.9545,5.9523,5.8738,5.8566,5.8508,5.8508,5.8367,5.8213,5.7998,5.7007,5.6956,0.0,0.0,0.0,0.0,5.6388,5.6234,5.5901,5.5901,5.6106,5.6383,5.6546,5.66,5.66,5.676,5.6881,5.7021,5.718,5.7297,5.7473,5.7729,5.7788,5.7857,5.8088,5.8179,5.8133,5.8042,5.772,5.7634,5.8215,5.755,5.6685,5.6199,5.6434,5.7148,5.8401,5.9921,6.0867,6.0529,6.0751,6.0966,6.0898,6.0969,6.1198,6.1732,6.1806,6.1806,6.1806,6.1768,6.1168,5.9624,5.9847,5.9786,5.9073,6.02,6.128,6.2155,6.2256,6.2723,6.3669,6.3761,6.3796,6.3883,6.3969,6.3983,6.4022,6.4881,6.5739,4.2268,4.252,4.2878,4.2649,4.1959,4.113,4.0265,3.9476,3.8688,3.79,3.8438,3.9337,4.0275,4.1832,4.3572,4.5183,4.7524,4.9343,5.0128,5.2159,5.3797,5.4339,5.5584,5.6417,5.6417,5.6778,5.7532,5.8663,5.9293,6.0104,6.107,6.13,6.1113,6.0438,6.0499,6.038,6.0131,5.9927,5.9779,5.9779,5.8967,5.878,5.9172,5.7751,5.7451,0.0,0.0,0.0,0.0,5.651,5.6234,5.5764,5.5844,5.6106,5.6383,5.6437,5.66,5.676,5.6812,5.6829,5.6793,5.7021,5.7072,5.7138,5.7351,5.7546,5.781,5.7904,5.7737,5.7606,5.793,5.7804,5.7794,5.8452,5.8702,5.8837,5.873,5.9384,5.9953,5.9763,6.0301,6.0717,6.0679,6.0789,6.1271,6.2178,6.2554,6.2969,6.3691,6.3652,6.3575,6.3496,6.3008,6.2296,6.1391,6.1619,6.1987,6.248,6.2567,6.3014,6.393,6.3492,6.3342,6.3708,6.4307,6.4653,6.4726,6.5325,6.563,6.5646,6.5902,6.619,4.1724,4.2482,4.3201,4.276,4.2505,4.1962,4.0522,3.9839,3.9157,3.8115,3.8762,3.9698,4.0384,4.2413,4.4375,4.5486,4.7897,4.9792,5.0416,5.2635,5.4592,5.5631,5.6407,5.6865,5.6776,5.7298,5.8053,5.9168,5.9816,6.0516,6.1523,6.1386,6.1176,6.0998,6.0878,6.0782,6.0782,6.0547,6.0396,6.0297,5.9488,5.9359,5.9648,5.8298,5.8029,0.0,0.0,0.0,0.0,5.7052,5.6658,5.6049,5.6106,5.6273,5.6546,5.6492,5.66,5.6707,5.6653,5.6671,5.6688,5.6776,5.6933,5.7123,5.7579,5.7753,5.7763,5.781,5.7642,5.7667,5.8396,5.8621,5.8878,5.9641,6.0122,6.037,6.0455,6.1114,6.1574,6.1229,6.1429,6.1694,6.1657,6.1804,6.214,6.286,6.316,6.3651,6.4595,6.4557,6.4556,6.4735,6.4061,6.365,6.3841,6.3069,6.2871,6.349,6.3399,6.3777,6.4694,6.4277,6.4188,6.4619,6.549,6.5993,6.603,6.6919,6.7325,6.7342,6.7307,6.7289,0.0,4.2846,4.3824,4.2985,4.3268,4.308,4.0925,4.042,0.0,3.833,3.9301,4.0456,4.0672,4.3322,4.5763,4.667,4.8821,5.0648,5.1435,5.3535,5.5559,5.713,5.7123,5.6969,5.6884,5.8215,5.9168,5.9349,6.068,6.1523,6.1595,6.1386,6.1117,6.0782,6.0782,6.0722,6.0722,6.0485,6.0234,6.0001,5.9739,5.9543,5.9516,5.8519,5.8556,0.0,0.0,0.0,0.0,5.7973,5.7468,5.6617,5.6418,5.6546,5.676,5.66,5.6582,5.6617,5.6509,5.6599,5.6779,5.6779,5.7097,5.7601,5.8428,5.8178,5.7667,5.7836,5.7977,5.8244,5.937,6.0093,6.0737,6.1532,6.1545,6.1395,6.1437,6.1839,6.2296,6.2653,6.3124,6.3424,6.3314,6.35,6.357,6.3314,6.3238,6.3652,6.4742,6.482,6.501,6.5489,6.4966,6.5116,6.6533,6.4291,6.2819,6.2953,6.334,6.3962,6.4894,6.4956,6.5388,6.6234,6.7149,6.7637,6.7677,6.8452,6.8878,6.8878,6.882,6.88,4.1687,0.0,4.3248,4.2955,4.2592,4.2014,0.0,4.0456,4.0238,3.9295,3.9979,4.1103,4.234,4.3834,4.5553,4.7526,4.9273,5.069,5.1578,5.3636,5.5825,5.7992,5.7433,5.7081,5.7639,5.7963,5.8374,5.9039,5.9916,6.0741,6.135,6.1058,6.0878,6.0782,6.0609,6.0423,6.0262,6.0072,5.9663,5.9039,5.8089,5.8059,5.8681,5.759,5.7971,0.0,0.0,0.0,5.8783,5.8245,5.7612,5.6922,5.6262,5.6162,5.6328,5.6162,5.6609,5.7366,5.7163,5.7611,5.8223,5.8537,5.9078,5.9595,5.9414,5.8587,5.7923,5.8738,5.8494,5.8406,6.0093,6.1505,6.2472,6.216,6.2258,6.2421,6.2504,6.3193,6.369,6.3238,6.3313,6.3686,6.4256,6.4406,6.4745,6.5615,6.5615,6.5842,6.6636,6.6294,6.5908,6.5981,6.6128,6.6308,6.6469,6.5767,6.5631,6.6383,6.6774,6.7121,6.7357,6.7475,6.7641,6.7933,6.8212,6.8336,6.8397,6.8552,6.8668,6.8668,6.8668,6.8668,4.2377,4.3069,4.3578,4.314,4.3032,4.2705,4.1469,4.1178,4.0995,4.0229,4.0771,4.1754,4.3031,4.4309,4.5993,4.8373,4.9679,5.1092,5.2988,5.461,5.614,5.771,5.7546,5.7388,5.7353,5.7944,5.8554,5.9039,6.0095,6.0805,6.1176,6.0938,6.0757,6.0574,6.0521,6.0297,6.0107,5.9593,5.9015,5.8437,5.7443,5.724,5.7656,5.7586,5.8133,0.0,0.0,0.0,5.8683,5.7966,5.7246,5.6502,5.6078,5.5936,5.5936,5.5936,5.6546,5.7391,5.7299,5.7947,5.8795,5.9075,5.9493,5.9907,6.0069,5.9662,5.9151,5.9187,5.9286,5.9615,6.0793,6.217,6.3169,6.2822,6.3041,6.3355,6.385,6.4469,6.497,6.4894,6.5011,6.5275,6.5653,6.5766,6.6106,6.7009,6.7045,6.7045,6.7236,6.6965,6.6767,6.6753,6.6716,6.6893,6.7374,6.7228,6.7202,6.7458,6.7769,6.799,6.8196,6.8262,6.851,6.8936,6.9014,6.9271,6.9656,6.9656,6.9682,6.9706,6.9631,6.9631,4.3176,4.3907,4.4236,4.3323,4.3579,4.3689,4.2267,4.2011,4.1827,4.1134,4.1754,4.2702,4.3577,4.5114,4.6945,4.9212,5.0373,5.1923,5.4626,5.5668,5.6405,5.7108,5.7565,5.755,5.6815,5.7997,5.8912,5.913,6.0325,6.1068,6.1093,6.0772,6.0529,6.0396,6.0227,6.0065,6.0043,5.9109,5.8432,5.8002,5.714,5.6729,5.6698,5.7547,5.8089,5.8293,0.0,0.0,5.8107,5.7694,5.7021,5.6197,5.6233,5.6117,5.6059,5.6175,5.6786,5.7517,5.7797,5.841,5.9152,5.9434,5.9545,5.9799,6.0666,6.097,6.0726,5.9852,6.0418,6.1361,6.1666,6.2788,6.3789,6.3641,6.3952,6.4433,6.5179,6.5586,6.6018,6.665,6.6886,6.7005,6.7037,6.7115,6.7341,6.7856,6.7931,6.7819,6.746,6.7423,6.7492,6.7568,6.7091,6.7315,6.8538,6.8346,6.7981,6.7619,6.7802,6.815,6.8502,6.8569,6.8905,6.9644,6.9739,7.014,7.0871,7.0871,7.0898,7.0952,7.0843,7.0787,4.325,4.3907,4.4418,4.3397,4.2885,4.241,4.1905,4.1976,4.2079,4.1864,4.3138,4.4563,4.5333,4.68,4.8488,5.0211,5.2254,5.3908,5.4844,5.562,5.6573,5.797,5.7369,5.7048,5.7567,5.7743,5.808,5.8723,5.9616,6.0321,6.0843,6.0058,5.984,6.036,5.9475,5.9219,5.9652,5.8885,5.8025,5.717,5.628,5.587,5.6033,5.6038,5.6581,5.7527,0.0,5.8394,5.8094,5.8501,5.829,5.7645,5.756,5.756,5.7645,5.7645,5.8355,5.9432,6.0249,6.0688,6.097,6.1142,6.1312,6.1459,6.1733,6.1933,6.202,6.1911,6.2172,6.2598,6.2878,6.4314,6.5493,6.4782,6.5254,6.5866,6.6015,6.615,6.6363,6.6683,6.6641,6.6866,6.7664,6.7648,6.7778,6.8526,6.8567,6.8633,6.8855,6.8372,6.8044,6.7996,6.8108,6.8257,6.8321,6.8405,6.8585,6.8876,6.936,6.9766,7.0069,7.0171,7.0341,7.0507,7.0507,7.0584,7.0699,7.0699,7.0767,7.0767,7.0699,7.0669,4.3942,4.438,4.4781,4.4638,4.4382,4.4161,4.4017,4.4089,4.4161,4.4125,4.4747,4.5736,4.6985,4.7792,4.9074,5.1444,5.3032,5.4355,5.5366,5.6088,5.6783,5.7454,0.0,5.7388,5.7636,5.8065,5.8637,5.9309,6.0094,6.0582,6.0696,6.0132,5.9847,6.0072,5.9499,5.9304,5.9621,5.8689,5.8002,5.7489,5.6184,5.5904,5.6418,5.6928,5.7339,5.7751,0.0,5.8514,5.8227,5.8191,5.7946,5.7693,5.7666,5.7754,5.8033,5.8613,5.9182,5.9823,6.0629,6.1402,6.1996,6.2112,6.2609,6.3083,6.3253,6.3202,6.3274,6.3566,6.3722,6.3833,6.439,6.5201,6.5816,6.5561,6.5849,6.635,6.6797,6.6963,6.7165,6.7531,6.756,6.7626,6.7942,6.797,6.8034,6.832,6.8494,6.8556,6.8519,6.8284,6.8037,6.7862,6.8111,6.8222,6.8208,6.8457,6.88,6.9251,6.97,7.0076,7.0251,7.0391,7.0457,7.0483,7.0515,7.0547,7.0547,7.0483,7.0483,7.0547,7.0451,7.0386,4.4526,4.5038,4.5551,4.625,4.6214,4.5956,4.5847,4.5847,4.592,4.5883,4.6214,4.6838,4.8086,4.8891,5.0163,5.2615,5.3717,5.4629,5.5763,5.6479,5.6865,5.676,5.737,5.7672,5.7596,5.8422,5.9173,5.9786,6.0428,6.0676,6.0485,6.0058,5.9832,5.9779,5.9478,5.9412,5.9652,5.8724,5.8175,5.7941,5.6357,5.6046,5.6739,5.7413,5.7756,5.7731,5.8462,5.8491,5.8059,5.8136,5.8129,5.8129,5.8367,5.8792,5.9284,6.0007,6.0342,6.0629,6.1173,6.1925,6.2761,6.2902,6.3487,6.4166,6.4282,6.4182,6.4185,6.4858,6.5148,6.5375,6.6026,6.6186,6.6273,6.6283,6.65,6.6891,6.756,6.7766,6.7915,6.8283,6.8334,6.8198,6.7996,6.7996,6.7996,6.7893,6.8055,6.8188,6.8162,6.7957,6.781,6.7924,6.7973,6.8004,6.807,6.8468,6.8921,6.9515,6.9814,7.0003,7.0149,7.0255,7.0289,7.0289,7.0319,7.0353,7.0353,7.0286,7.0286,7.0353,7.0255,7.022,4.4601,4.581,4.7169,4.8052,4.7206,4.5993,4.5661,4.5736,4.5883,4.581,4.7019,4.8159,4.8269,5.0602,5.2725,5.3432,5.4737,5.5649,5.5641,5.6204,5.6653,5.66,5.7207,5.7652,5.7596,5.8274,5.9002,5.9704,5.9752,5.9891,6.0135,5.9405,5.9236,5.9779,5.892,5.8885,5.9779,5.8851,5.8307,5.8175,5.6422,5.5881,5.6505,5.6016,5.6119,5.6675,5.7894,5.792,5.727,5.9271,6.0023,6.0001,6.1058,6.2053,6.2781,6.2691,6.2817,6.3163,6.3049,6.3146,6.3367,6.3669,6.386,6.3955,6.4072,6.4251,6.4511,6.5456,6.6555,6.7447,6.7539,6.77,6.7649,6.6962,6.7518,6.8161,6.8198,6.8235,6.8284,6.8321,6.8121,6.7915,6.7826,6.7614,6.7451,6.7451,6.7378,6.7724,6.8783,6.7923,6.7595,6.8507,6.8018,6.7687,6.8107,6.8468,6.9136,7.0151,7.0032,6.9967,7.0003,7.0149,7.0185,7.0185,7.0185,7.022,7.022,7.0185,7.0185,7.022,7.0185,7.0149,4.5993,4.7169,4.8274,4.9159,4.9307,4.9121,4.8932,4.8565,4.8382,4.8818,4.9001,4.9554,5.0936,5.2316,5.3603,5.4907,5.5397,5.6001,5.6956,5.7245,5.7476,5.783,5.8075,5.8316,5.8662,5.8982,5.9538,6.0475,6.0367,6.0413,6.0696,5.9917,5.9628,6.0008,5.9338,5.9273,5.9943,5.9273,5.9311,5.9931,5.8102,5.746,5.7913,5.7807,5.8083,5.8841,5.9457,5.9522,5.9415,6.0893,6.136,6.1298,6.2355,6.2978,6.32,6.3101,6.3227,6.3413,6.3262,6.3734,6.4434,6.4531,6.4975,6.5527,6.5599,6.5583,6.5727,6.6474,6.7176,6.7704,6.7841,6.793,6.7893,6.77,6.7936,6.8208,6.8208,6.8208,6.807,6.7773,6.8054,6.822,6.794,6.832,6.859,6.8531,6.7746,6.7528,6.8509,6.8539,6.8195,6.7607,6.7541,6.7687,6.8171,6.8371,6.8809,6.9566,7.0093,7.064,7.1212,7.1408,7.1295,7.0763,7.0874,7.0644,7.0114,7.0041,6.9967,6.9891,6.9853,6.9815,4.7243,4.8126,4.8901,5.0304,5.0897,5.1228,5.159,5.0812,5.0184,5.0574,5.0566,5.103,5.2798,5.3675,5.4589,5.5974,5.6253,5.6742,5.807,5.814,5.8244,5.8609,5.8779,5.9017,5.937,5.9618,6.0068,6.0818,6.0609,6.0547,6.0793,6.0199,5.9984,6.0423,6.0,6.0038,6.0744,6.0349,6.0493,6.1218,6.0038,5.9527,5.9632,5.9495,5.9875,6.067,6.0946,6.115,6.1253,6.2112,6.2576,6.2781,6.3779,6.4037,6.3946,6.3946,6.3974,6.3974,6.391,6.4519,6.5233,6.5295,6.5776,6.633,6.6499,6.6427,6.6482,6.7324,6.7903,6.8349,6.8495,6.8382,6.8215,6.832,6.8557,6.8794,6.8794,6.8741,6.8562,6.7891,6.8126,6.8299,6.7981,6.8392,6.8753,6.8692,6.7921,6.7655,6.8428,6.8509,6.8044,6.704,6.7174,6.7707,6.8541,6.842,6.874,6.9739,7.021,7.0686,7.1237,7.136,7.1289,7.0987,7.0877,7.065,7.0233,6.9928,6.9776,6.9659,6.9617,6.9577,4.8198,4.8494,4.9158,5.1632,5.1785,5.16,5.2991,5.2022,5.0721,5.0477,5.1492,5.2604,5.3303,5.4697,0.0,5.6528,5.7316,5.8013,5.8631,5.8738,5.8681,5.8543,5.9218,5.9621,5.9406,6.0149,6.0547,6.0396,6.0234,6.0107,6.0107,5.9943,6.0229,6.1195,6.0834,6.115,6.2121,6.2121,6.1917,6.1641,6.2121,6.1985,6.1289,6.0739,6.0947,6.1675,6.2188,6.2357,6.2326,6.2946,6.3788,6.4697,6.5482,6.5675,6.551,6.551,6.5415,6.5349,6.5445,6.551,6.5575,6.6182,6.6146,6.6083,6.6391,6.644,6.6548,6.7945,6.8945,6.9654,6.9654,6.9299,6.8935,6.8935,6.9632,7.0293,7.0293,7.0184,6.9797,6.8787,6.8277,6.7957,6.7739,6.759,6.7563,6.7563,6.7652,6.8028,6.8786,6.7644,6.6903,6.7154,6.721,6.7817,6.9163,6.8703,6.9125,7.097,7.048,6.9934,6.9652,6.9614,6.9992,7.0784,6.9992,6.9992,7.0784,6.9992,6.9577,6.9577,6.9577,6.9577,4.8274,4.9418,5.0526,5.1341,5.2597,5.3739,5.4096,5.2913,5.1797,5.2047,5.307,5.4399,5.5822,5.6077,0.0,5.8178,5.8351,5.8609,5.9452,5.9442,5.9538,5.9927,6.0088,6.0105,5.9945,6.0093,6.0297,6.036,6.0663,6.0944,6.1008,6.0749,6.1002,6.1803,6.1415,6.1551,6.242,6.2389,6.267,6.333,6.2993,6.237,6.1501,6.1502,6.2266,6.3625,6.3971,6.4175,6.4305,6.423,6.467,6.5482,6.5697,6.574,6.5675,6.551,6.5575,6.5675,6.5545,6.5996,6.6717,6.6908,6.7303,6.7633,6.7429,6.6818,6.6726,6.8645,7.0082,7.0792,7.0259,7.015,7.0156,6.9721,6.9814,7.0054,7.0165,7.0054,6.9811,6.9267,6.9431,6.9524,6.9273,6.9577,6.9937,6.9937,6.9297,6.865,6.8139,6.8138,6.8131,6.8049,6.7762,6.8309,7.0095,6.8985,6.8753,7.0139,6.9432,6.9584,7.0886,7.0968,7.0824,7.0492,7.039,7.0046,6.9541,6.9402,6.9284,6.9109,6.9109,6.9153,4.8827,4.9862,5.0897,5.1859,5.3188,5.4322,5.4779,5.4069,5.3353,5.3499,5.4351,5.5469,5.6717,5.6904,0.0,5.9255,5.9281,5.9394,6.0119,6.0202,6.026,6.0512,6.0458,6.0333,6.0107,6.0008,6.0008,6.0135,6.0709,6.123,6.1389,6.1641,6.2104,6.2978,6.2904,6.311,6.3569,6.4235,6.469,6.4902,6.4913,6.4533,6.3869,6.352,6.4113,6.5514,6.5793,6.6067,6.6266,6.6067,6.6089,6.6303,6.6589,6.6453,6.6174,6.6459,6.6322,6.6109,6.6393,6.6803,6.7211,6.7625,6.8056,6.8414,6.8418,6.7887,6.768,6.9792,7.0871,7.1417,7.092,7.0932,7.0956,7.0427,7.0522,7.0741,7.0857,7.0778,7.0492,6.9986,7.0009,7.0085,6.9829,7.0094,7.0315,7.0315,6.9813,6.916,6.8283,6.8898,6.9236,6.8924,6.8621,6.9119,7.084,6.9769,6.9451,7.0573,6.983,6.993,7.1227,7.0724,7.0405,7.0271,7.0016,6.9791,6.9469,6.9177,6.902,6.8921,6.8921,6.8929,4.9602,4.9973,5.0639,5.2927,5.3625,5.4091,5.533,5.5487,5.5265,5.4796,5.5433,5.616,5.6725,5.764,5.8735,6.0024,6.0254,6.0425,6.0831,6.0843,6.0732,6.0591,6.0564,6.0403,6.0212,6.0118,6.0054,5.9919,6.0788,6.141,6.1806,6.2669,6.3577,6.4657,6.5131,6.5353,6.5258,6.694,6.7362,6.6421,6.7401,6.7688,6.7446,6.618,6.6144,6.7094,6.7445,6.7756,6.803,6.8057,6.7695,6.716,6.7838,6.7593,6.6963,6.7772,6.7461,6.6695,6.7705,6.7695,6.7368,6.8407,6.8694,6.8701,6.9488,6.9363,6.9289,7.0987,7.1485,7.1494,7.1494,7.1494,7.1376,7.0956,7.1477,7.1988,7.1988,7.1903,7.1598,7.0835,7.0283,6.9901,6.9937,6.9675,6.9408,6.9444,6.9741,6.9677,6.9048,6.9813,7.0266,6.98,6.9712,7.0177,7.1545,7.0808,7.0679,7.1652,7.1057,7.0717,7.087,6.9703,6.9435,7.0191,6.9481,6.9398,7.0032,6.9323,6.895,6.8875,6.8875,6.8875,4.9489,5.019,5.115,5.2917,5.4626,5.6136,5.6806,5.7024,5.6794,5.5735,5.6696,5.7818,5.8374,5.9552,6.0626,6.1214,6.1462,6.1533,6.1458,6.1058,6.1031,6.1768,6.1654,6.1341,6.1084,6.1841,6.1882,6.0858,6.2248,6.3502,6.4168,6.4579,6.5455,6.6837,6.6809,6.701,6.742,6.7843,6.8016,0.0,6.7581,6.7833,6.8572,6.6707,6.6426,6.7445,6.7583,6.8143,6.8948,6.8373,6.8016,6.7873,6.8016,6.798,6.7807,6.8052,6.7914,6.7741,6.8016,6.8409,6.8837,6.9281,6.968,7.0114,7.0706,7.0706,7.0649,7.1323,7.1494,7.1494,7.1494,7.1494,7.1458,7.134,7.1573,7.1842,7.1988,7.1903,7.1682,7.1376,7.1115,7.0822,7.0728,7.059,7.0458,7.0468,7.0764,7.0606,6.9555,7.0102,7.0568,7.0529,7.0214,7.0716,7.2521,7.1195,7.0679,7.1652,7.0897,7.0454,7.056,7.0536,7.0574,7.0869,7.072,7.0374,6.983,6.9607,6.9197,6.8554,6.8457,6.8554,4.9489,5.0632,5.2106,5.4375,5.6283,5.7534,5.7437,5.7956,5.8181,5.7077,5.7634,5.8681,5.9993,6.0848,6.1579,6.2449,6.2617,6.2638,6.2391,6.2078,6.1974,6.2435,6.2407,6.228,6.2023,6.2505,6.2576,6.1893,6.3529,6.4787,6.5242,6.6352,6.7267,6.8088,6.8414,6.8507,6.8349,6.9102,6.9317,6.8958,6.878,6.8786,6.8856,6.7729,6.7694,6.8646,6.7902,6.825,6.9265,6.8444,6.8088,6.8123,6.8516,6.8658,6.873,6.9122,6.9015,6.873,6.9122,6.9332,6.9506,7.0033,7.0427,7.0817,7.111,7.1175,7.1175,7.1431,7.1494,7.1494,7.1494,7.1494,7.1494,7.1494,7.1593,7.1656,7.1744,7.1718,7.1656,7.1494,7.1368,7.124,7.1146,7.0973,7.0806,7.0785,7.0872,7.0815,7.044,7.0789,7.1065,7.1247,7.1099,7.1348,7.2422,7.1668,7.1338,7.1798,7.1431,7.1267,7.1323,7.1544,7.1389,7.0819,7.0782,7.0546,7.0087,6.9679,6.9359,6.8964,6.8494,6.8408,4.9671,5.1293,5.3429,5.6043,5.7619,5.8391,5.7701,5.8513,5.924,5.879,5.8878,5.9492,6.1199,6.1825,6.2471,6.3513,6.3617,6.3529,6.3325,6.3101,6.301,6.3058,6.3222,6.3158,6.2964,6.3135,6.3235,6.317,6.4805,6.5953,6.6303,6.8012,6.8994,6.9201,6.994,6.9976,6.9201,7.0433,7.0656,6.9914,7.0157,6.9812,6.8964,6.8717,6.8965,6.9708,6.829,6.825,6.9265,6.8444,6.8088,6.8159,6.9015,6.9301,6.9408,7.0193,7.0086,6.9622,7.0264,7.0186,6.989,7.0503,7.0852,7.1015,7.1247,7.1276,7.1204,7.1431,7.1494,7.1494,7.1494,7.1494,7.1494,7.1494,7.1494,7.1494,7.1494,7.1494,7.1494,7.1494,7.1404,7.134,7.134,7.1067,7.0836,7.0883,7.0793,7.0843,7.124,7.1404,7.1593,7.1816,7.1816,7.1842,7.1988,7.1988,7.1988,7.1988,7.2108,7.2167,7.2167,7.2285,7.1929,7.0843,7.075,7.0602,7.0507,6.9642,6.9267,6.9221,6.8555,6.8358,5.024,5.2615,5.504,5.603,5.7375,5.8435,5.8275,5.8753,5.9636,6.1172,6.1425,6.1312,6.1234,6.3072,6.4447,6.3764,6.4143,6.426,6.386,6.3535,6.3663,6.4465,6.4448,6.4258,6.3902,6.4799,6.5319,6.5155,6.6232,6.7697,6.9417,6.9733,7.0292,7.1106,7.125,7.125,7.1142,7.1232,7.124,7.1067,7.0647,7.0131,6.9493,6.9,6.8892,6.9171,6.8282,6.8386,6.9265,6.8444,6.8088,6.8159,6.9015,6.9301,6.9408,7.0193,7.0443,7.0371,7.0478,7.0443,7.044,7.0547,7.065,7.0888,7.1123,7.1182,7.1204,7.1431,7.1494,7.1494,7.1494,7.1494,7.1494,7.1494,7.1494,7.1494,7.1494,7.1494,7.1494,7.1494,7.1494,7.1431,7.1431,7.1214,7.1015,7.1103,7.1232,7.1295,7.1204,7.1368,7.1593,7.1816,7.1816,7.1842,7.1988,7.1988,7.1988,7.1988,7.2048,7.2048,7.2048,7.2048,7.2094,7.2087,7.1581,7.1102,7.0507,6.959,6.8815,6.8306,6.8195,6.8208,5.1901,5.3745,5.5473,5.7035,5.829,5.9072,5.8967,6.0196,6.1384,6.1656,6.2717,6.3595,6.3394,6.4158,6.4849,6.4894,6.4991,6.524,6.56,6.5019,6.4892,6.574,6.5975,6.5975,6.5717,6.6789,6.7382,6.7346,6.8255,6.9201,7.0049,7.0645,7.1069,7.1494,7.1494,7.1494,7.1494,7.1081,7.075,7.0511,7.041,7.0272,7.0096,6.9637,6.9459,6.9494,6.8425,6.8386,6.9094,6.8378,6.8373,6.8801,6.9158,6.9586,7.0015,7.0371,7.0514,7.0514,7.0514,7.0514,7.0514,7.065,7.0785,7.0985,7.1218,7.1276,7.1368,7.1494,7.1865,7.2272,7.2553,7.2568,7.2575,7.2604,7.1896,7.129,7.1348,7.1376,7.1404,7.1404,7.1467,7.1494,7.1404,7.1359,7.1286,7.124,7.1368,7.1431,7.124,7.1368,7.1531,7.1531,7.1593,7.1656,7.1682,7.1744,7.1744,7.1744,7.1744,7.1744,7.1744,7.1744,7.1623,7.1368,7.1296,7.1194,7.0938,6.9595,6.8877,6.8668,6.8188,6.8107,5.3026,5.4313,5.5377,5.7753,5.8895,5.9618,5.9962,6.1512,6.2825,6.2551,6.3801,6.5105,6.5561,6.5448,6.5403,6.5732,6.5818,6.6174,6.691,6.6316,6.618,6.6963,6.7361,6.749,6.7397,6.8255,6.8877,6.9093,6.976,7.0265,7.0726,7.1431,7.1893,7.211,7.2046,7.1974,7.1757,7.0991,7.041,7.0062,7.0202,7.0272,7.0341,7.0062,6.9885,6.9814,6.8676,6.8496,6.9026,6.8342,6.8444,6.9015,6.9229,6.9693,7.0229,7.0443,7.0514,7.0514,7.0514,7.0514,7.0514,7.065,7.0817,7.1081,7.1464,7.1629,7.1857,7.2074,7.2452,7.3002,7.3399,7.3694,7.374,7.3344,7.213,7.1027,7.1123,7.1182,7.1175,7.1312,7.144,7.1504,7.134,7.1467,7.1467,7.134,7.1368,7.1368,7.124,7.1368,7.1404,7.1276,7.1404,7.1467,7.1467,7.1467,7.1467,7.1467,7.1494,7.1494,7.1494,7.1494,7.1303,7.0908,7.0748,7.0631,7.0641,6.9247,6.8605,6.873,6.8157,6.8004,5.275,5.3878,5.5029,5.7598,5.8682,5.9691,6.1425,6.2248,6.3023,6.4734,6.4828,6.5117,6.6809,6.706,6.6781,6.5911,6.6446,6.6946,6.6981,6.6946,6.7195,6.7945,6.8342,6.8534,6.8534,6.8733,6.9281,7.0263,7.0211,7.0798,7.2509,7.2617,7.3016,7.3776,7.3682,7.3188,7.2431,7.1441,7.0817,7.0514,7.0514,7.0272,6.992,6.9885,6.9885,6.9849,6.9244,6.9062,6.9265,6.8444,6.8123,6.823,6.9015,6.9337,6.9479,7.0229,7.0514,7.0514,7.0514,7.0514,7.0514,7.0514,7.075,7.1123,7.1878,7.2394,7.2798,7.3559,7.3458,7.3248,7.3796,7.4507,7.4718,7.3164,7.1663,7.0626,7.0943,7.0907,7.0973,7.1384,7.1521,7.1484,7.1467,7.1494,7.1494,7.1494,7.1368,7.1167,7.1059,7.1204,7.1276,7.1276,7.1276,7.1276,7.1276,7.1276,7.1276,7.1276,7.1467,7.1494,7.1494,7.1494,7.1557,7.1744,7.0254,6.9304,6.8823,6.7982,6.7652,6.776,6.7847,6.7899,5.3311,5.4273,5.5252,5.7493,5.8736,5.9853,6.1368,6.2645,6.3932,6.5453,6.6021,6.6574,6.7451,6.7302,6.7118,6.7231,6.7517,6.7873,6.8409,6.8016,6.8046,6.8964,6.9232,6.9425,6.9589,7.0148,7.0707,7.1096,7.1504,7.2046,7.269,7.3197,7.3631,7.3921,7.376,7.3416,7.2684,7.1792,7.1261,7.1089,7.0521,7.0202,7.0062,6.9813,6.9813,7.0026,6.9601,6.9495,6.967,6.9697,6.9554,6.9522,6.9911,7.0086,7.0122,7.0407,7.0514,7.0585,7.1085,7.1264,7.1404,7.2111,7.2068,7.1981,7.2972,7.2995,7.2943,7.3964,7.4127,7.4028,7.3784,7.3967,7.3685,7.1759,7.0901,7.0575,7.0817,7.0842,7.0872,7.1021,7.1182,7.1312,7.1283,7.1312,7.134,7.134,7.1175,7.1009,7.0973,7.1175,7.1276,7.1146,7.1211,7.134,7.1404,7.134,7.134,7.1404,7.1431,7.1494,7.1494,7.1494,7.1277,7.093,6.9842,6.9332,6.9482,6.8128,6.7579,6.7687,6.7741,6.7847,5.3218,5.4158,5.5224,5.7854,5.8952,5.9889,6.1903,6.3199,6.4435,6.6057,6.6717,6.7267,6.8105,6.7923,6.7674,6.7888,6.8204,6.8627,6.9229,6.8904,6.9,7.0087,7.0354,7.0509,7.0734,7.133,7.1682,7.1682,7.2318,0.0,7.3088,7.3885,7.4398,7.4519,7.4132,7.3647,7.3191,7.2156,7.1586,7.1516,7.0663,7.0202,7.0132,7.0096,7.0238,7.0416,7.0448,7.0236,7.0062,7.0272,7.0519,7.0593,7.0838,7.1049,7.1264,7.1264,7.1264,7.1335,7.187,7.2049,7.2226,7.304,7.2961,7.2844,7.3905,7.3892,7.3609,7.4627,7.4781,7.4503,7.3936,7.3404,7.2549,7.0875,7.0481,7.0585,7.1008,7.0893,7.0673,7.0704,7.1123,7.1615,7.1867,7.1788,7.147,7.1254,7.1051,7.0913,7.0878,7.0979,7.1081,7.0979,7.1146,7.1276,7.1404,7.134,7.1232,7.1069,7.1286,7.1386,7.1132,7.1386,7.1277,7.077,6.9973,6.9648,6.9712,6.8126,6.747,6.7633,6.7687,6.7741,0.0,0.0,0.0,5.8394,5.9149,5.9901,6.3185,6.386,6.4373,6.6702,6.6981,6.7216,6.878,6.8892,6.8575,6.7762,6.843,6.9133,6.9269,6.9471,7.0022,7.1204,7.1593,7.1842,7.1988,7.1988,7.1988,7.1988,7.2444,7.3052,7.3849,7.4682,7.5313,7.5798,7.4832,7.4261,7.4011,7.2513,7.1727,7.1727,7.0907,7.0343,6.9991,7.0805,7.1014,7.0902,7.1643,7.1334,7.0273,7.0273,7.0735,7.141,7.1658,7.2156,7.2798,7.2798,7.2798,7.2798,7.2834,7.2834,7.2834,7.308,7.3324,7.3604,7.46,7.4885,7.4957,7.5751,7.5289,7.4575,7.4295,7.2939,7.1478,7.0693,7.0514,7.0728,7.1478,7.1085,7.0543,7.0541,7.1345,7.2319,7.3152,7.2659,7.1883,7.1103,7.0857,7.075,7.0503,7.0714,7.0852,7.0979,7.0979,7.1081,7.1276,7.1276,7.0951,7.0157,7.1033,7.1168,7.0444,7.1132,7.1494,7.1494,7.077,7.0071,6.9394,6.7934,6.7303,6.747,6.7633,6.7687,5.25,0.0,0.0,0.0,0.0,0.0,6.0927,6.2379,6.4091,6.6381,6.7145,6.7829,6.9141,6.9424,6.9245,6.8997,6.946,6.9951,7.0157,7.0329,7.0668,7.1276,7.1467,7.1593,7.162,7.1866,7.1927,0.0,7.2543,7.3026,7.328,7.429,7.5141,7.555,7.512,7.4655,7.4011,7.287,7.2335,7.2477,7.1446,7.1161,7.1619,7.1572,7.1603,7.1678,7.1739,7.1673,7.1546,7.1729,7.1871,7.1865,7.2371,7.2549,7.2584,7.2727,7.2798,7.2869,7.3476,7.369,7.3761,7.4583,7.458,7.4431,7.5394,7.5282,7.4849,7.4965,7.4685,7.4115,7.276,7.1654,7.0764,7.055,7.0514,7.0585,7.0936,7.1398,7.1401,7.0654,7.0897,7.1179,7.1287,7.1215,7.1139,7.0857,7.0686,7.065,7.0682,7.0785,7.0852,7.0979,7.0883,7.0985,7.1276,7.1146,7.1038,7.0951,7.1323,7.1422,7.1205,7.1386,7.1494,7.1494,7.0608,7.0102,6.9885,6.8595,6.768,6.7266,6.7322,6.7322,0.0,0.0,0.0,0.0,0.0,0.0,6.0603,6.1889,6.3555,6.6576,6.7369,6.7905,6.9316,6.9525,6.9487,6.9376,6.9849,7.0272,7.0514,7.0785,7.1182,7.1531,7.162,7.1744,7.1866,7.2048,7.2084,7.2,7.2667,7.3188,7.3551,7.4167,7.4591,7.465,7.4546,7.4119,7.3512,7.2585,7.2371,7.2656,7.1766,7.1658,7.2144,7.2348,7.2378,7.2337,7.2577,7.2753,7.2871,7.3138,7.2961,7.2529,7.301,7.3296,7.3508,7.3725,7.3797,7.3869,7.4368,7.4511,7.4582,7.5263,7.5263,7.5117,7.5688,7.5508,7.4971,7.4614,7.3972,7.301,7.1618,7.0835,7.0514,7.0514,7.0514,7.0585,7.1079,7.1294,7.1258,7.0758,7.1008,7.1326,7.1187,7.1151,7.1187,7.1362,7.0868,7.0514,7.065,7.065,7.0718,7.0883,7.0852,7.0919,7.1146,7.1081,7.0937,7.0678,7.1159,7.1259,7.0898,7.1223,7.1404,7.1404,7.0807,7.0202,6.9553,6.8561,6.7782,6.721,6.721,6.7028,0.0,0.0,0.0,0.0,5.6567,0.0,6.1176,6.1778,6.2698,6.6479,6.709,6.7271,6.875,6.8922,6.8884,6.8989,6.9459,6.9989,7.041,7.0949,7.1467,7.1903,7.1927,7.2048,7.238,7.2358,7.2299,7.224,7.2741,7.3348,7.4124,7.4033,7.3776,7.3519,7.3353,7.3075,7.2655,7.2013,7.1943,7.2406,7.1944,7.1872,7.2211,7.3063,7.3264,7.2957,7.3694,7.401,7.401,7.4209,7.3864,7.3229,7.368,7.429,7.4894,7.5116,7.5151,7.5189,7.5189,7.5225,7.5189,7.5406,7.5478,7.555,7.5727,7.5657,7.5299,7.4333,7.3046,7.1656,7.0728,7.0514,7.0514,7.0514,7.0514,7.0693,7.1406,7.1014,7.0547,7.074,7.143,7.1938,7.1899,7.1723,7.162,7.1904,7.1085,7.0514,7.0514,7.0514,7.0582,7.0785,7.0785,7.0852,7.0949,7.1015,7.0692,6.9944,7.075,7.0951,7.0229,7.0915,7.1276,7.1276,7.0973,7.008,6.8534,6.8064,6.757,6.7154,6.7061,6.6697,5.1264,5.2908,5.4772,5.4384,0.0,0.0,5.9131,5.9937,6.1008,6.3211,6.3861,6.4393,6.5338,6.5443,6.5724,6.6461,6.72,6.8293,7.0232,7.0949,7.134,7.1557,7.1718,7.178,7.1682,7.2084,7.2181,7.1939,7.2023,7.2237,7.2581,7.2719,7.2875,7.2973,7.3078,7.2722,7.1906,7.1763,7.1763,7.1836,7.2014,7.2507,7.3138,7.3646,7.3842,7.3764,7.394,7.401,7.401,7.4088,7.4061,7.404,7.4305,7.4527,7.4669,7.4894,7.4968,7.4968,7.5116,7.5225,7.5225,7.5297,7.5334,7.5478,7.5585,7.555,7.512,7.3404,7.1944,7.0699,7.0343,7.0378,7.0519,7.055,7.0514,7.055,7.0693,7.0621,7.0478,7.0547,7.0725,7.08,7.0832,7.0764,7.0764,7.08,7.0621,7.0514,7.0514,7.0514,7.0582,7.0785,7.065,7.065,7.0852,7.0852,7.0781,7.0637,7.0878,7.0973,7.0829,7.0973,7.1045,7.1045,7.0237,6.9095,6.7482,6.7563,6.7245,6.6632,6.6355,6.6222,5.077,5.2199,5.3985,5.3541,0.0,0.0,0.0,5.8915,5.9552,6.1932,6.2255,6.2366,6.317,6.3309,6.3518,6.4074,6.523,6.6458,6.7749,6.9614,7.0979,7.1431,7.1531,7.1593,7.1656,7.1964,7.2144,7.2144,7.2121,7.2085,7.2237,7.2336,7.2327,7.2032,7.2135,7.1821,7.0946,7.0946,7.1268,7.1835,7.2153,7.271,7.3723,7.4033,7.4053,7.401,7.401,7.401,7.401,7.401,7.4167,7.4441,7.4441,7.4517,7.4593,7.4819,7.4968,7.5042,7.5151,7.5225,7.5225,7.5225,7.5262,7.5334,7.5334,7.5084,7.4404,7.2618,7.1552,7.0771,7.0309,7.0593,7.0983,7.0588,7.0514,7.0514,7.0514,7.0514,7.0514,7.0341,7.0341,7.0341,7.0514,7.0514,7.0514,7.0514,7.0514,7.0514,7.0514,7.0514,7.0514,7.065,7.0514,7.0445,7.065,7.0582,7.0582,7.065,7.0852,7.0883,7.0883,7.0817,7.0682,7.0579,7.0221,6.9435,6.8255,6.8123,6.7497,6.6391,6.6146,6.5868,0.0,0.0,0.0,0.0,0.0,5.5226,0.0,0.0,0.0,6.0621,6.0587,6.0272,6.104,6.1142,6.1208,6.1687,6.3014,6.4098,6.4574,6.7043,6.9368,7.0698,7.0951,7.1051,7.1158,7.1453,7.1842,7.2321,7.2204,7.2121,7.2121,7.2084,7.178,7.1211,7.1211,7.0955,7.0451,7.0451,7.1019,7.2035,7.236,7.2952,7.3842,7.4139,7.4132,7.401,7.401,7.401,7.401,7.4088,7.4209,7.4517,7.4364,7.4441,7.4669,7.4819,7.4968,7.5116,7.5225,7.5225,7.5225,7.5225,7.5225,7.5189,7.5116,7.4581,7.3689,7.2363,7.1652,7.1159,7.0629,7.1055,7.1482,7.0804,7.0483,7.0341,7.0341,7.0341,7.0272,7.0132,7.0062,7.0132,7.0341,7.0341,7.041,7.0445,7.041,7.041,7.0445,7.041,7.0341,7.0341,7.0202,7.0202,7.0341,7.0202,7.0202,7.0445,7.0582,7.065,7.065,7.041,7.02,6.9813,6.9989,6.9667,6.8884,6.8504,6.7753,6.6612,6.6181,6.5625,0.0,0.0,0.0,0.0,5.3695,0.0,0.0,0.0,5.557,5.7235,0.0,5.6715,5.7443,0.0,0.0,5.9096,5.9814,6.0583,6.1841,6.2728,6.465,6.8314,6.9441,6.9749,6.9129,6.9832,7.077,7.1805,7.1593,7.1404,7.1404,7.124,7.1081,7.0852,7.0852,7.1008,7.1268,7.1268,7.1552,7.2148,7.2705,7.3088,7.3188,7.3737,7.401,7.401,7.401,7.401,7.401,7.4209,7.4287,7.4364,7.4287,7.4517,7.4894,7.4894,7.4894,7.4968,7.5116,7.5225,7.5225,7.5225,7.5225,7.5151,7.4968,7.4325,7.3612,7.3098,7.2171,7.1321,7.1717,7.1614,7.1261,7.1053,7.0487,6.9991,6.9991,6.9813,6.967,6.967,6.9525,6.9525,6.9885,6.9991,7.0062,7.0202,7.0062,7.0062,7.0202,7.0062,6.9991,6.9991,6.9991,6.9956,6.9991,6.9991,7.0062,7.0202,7.0272,7.0272,7.0272,6.9885,6.9352,6.8646,6.8432,6.7973,6.7235,6.7235,6.7376,6.7639,6.6388,6.5862,0.0,0.0,0.0,0.0,0.0,0.0,5.5624,0.0,5.4849,0.0,0.0,0.0,0.0,0.0,0.0,0.0,5.699,5.8037,5.9222,6.0768,6.307,6.651,6.7247,0.0,6.8822,6.9219,6.9911,7.1138,7.0905,7.0898,7.1368,7.1276,7.1081,7.0821,7.1215,7.1404,7.141,7.1729,7.2186,7.267,7.2871,7.3217,7.3674,7.3834,7.401,7.401,7.401,7.401,7.4045,7.4738,7.507,7.526,7.5761,7.5525,7.4894,7.4894,7.4968,7.5042,7.5189,7.5225,7.5225,7.5225,7.5116,7.4897,7.4251,7.4141,7.3921,7.266,7.2619,7.2806,7.1607,7.1466,7.147,7.0446,6.9989,6.967,6.9598,6.9452,6.9379,6.9305,6.9157,6.9157,6.9231,6.9379,6.9598,6.967,6.967,6.9742,6.9813,6.9885,6.9885,6.9885,6.9813,6.9742,6.9885,6.9813,6.9813,6.9991,7.0062,7.0204,7.0521,6.9493,6.8926,6.896,6.8465,6.8217,6.8357,6.8138,6.8138,6.8287,6.6495,6.5724,5.0968,0.0,0.0,0.0,0.0,0.0,0.0,0.0,0.0,0.0,0.0,0.0,0.0,0.0,0.0,0.0,0.0,5.5593,5.6395,5.8,6.0501,6.4159,6.492,6.5985,0.0,6.8306,6.8728,6.9914,6.9926,7.0273,7.1069,7.0951,7.08,7.0785,7.1401,7.1763,7.1695,7.2295,7.2851,7.3441,7.321,7.3448,7.401,7.401,7.401,7.401,7.4221,7.4291,7.4361,7.5486,7.596,7.6151,7.6991,7.6605,7.5609,7.5609,7.5541,7.5546,7.5546,7.5403,7.5189,7.5116,7.5042,7.4787,7.3885,7.3916,7.3875,7.2325,7.2718,7.3188,7.1422,7.1246,7.1246,7.0191,6.9625,6.927,6.9013,6.8973,6.8932,6.8705,6.8628,6.8551,6.8397,6.8781,6.9157,6.9231,6.9305,6.9379,6.9452,6.9525,6.9598,6.9598,6.9452,6.9379,6.9525,6.9452,6.9452,6.967,6.9598,6.9807,7.0222,6.9021,6.8597,6.8973,6.8483,6.8448,6.9008,6.8705,6.8551,6.8517,6.6791,6.6101,0.0,0.0,0.0,5.4503,0.0,0.0,0.0,0.0,5.4175,0.0,0.0,0.0,0.0,0.0,0.0,0.0,0.0,0.0,0.0,5.3401,5.5461,6.096,6.2773,6.4276,0.0,6.6524,6.7005,0.0,6.8595,6.9291,7.0085,6.9836,6.9997,7.0785,7.123,7.1766,7.2477,7.289,7.3476,7.4252,7.4018,7.3975,7.401,7.401,7.401,7.4045,7.4747,7.5063,7.5213,7.6384,7.6894,7.6894,7.7357,7.7473,7.7437,7.7437,7.6973,7.6367,7.6367,7.5867,7.5189,7.4968,7.4894,7.4819,7.4405,7.3723,7.3047,7.2626,7.2135,7.1686,7.1462,7.0791,7.0377,7.0769,6.9771,6.867,6.8189,6.8137,6.8083,6.7879,6.7638,6.7591,6.7557,6.8162,6.8781,6.9008,6.8857,6.8781,6.9008,6.8857,6.8781,6.8781,6.8705,6.8705,6.8781,6.8705,6.8857,6.9008,6.8857,6.8781,6.874,6.8319,6.8162,6.8162,6.8162,6.8162,6.8162,6.8083,6.8083,6.8083,6.7523,6.7253,0.0,0.0,5.4551,5.5958,0.0,0.0,0.0,0.0,0.0,0.0,0.0,0.0,0.0,0.0,0.0,0.0,0.0,0.0,0.0,5.3612,5.4805,5.7218,6.1283,6.4171,6.4865,6.5019,6.5461,6.6351,6.6969,0.0,0.0,6.9448,6.9828,7.041,7.1552,7.2227,7.233,7.3381,7.4005,7.4287,7.4088,7.401,7.401,7.401,7.4088,7.4245,7.4862,7.5257,7.5713,7.7099,7.7752,7.798,7.8823,7.9079,7.8972,7.7901,7.733,7.7045,7.6581,7.6039,7.5387,7.4432,7.4319,7.4305,7.3164,7.2759,7.252,7.1987,7.1517,7.1124,7.0445,7.0019,6.9628,6.9011,6.8473,6.8004,6.7731,6.7684,6.7719,6.7638,6.7591,6.751,6.751,6.7719,6.7925,6.8162,6.8397,6.8551,6.8628,6.8628,6.8705,6.8705,6.8551,6.8474,6.8474,6.8397,6.8639,6.9393,6.8829,6.8794,6.9471,6.8146,6.7601,6.8083,6.7284,6.7284,6.7879,6.7879,6.7959,6.8083,6.792,6.7541,5.595,5.595,0.0,5.7801,5.8045,0.0,5.6391,0.0,0.0,0.0,0.0,0.0,0.0,0.0,0.0,0.0,0.0,0.0,0.0,5.272,5.3795,5.4266,5.8752,6.1918,6.2206,6.2779,6.3563,6.4649,6.5366,6.6368,0.0,0.0,6.9465,6.9845,7.1553,7.2476,7.233,7.3663,7.4287,7.4287,7.4088,7.4088,7.4088,7.4088,7.4272,7.4745,7.5407,7.6014,7.6639,7.8071,7.8646,7.8761,7.9451,7.9743,7.9522,7.8568,7.7856,7.7174,7.6391,7.5778,7.5089,7.3889,7.3593,7.354,7.2232,7.168,7.1394,7.1106,7.0575,7.0,6.9703,6.9312,6.8739,6.8051,6.7753,6.7638,6.7325,6.736,6.7346,6.7229,6.7146,6.718,6.7229,6.7229,6.7312,6.7638,6.7959,6.8083,6.8083,6.8241,6.8397,6.8397,6.8319,6.8241,6.8162,6.8039,6.8166,6.8842,6.8394,6.8463,6.9302,6.8245,6.7914,6.8589,6.7728,6.7809,6.8623,6.837,6.8314,6.8418,6.8338,6.7959]},{"header":{"parameterUnit":"m.s-1","parameterCategory":1,"la1":30.6,"la2":29.2853,"lo1":-89.7004,"lo2":-87.6739,"dy":0.0162,"dx":0.0183,"nx":112,"ny":82,"refTime":"2025-01-15T06:00:00:Z","depth":0,"parameterNumber":3,"parameterNumberName":"V-component_of_WINDS"},"data":[0.0,0.0,0.0,0.0,0.0,0.0,0.0,0.0,0.0,0.0,0.0,0.0,0.0,0.0,0.0,0.0,0.0,0.0,0.0,0.0,0.0,0.0,0.0,0.0,0.0,0.0,0.0,0.0,0.0,0.0,0.0,0.0,0.0,0.0,0.0,0.0,0.0,0.0,0.0,0.0,0.0,0.0,0.0,0.0,0.0,0.0,0.0,0.0,0.0,0.0,0.0,0.0,0.0,0.0,0.0,0.0,0.0,0.0,0.0,0.0,0.0,0.0,0.0,0.0,0.0,0.0,0.0,0.0,0.0,0.0,0.0,0.0,0.0,0.0,0.0,0.0,0.0,0.0,0.0,0.0,0.0,0.0,0.0,0.0,0.0,0.0,0.0,0.0,0.0,0.0,-0.7317,-0.5896,-0.5234,-0.4769,-0.4561,-0.4081,-0.416,-0.4995,0.0,0.0,0.0,0.0,0.0,0.0,0.0,0.0,0.0,0.0,0.0,0.0,0.0,0.0,0.0,0.0,0.0,0.0,0.0,0.0,0.0,0.0,0.0,0.0,0.0,0.0,0.0,0.0,0.0,0.0,0.0,0.0,0.0,0.0,0.0,0.0,0.0,0.0,0.0,0.0,0.0,0.0,0.0,0.0,0.0,0.0,0.0,0.0,0.0,0.0,0.0,0.0,0.0,0.0,0.0,0.0,0.0,0.0,0.0,0.0,0.0,0.0,0.0,0.0,0.0,0.0,0.0,0.0,0.0,0.0,0.0,0.0,0.0,0.0,0.0,0.0,0.0,0.0,0.0,0.0,0.0,0.0,0.0,0.0,0.0,0.0,0.0,0.0,0.0,0.0,0.0,0.0,0.0,0.0,0.0,0.0,0.0,0.0,0.0,0.0,0.0,0.0,0.0,0.0,-0.5851,-0.3594,-0.3072,-0.2816,-0.2563,-0.2471,-0.3084,-0.4726,0.0,0.0,0.0,0.0,0.0,0.0,0.0,0.0,0.0,0.0,0.0,0.0,0.0,0.0,0.0,0.0,0.0,0.0,0.0,0.0,0.0,0.0,0.0,0.0,0.0,0.0,0.0,0.0,0.0,0.0,0.0,0.0,0.0,0.0,0.0,0.0,0.0,0.0,0.0,0.0,0.0,0.0,0.0,0.0,0.0,0.0,0.0,0.0,0.0,0.0,0.0,0.0,0.0,0.0,0.0,0.0,0.0,0.0,0.0,0.0,0.0,0.0,0.0,0.0,0.0,0.0,0.0,0.0,0.0,0.0,0.0,0.0,0.0,0.0,0.0,0.0,0.0,0.0,0.0,0.0,0.0,0.0,0.0,0.0,0.0,0.0,0.0,0.0,0.0,0.0,0.0,0.0,0.0,0.0,0.0,0.0,0.0,0.0,0.0,0.0,0.0,0.0,0.0,-0.3917,-0.3135,-0.1221,-0.0742,-0.0481,-0.0307,-0.0837,-0.1628,-0.2636,-0.3403,0.0,0.0,0.0,0.0,0.0,0.0,0.0,0.0,0.0,0.0,0.0,0.0,0.0,0.0,0.0,0.0,0.0,0.0,0.0,0.0,0.0,0.0,0.0,0.0,0.0,0.0,0.0,0.0,0.0,0.0,0.0,0.0,0.0,0.0,0.0,0.0,0.0,0.0,0.0,0.0,0.0,0.0,0.0,0.0,0.0,0.0,0.0,0.0,0.0,0.0,0.0,0.0,0.0,0.0,0.0,0.0,0.0,0.0,0.0,0.0,0.0,0.0,0.0,0.0,0.0,0.0,0.0,0.0,0.0,0.0,0.0,0.0,0.0,0.0,0.0,0.0,0.0,0.0,0.0,0.0,0.0,0.0,0.0,0.0,0.0,0.0,0.0,0.0,0.0,0.0,0.0,0.0,0.0,0.0,0.0,0.0,0.0,0.0,0.0,0.0,0.0,0.0,-0.1892,-0.0753,0.0533,0.1252,0.1666,0.1846,0.112,0.0402,-0.0178,-0.1152,0.0,0.0,0.0,0.0,0.0,0.0,0.0,0.0,0.0,0.0,0.0,0.0,0.0,0.0,0.0,0.0,0.0,0.0,0.0,0.0,0.0,0.0,0.0,0.0,0.0,0.0,0.0,0.0,0.0,0.0,0.0,0.0,0.0,0.0,0.0,0.0,0.0,0.0,0.0,0.0,0.0,0.0,0.0,0.0,0.0,0.0,0.0,0.0,0.0,0.0,0.0,0.0,0.0,0.0,0.0,0.0,0.0,0.0,0.0,0.0,0.0,0.0,0.0,0.0,0.0,0.0,0.0,0.0,0.0,0.0,0.0,0.0,0.0,0.0,0.0,0.0,0.0,0.0,0.0,0.0,0.0,0.0,0.0,0.0,0.0,0.0,0.0,0.0,0.0,0.0,0.0,0.0,0.0,0.0,0.0,0.0,0.0,0.0,0.0,0.0,0.0,0.0,-0.1137,0.0417,0.107,0.2351,0.3289,0.3684,0.3752,0.3244,0.1987,0.1917,0.0,0.0,0.0,0.0,0.0,0.0,0.0,0.0,0.0,0.0,0.0,0.0,0.0,0.0,0.0,0.0,0.0,0.0,0.0,0.0,0.0,0.0,0.0,0.0,0.0,0.0,0.0,0.0,0.0,0.0,0.0,0.0,0.0,0.0,0.0,0.0,0.0,0.0,0.0,0.0,0.0,0.0,0.0,0.0,0.0,0.0,0.0,0.0,0.0,0.0,0.0,0.0,0.0,0.0,0.0,0.0,0.0,0.0,0.0,0.0,0.0,0.0,0.0,0.0,0.0,0.0,0.0,0.0,0.0,0.0,0.0,0.0,0.0,0.0,0.0,0.0,0.0,0.0,0.0,0.0,0.0,0.0,0.0,0.0,0.0,0.0,0.0,0.0,0.0,0.0,0.0,0.0,0.0,0.0,0.0,0.0,0.0,0.0,0.0,0.0,0.0,0.0,0.2506,0.4234,0.0,0.5074,0.5587,0.5518,0.4867,0.3826,0.233,0.0,0.0,0.0,0.0,0.0,0.0,0.0,0.0,0.0,0.0,0.0,0.0,0.0,0.0,0.0,0.0,0.0,0.0,0.0,0.0,0.0,0.0,0.0,0.0,0.0,0.0,0.0,0.0,0.0,0.0,0.0,0.0,0.0,0.0,0.0,0.0,0.0,0.0,0.0,0.0,0.0,0.0,0.0,0.0,0.0,0.0,0.0,0.0,0.0,0.0,0.0,0.0,0.0,0.0,0.0,0.0,0.0,0.0,0.0,0.0,0.0,0.0,0.0,0.0,0.0,0.0,0.0,0.0,0.0,0.0,0.0,0.0,0.0,0.0,0.0,0.0,0.0,0.0,0.0,0.0,0.0,0.0,0.0,0.0,0.0,0.0,0.0,0.0,0.0,0.0,0.0,0.0,0.0,0.0,0.0,0.0,0.0,0.0,0.0,0.0,0.0,0.0,0.2633,0.4872,0.6351,0.0,0.6597,0.697,0.6821,0.5956,0.498,0.388,0.0,0.0,0.0,0.0,0.0,0.0,0.0,0.0,0.0,0.0,0.0,0.0,0.0,0.0,0.0,0.0,0.0,0.0,0.0,0.0,0.0,0.0,0.0,0.0,0.0,0.0,0.0,0.0,0.0,0.0,0.0,0.0,0.0,0.0,0.0,0.0,0.0,0.0,0.0,0.0,0.0,0.0,0.0,0.0,0.0,0.0,0.0,0.0,0.0,0.0,0.0,0.0,0.0,0.0,0.0,0.0,0.0,0.0,0.0,0.0,0.0,0.0,0.0,0.0,0.0,0.0,0.0,0.0,0.0,0.0,0.0,0.0,0.0,0.0,0.0,0.0,0.0,0.0,0.0,0.0,0.0,0.0,0.0,0.0,0.0,0.0,0.0,0.0,0.0,0.0,0.0,0.0,0.0,0.0,0.0,0.0,0.0,0.0,0.0,0.0,0.0,0.0,0.4181,0.5363,0.599,0.5482,0.6438,0.7203,0.7473,0.7194,0.7047,0.0,0.0,0.0,0.0,0.0,0.0,0.0,0.0,0.0,0.0,0.0,0.0,0.0,0.0,0.0,0.0,0.0,0.0,0.0,0.0,0.0,0.0,0.0,0.0,0.0,0.0,0.0,0.0,0.0,0.0,0.0,0.0,0.0,0.0,0.0,0.0,0.0,0.0,0.0,0.0,0.0,0.0,0.0,0.0,0.0,0.0,0.0,0.0,0.0,0.0,0.0,0.0,0.0,0.0,0.0,0.0,0.0,0.0,0.0,0.0,0.0,0.0,0.0,0.0,0.0,0.0,0.0,0.0,0.0,0.0,0.0,0.0,0.0,0.0,0.0,0.0,0.0,0.0,0.0,0.0,0.0,0.0,0.0,0.0,0.0,0.0,0.0,0.0,0.0,0.0,0.0,0.0,0.0,0.0,0.0,0.0,0.0,0.0,0.0,0.0,0.0,0.0,0.0,0.4623,0.6023,0.6997,0.6966,0.7377,0.7619,0.7511,0.7212,0.6719,0.587,0.0,0.0,0.0,0.0,0.0,0.0,0.0,0.0,0.0,0.0,0.0,0.0,0.0,0.0,0.0,0.0,0.0,0.0,0.0,0.0,0.0,0.0,0.0,0.0,0.0,0.0,0.0,0.0,0.0,0.0,0.0,0.0,0.0,0.0,0.0,0.0,0.0,0.0,0.0,0.0,0.0,0.0,0.0,0.0,0.0,0.0,0.0,0.0,0.0,0.0,0.0,0.0,0.0,0.0,0.0,0.0,0.0,0.0,0.0,0.0,0.0,0.0,0.0,0.0,0.0,0.0,0.0,0.0,0.0,0.0,0.0,0.0,0.0,0.0,0.0,0.0,0.0,0.0,0.0,0.0,0.0,0.0,0.0,0.0,0.0,0.0,0.0,0.0,0.0,0.0,0.0,0.0,0.0,0.0,0.0,0.0,0.0,0.0,0.0,0.0,0.0,0.0,0.6001,0.6874,0.7542,0.7812,0.7855,0.779,0.7533,0.7175,0.6643,0.5935,0.0,0.0,0.0,0.0,0.0,0.0,0.0,0.0,0.0,0.0,0.0,0.0,0.0,0.0,0.0,0.0,0.0,0.0,0.0,0.0,0.0,0.0,0.0,0.0,0.0,0.0,0.0,0.0,0.0,0.0,0.0,0.0,0.0,0.0,0.0,0.0,0.0,0.0,0.0,0.0,0.0,0.0,0.0,0.0,0.0,0.0,0.0,0.0,0.0,0.0,0.0,0.0,0.0,0.0,0.0,0.0,0.0,0.0,0.0,0.0,0.0,0.0,0.0,0.0,0.0,0.0,0.0,0.0,0.0,0.0,0.0,0.0,0.0,0.0,0.0,0.0,0.0,0.0,0.0,0.0,0.0,0.0,0.0,0.0,0.0,0.0,0.0,0.0,0.0,0.0,0.0,0.0,0.0,0.0,0.0,0.0,0.0,0.0,0.0,0.0,0.0,0.0,0.7823,0.7667,0.7612,0.8136,0.7941,0.7733,0.7512,0.7067,0.6824,0.6843,0.0,0.0,0.0,0.0,0.0,0.0,0.0,0.0,0.0,0.0,0.0,0.0,0.0,0.0,0.0,0.0,0.0,0.0,0.0,0.0,0.0,0.0,0.0,0.0,0.0,0.0,0.0,0.0,0.0,0.0,0.0,0.0,0.0,0.0,0.0,0.0,0.0,0.0,0.0,0.0,0.0,0.0,0.0,0.0,0.0,0.0,0.0,0.0,0.0,0.0,0.0,0.0,0.0,0.0,0.0,0.0,0.0,0.0,0.0,0.0,0.9373,0.0,0.0,0.0,0.0,0.0,0.0,0.0,0.0,0.0,0.0,0.0,0.0,0.0,0.0,0.0,0.0,0.0,0.0,0.0,0.0,0.0,0.0,0.0,0.0,0.0,0.0,0.0,0.0,0.0,0.0,0.0,0.0,0.0,0.0,0.0,0.0,0.0,0.0,0.0,0.0,0.0,0.7231,0.7516,0.7665,0.7942,0.7746,0.7578,0.7669,0.7203,0.705,0.7336,0.6716,0.0,0.0,0.0,0.0,0.0,0.0,0.0,0.0,0.0,0.0,0.0,0.0,0.0,0.0,0.0,0.0,0.0,0.0,0.0,0.0,0.0,0.0,0.0,0.0,0.0,0.0,0.0,0.0,0.0,0.0,0.0,0.0,0.0,0.0,0.0,0.0,0.0,0.0,0.0,0.0,0.0,0.0,0.0,0.0,0.0,0.0,0.0,0.0,0.0,0.0,0.0,0.0,0.0,0.0,0.0,0.0,0.0,0.0,0.0,0.0,0.9753,0.0,0.0,0.0,0.0,0.0,0.0,0.0,0.0,0.0,0.0,0.0,0.0,0.0,0.0,0.0,0.0,0.0,0.0,0.0,0.0,0.0,0.0,0.0,0.0,0.0,0.0,0.0,0.0,0.0,0.0,0.0,0.0,0.0,0.0,0.0,0.0,0.0,0.0,0.0,0.0,0.7554,0.7727,0.7767,0.792,0.7728,0.7547,0.7433,0.7004,0.6784,0.6944,0.6547,0.0,0.0,0.0,0.0,0.0,0.0,0.0,0.0,0.0,0.0,0.0,0.0,0.0,0.0,0.0,0.0,0.0,0.0,0.0,0.0,0.0,0.0,0.0,0.0,0.0,0.0,0.0,0.0,0.0,0.0,0.0,0.0,0.0,0.0,0.0,0.0,0.0,0.0,0.0,0.0,0.0,0.0,0.0,0.0,0.0,0.0,0.0,0.0,0.0,0.0,0.0,0.0,0.0,1.2063,1.2417,1.2661,1.2472,1.2667,1.3077,1.1883,1.1407,1.1464,1.1367,0.0,0.0,0.0,0.0,0.0,0.0,0.0,0.0,0.0,0.0,0.0,0.0,0.0,0.0,0.0,0.0,0.0,0.0,0.0,0.0,0.0,0.0,0.0,0.0,0.6071,0.6025,0.0,0.0,0.0,0.0,0.0,0.0,0.0,0.0,0.0,0.0,0.0,0.0,0.7964,0.7936,0.7846,0.7853,0.7708,0.7483,0.7155,0.683,0.6537,0.6361,0.6332,0.6388,0.0,0.0,0.0,0.0,0.0,0.0,0.0,0.0,0.0,0.0,0.0,0.0,0.0,0.0,0.0,0.0,0.0,0.0,0.0,0.0,0.0,0.0,0.0,0.0,0.0,0.0,0.0,0.0,0.0,0.0,0.0,0.0,0.7773,0.797,0.0,0.0,0.0,0.0,0.0,0.0,0.0,0.0,0.0,0.0,0.0,0.0,0.0,1.0343,1.1901,1.17,1.2067,1.3022,1.3594,1.3861,1.3795,1.3743,1.3906,1.4215,1.4131,0.0,1.1807,1.2649,0.0,0.0,0.0,0.0,0.0,0.0,0.0,0.0,0.0,0.0,0.0,0.0,0.0,0.0,0.0,0.0,0.0,0.0,0.0,0.0,0.0,0.0,0.6406,0.6703,0.6902,0.71,0.0,0.6848,0.6442,0.6934,0.6284,0.0,0.0,0.0,0.0,0.0,0.0,0.0,0.7678,0.7758,0.7655,0.735,0.7159,0.7011,0.677,0.6666,0.6606,0.6634,0.6578,0.6504,0.6566,0.5964,0.0,0.0,0.0,0.0,0.0,0.0,0.0,0.0,0.0,0.0,0.0,0.0,0.0,0.0,0.0,0.0,0.0,0.0,0.0,0.0,0.0,0.0,0.0,0.0,0.0,0.0,0.0,0.0,0.0,0.7426,0.8056,0.7845,0.7986,0.7796,0.0,0.0,0.0,0.0,0.0,0.0,0.0,0.0,0.0,1.0644,1.0888,1.1751,1.3262,1.3588,1.3951,1.4413,1.4989,1.5198,1.5036,1.5036,1.5178,1.5386,1.5399,1.479,1.3775,1.4368,1.4042,1.3111,0.0,0.0,0.0,0.0,1.1472,1.1425,1.1079,1.1065,0.0,1.1148,0.0,0.0,0.0,0.0,0.0,0.0,0.0,0.0,0.0,0.0,0.0,0.7579,0.7933,0.8249,0.8451,0.8275,0.7958,0.0,0.7175,0.6993,0.727,0.0,0.0,0.0,0.0,0.8086,0.7864,0.8031,0.7948,0.7358,0.7383,0.7251,0.6919,0.6743,0.6592,0.6443,0.6384,0.6478,0.6648,0.6026,0.5732,0.0,0.0,0.0,0.0,0.0,0.0,0.0,0.0,0.0,0.0,0.0,0.0,0.0,0.0,0.0,0.0,0.0,0.0,0.0,0.0,0.0,0.0,0.0,0.0,0.0,0.0,0.0,0.0,0.7686,0.8271,0.8059,0.8328,0.8242,0.0,0.0,0.0,0.0,0.0,0.0,0.928,0.9841,1.0563,1.1474,1.2304,1.3453,1.4814,1.5366,1.5822,1.6087,1.6306,1.644,1.6431,1.6327,1.628,1.6412,1.6576,1.6316,1.5836,1.57,1.5318,1.4713,1.444,1.3962,1.3432,1.2934,1.2768,1.2695,1.2555,1.2537,1.2494,1.2431,0.0,1.1617,1.0742,0.0,0.0,0.0,0.0,0.8848,0.8873,0.8522,0.8281,0.8473,0.8821,0.9162,0.9171,0.9319,0.9209,0.0,0.8122,0.7919,0.7957,0.0,0.0,0.0,0.0,0.8298,0.8152,0.8259,0.8086,0.7462,0.7415,0.7257,0.6833,0.6538,0.6382,0.6176,0.6176,0.6325,0.6536,0.5842,0.5726,0.6081,0.0,0.0,0.0,0.0,0.0,0.0,0.0,0.0,0.0,0.0,0.0,0.0,0.0,0.0,0.0,0.0,0.0,0.0,0.0,0.0,0.0,0.0,0.0,0.0,0.0,0.0,0.0,0.0,0.0,0.8898,0.9372,0.0,0.0,0.0,0.0,0.9404,0.96,0.9967,1.0578,1.1654,1.2643,1.3434,1.4379,1.5552,1.7002,1.6763,1.7144,1.813,1.7636,1.7656,1.7981,1.7385,1.7141,1.7201,1.783,1.7883,1.7387,1.6337,1.5462,1.4829,1.5063,1.4888,1.4485,1.4116,1.3869,1.3547,1.3059,1.2986,1.2949,1.2419,1.2197,1.2014,1.1087,1.0748,0.0,0.0,0.9445,0.9494,0.911,0.9159,0.9344,0.9397,0.9475,0.9552,0.999,0.9891,0.9813,0.0,0.9173,0.8832,0.9696,0.0,0.8861,0.9381,0.9135,0.8802,0.8584,0.8273,0.7827,0.7424,0.6901,0.6478,0.6227,0.5911,0.5841,0.5889,0.5878,0.5996,0.6037,0.5604,0.5377,0.5508,0.371,0.0,0.0,0.0,0.0,0.0,0.0,0.0,0.0,0.0,0.0,0.0,0.0,0.0,0.0,0.0,0.0,0.0,0.0,0.0,0.0,0.0,0.0,0.0,0.0,0.0,0.0,0.0,0.0,0.8771,0.9313,0.0,0.897,0.9735,1.0302,1.0308,1.1457,1.2329,1.2587,1.3553,1.4573,1.5448,1.5999,1.688,1.8086,1.7885,1.7881,1.8189,1.7853,1.7647,1.7379,1.7239,1.7116,1.6865,1.7288,1.7283,1.6998,1.6904,1.6815,1.6719,1.6555,1.6315,1.6078,1.586,1.5621,1.5362,1.4878,1.4696,1.4653,1.3729,1.319,1.2765,1.2012,1.1516,1.108,1.0703,1.0277,1.0068,1.0019,1.009,1.0142,1.016,1.0282,1.0385,1.0239,1.0172,1.0073,0.9988,0.9787,0.9756,0.9916,0.9689,0.9577,0.9577,0.9289,0.9092,0.8835,0.8777,0.8448,0.7929,0.7714,0.7493,0.7039,0.6725,0.6424,0.6192,0.6098,0.6081,0.6034,0.5523,0.5294,0.551,0.3729,0.2399,0.0,0.0,0.0,0.0,0.0,0.0,0.0,0.0,0.0,0.0,0.0,0.0,0.0,0.0,0.0,0.0,0.0,0.0,0.0,0.0,0.0,0.0,0.0,0.0,0.0,0.0,0.9602,0.9622,1.0346,1.0694,1.0352,1.1112,1.1817,1.2069,1.3099,1.3929,1.4347,1.5135,1.5957,1.6775,1.7466,1.8189,1.8989,1.8957,1.89,1.8839,1.8582,1.8355,1.8081,1.7989,1.7876,1.788,1.7947,1.8037,1.8242,1.8203,1.8419,1.8665,1.7664,1.7219,1.7086,1.6714,1.6465,1.6256,1.5762,1.5577,1.5358,1.4513,1.3963,1.3483,1.2796,1.2187,1.171,1.1354,1.1007,1.0659,1.0587,1.0611,1.0616,1.0462,1.0614,1.0778,1.0533,1.0523,1.0511,1.0508,1.046,1.0311,1.005,1.0171,1.0268,0.9999,0.9702,0.9349,0.9078,0.8935,0.8635,0.8092,0.7995,0.7736,0.7362,0.6987,0.674,0.6424,0.6143,0.6037,0.5997,0.5385,0.5063,0.4942,0.2883,0.1401,0.0396,0.0,0.0,0.0,0.0,0.0,0.0,0.0,0.0,0.0,0.0,0.0,0.0,0.0,0.0,0.0,0.0,0.0,0.0,0.0,0.0,0.0,0.0,0.0,0.8882,0.9716,1.0589,1.1527,1.2619,1.3168,1.2875,1.3586,1.4247,1.4729,1.4403,1.4689,1.5811,1.6297,1.687,1.7448,1.868,1.9469,1.972,1.9941,2.0151,2.0147,1.9806,1.9826,2.0127,1.9566,1.9585,2.0147,1.9977,2.0391,2.1094,2.0252,2.0174,2.0332,1.8262,1.7507,1.756,1.6741,1.6395,1.6139,1.5642,1.53,1.5035,1.4726,1.4465,1.4103,1.3448,1.2875,1.2358,1.1676,1.1423,1.1331,1.0707,1.0726,1.0832,1.0426,1.0522,1.0752,1.0992,1.0947,1.106,1.1558,1.1149,1.0593,1.0386,1.0691,1.09,1.0639,1.012,0.0,0.9469,0.8722,0.8262,0.798,0.751,0.7221,0.7221,0.6744,0.6502,0.6293,0.6093,0.586,0.5746,0.529,0.4617,0.374,0.1191,-0.0583,-0.1634,0.0,0.0,0.0,0.0,0.0,0.0,0.0,0.0,0.0,0.0,0.0,0.0,0.0,0.0,0.0,0.0,0.0,0.0,0.0,0.0,0.0,0.8194,0.8553,0.9482,1.0316,1.1235,1.2273,1.3191,1.388,1.4207,1.5096,1.5684,1.5991,1.6625,1.7319,1.7967,1.8267,1.8798,1.9555,1.9807,1.9941,1.9961,1.9961,1.9865,1.9786,1.9502,1.9429,1.9546,1.9409,1.9429,1.9546,1.9325,1.9387,1.9618,1.9506,1.9602,1.9811,1.8858,1.8476,1.8375,1.7977,1.7512,1.7081,1.6666,1.6133,1.57,1.5343,1.4804,1.4271,1.3949,1.3498,1.3041,1.2788,1.2343,1.1813,1.1813,1.1657,1.1489,1.1489,1.1715,1.1854,1.1836,1.1621,1.1495,1.1452,1.1228,1.1069,1.0788,1.0944,1.0968,1.0399,1.0144,0.0,0.937,0.9107,0.8796,0.8307,0.8105,0.7966,0.7664,0.7171,0.6828,0.6701,0.6315,0.6024,0.5991,0.5624,0.4301,0.2138,0.0897,-0.0264,0.0,0.0,0.0,0.0,0.0,0.0,0.0,0.0,0.0,0.0,0.0,0.0,0.0,0.0,0.0,0.0,0.0,0.0,0.0,0.0,0.0,0.0,0.9098,0.9742,1.0867,1.1439,1.223,1.3346,1.4375,1.5181,1.5632,1.6422,1.703,1.7337,1.8055,1.8664,1.909,1.9295,1.9684,2.0278,2.036,2.0459,2.0682,2.0727,2.0675,2.0544,2.0468,2.0371,2.0371,2.0294,2.0314,0.0,2.0139,2.0292,2.0652,2.0349,2.0445,0.0,0.0,0.0,0.0,0.0,1.7947,1.7238,1.7166,1.6779,1.6205,1.573,1.5352,1.5015,1.4587,1.4041,1.3677,1.342,1.294,1.2445,1.2346,1.2182,1.1934,1.1934,1.2042,1.2225,1.2131,1.1919,1.1819,1.1726,1.1717,0.0,1.1308,1.1414,1.1308,1.0798,1.0565,1.0293,0.9888,0.9585,0.9244,0.8838,0.8729,0.8592,0.8507,0.7892,0.0,0.0,0.0,0.648,0.6094,0.5332,0.0,0.0,0.0,0.0,0.0,0.0,0.0,0.0,-0.1475,-0.1742,0.0,0.0,0.0,0.0,0.0,0.0,0.0,0.0,0.0,0.0,0.0,0.0,0.0,0.0,0.0,0.0,1.0178,1.1123,1.2553,1.2883,1.3441,1.4741,1.5873,1.6767,1.7268,1.7735,1.8201,1.8602,1.8864,1.9179,1.9746,0.0,0.0,0.0,0.0,2.12,2.161,2.1808,2.1925,2.1894,2.1894,2.1894,2.1875,2.1627,2.1755,2.2082,2.1614,2.1902,2.2688,2.1839,2.1748,2.2058,2.0141,1.9544,1.9602,1.8907,1.7976,1.7132,1.7378,0.0,0.0,1.6095,1.5906,1.5754,1.5129,1.463,1.4138,1.3787,1.3457,1.3228,1.2766,1.2581,1.2396,1.2013,1.2036,1.2234,1.2331,1.2294,1.2292,1.2395,1.2342,1.2132,1.1925,1.1894,1.1779,1.1456,1.1196,1.0889,1.0577,1.0056,0.9646,0.9436,0.0,0.0,0.9332,0.8598,0.817,0.8106,0.7585,0.6877,0.5973,0.461,0.3358,0.2016,0.0287,-0.0861,-0.1244,-0.1407,-0.1393,-0.1019,-0.1259,-0.1614,0.0,0.0,0.0,0.0,0.0,0.0,0.0,0.0,0.0,0.0,0.0,0.0,0.0,0.0,0.0,1.0795,1.1221,1.1866,1.3006,1.4114,1.5239,1.6309,1.7214,1.8027,1.8942,1.9293,1.9444,1.9524,1.9501,1.9845,2.0582,2.0466,2.0879,2.2004,2.1945,2.2006,2.2086,2.2125,2.2083,2.1894,0.0,0.0,2.1875,2.1627,2.1582,2.1575,2.1146,2.1043,2.1183,2.1184,2.1145,2.1016,2.0473,2.0173,2.0007,1.9239,1.8785,1.833,1.7803,1.7267,1.662,1.6344,1.5729,1.5129,1.495,1.4733,0.0,1.4432,1.4267,1.409,1.399,1.3591,1.3301,1.32,1.3431,1.3741,1.3741,1.3572,1.3498,1.355,1.287,1.2235,1.2235,1.2144,1.1859,1.1165,1.107,1.0785,1.0056,0.9847,0.9646,0.9436,0.9332,0.9332,0.9436,0.88,0.8459,0.8397,0.7669,0.6665,0.5514,0.3869,0.2124,0.05,0.0098,-0.0098,-0.0293,-0.1053,-0.1423,-0.142,-0.1437,-0.158,0.0,0.0,0.0,0.0,0.0,0.0,0.0,0.0,0.0,0.0,0.0,0.988,1.0439,0.0,1.1166,1.1783,1.2572,1.3347,1.4109,1.5211,1.6161,1.6723,1.7528,1.84,1.9185,1.9762,1.9997,1.9997,2.0505,2.0879,2.115,2.1105,2.1356,2.1967,2.1978,2.2131,2.233,2.2264,2.2495,2.2813,2.2582,2.2601,2.2832,2.2549,2.2372,2.2195,2.2087,2.2054,2.1968,2.2062,2.1877,2.1578,2.1283,2.0536,1.9606,1.9471,1.8899,1.8246,1.8073,1.7535,1.6948,1.6675,1.623,1.5737,1.5452,1.5261,1.4986,1.49,1.4795,1.4695,1.4593,1.4379,1.4275,1.3964,1.4144,1.4407,1.4191,1.3987,1.3826,1.3727,1.3254,1.285,1.2644,1.2539,1.2326,1.1695,1.1539,1.1283,1.0749,1.0535,1.0321,1.0107,0.9892,0.99,1.0,0.9382,0.8913,0.8594,0.8098,0.7188,0.5566,0.4086,0.2506,0.0831,0.0618,0.0512,0.041,-0.0304,-0.0704,-0.0697,-0.0977,-0.1334,0.0,0.0,0.0,0.0,0.0,0.0,0.0,0.968,0.9702,0.9813,1.0126,1.0607,1.1242,1.1794,1.2303,1.275,1.3823,1.4839,1.5354,1.6287,1.6987,1.7068,1.7839,1.8601,1.922,2.0062,2.0505,2.0426,2.1322,2.1748,2.1575,2.1655,2.1665,2.1824,2.2039,2.2344,2.2688,2.2617,2.2957,2.371,2.3258,2.3277,2.3617,2.3336,2.3054,2.2866,2.3073,2.3085,2.2894,2.3009,2.2743,2.2311,2.1892,2.0761,1.9465,1.9681,1.906,1.8061,1.8237,1.7855,1.7326,1.7056,1.6814,1.6513,1.6111,1.5847,1.558,1.5287,1.5258,1.5227,1.5021,1.5106,1.5093,1.4669,1.4752,1.4811,1.444,1.4169,1.3965,1.3898,1.3623,1.3306,1.3068,1.2881,1.2714,1.2005,1.2008,1.1891,1.1455,1.1236,1.1017,1.0798,1.0586,1.0476,1.0586,0.9907,0.9183,0.8865,0.8314,0.7281,0.5767,0.4482,0.3199,0.1813,0.128,0.1067,0.1067,0.0533,0.0212,0.0104,-0.0522,-0.1016,1.2328,1.1305,1.0704,1.127,1.0881,1.064,0.0,1.1114,1.0714,1.0872,1.1211,1.1475,1.1549,1.2299,1.309,1.3874,1.4621,1.537,1.6178,1.7371,1.8276,1.8479,1.9067,1.9627,2.0,2.1039,2.1574,2.1161,2.1403,2.1614,2.1741,2.2119,2.2498,2.282,2.3221,2.3466,2.3578,2.3578,2.3634,2.371,2.3392,2.328,2.3336,2.2866,2.2564,2.2582,2.2613,2.2416,2.218,2.2426,2.2267,2.1862,2.1604,2.1033,2.0516,2.0262,1.9766,1.9155,1.8521,1.7963,1.74,1.7117,1.676,1.6325,1.6325,1.619,1.6175,1.5878,1.6001,1.6151,1.5837,1.5696,1.5658,1.5333,1.541,1.5407,1.4961,1.4783,1.4708,1.4425,1.3983,1.3609,1.3315,1.3098,1.2545,1.1428,1.1664,1.1673,1.0907,1.1017,1.1126,1.1017,1.0798,1.0586,1.0366,0.9244,0.8796,0.9244,0.7343,0.5964,0.576,0.4571,0.3461,0.2238,0.1811,0.1598,0.1704,0.0959,0.0426,0.0106,-0.0532,-0.0938,1.272,1.2039,1.1679,1.1956,1.1927,1.1837,1.1752,1.1905,1.1981,1.1616,1.1851,1.224,1.2513,1.3431,1.4314,1.4636,1.6053,1.7192,1.7489,1.8394,1.9181,1.9578,2.0145,2.0588,2.0513,2.1221,2.1665,2.1738,2.2157,2.246,2.2625,2.2812,2.2981,2.3149,2.3056,2.307,2.3386,2.2975,2.299,2.3542,2.3112,2.313,2.3347,2.317,2.3082,2.3331,2.3397,2.3419,2.3437,2.3268,2.298,2.2775,2.2366,2.1923,2.1312,2.0277,1.9681,1.9192,1.8503,1.8124,1.7778,1.7475,1.7088,1.6821,1.6821,1.6691,1.6491,1.6455,1.6439,1.6539,1.6378,1.6506,1.6421,1.5942,1.6207,1.632,1.5484,1.533,1.5084,1.4762,1.4329,1.3867,1.3423,1.3315,1.292,1.15,1.1961,1.2294,1.174,1.1836,1.175,1.1304,1.1084,1.0847,1.0397,0.9734,0.9209,0.8843,0.8201,0.7006,0.517,0.5119,0.4195,0.2308,0.2087,0.1977,0.1757,0.1538,0.1202,0.1082,-0.065,-0.1283,1.3221,1.2888,1.2681,1.2785,1.2881,1.2821,1.2403,1.2601,1.2817,1.2315,1.2668,1.3209,1.359,1.448,1.5418,1.595,1.7282,1.8318,1.8748,1.9507,2.0105,2.0328,2.0966,2.1355,2.0955,2.1565,2.2007,2.2147,2.2719,2.3093,2.3036,2.3352,2.3481,2.3481,2.3299,2.3358,2.3746,2.3064,2.3107,2.3758,2.3273,2.3291,2.3573,2.3573,2.3613,2.3808,2.407,2.4193,2.4211,2.3788,2.3576,2.347,2.2938,2.2403,2.1739,2.0625,1.9861,1.9355,1.8833,1.8466,1.8248,1.7934,1.7768,1.7528,1.7528,1.7407,1.7219,1.7022,1.7051,1.6981,1.6881,1.7061,1.7038,1.6504,1.675,1.6833,1.5986,1.568,1.5421,1.5128,1.4722,1.4275,1.3717,1.3826,1.3548,1.2262,1.2786,1.3022,1.2402,1.252,1.2434,1.162,1.1363,1.1114,1.0689,1.0085,0.9539,0.8954,0.8375,0.7279,0.5131,0.5178,0.4365,0.258,0.2468,0.2244,0.202,0.1908,0.1672,0.1541,-0.022,-0.1095,1.3921,1.3636,1.3455,1.3826,1.3644,1.3508,1.4113,1.347,1.2885,1.3168,1.3917,1.4458,1.4458,1.5232,1.6429,1.8152,1.8042,1.8263,1.9943,2.068,2.1089,2.0848,2.1563,2.1891,2.1445,2.2333,2.2737,2.23,2.2889,2.3036,2.2564,2.3596,2.4016,2.3818,2.4458,2.4977,2.5307,2.4769,2.456,2.4891,2.435,2.4035,2.4053,2.3842,2.3737,2.3754,2.3982,2.4,2.3699,2.3576,2.347,2.3151,2.2634,2.2188,2.1834,2.1264,2.0723,2.0179,1.9837,1.94,1.8878,1.8878,1.8671,1.8464,1.8464,1.8464,1.8287,1.779,1.7785,1.7805,1.7191,1.731,1.7349,1.7114,1.7009,1.6833,1.6345,1.593,1.5621,1.5388,1.5106,1.4745,1.4519,1.4519,1.4292,1.3972,1.4154,1.3742,1.2391,1.2717,1.2717,1.1791,1.1667,1.1553,1.1216,1.0023,0.9483,1.0055,0.722,0.5708,0.627,0.4592,0.3586,0.3586,0.3029,0.2694,0.2694,0.2132,0.1458,0.0896,0.0896,-0.0112,1.4435,1.4215,1.3994,1.4616,1.4865,1.4915,1.4547,1.4633,1.4537,1.39,1.4126,1.4516,1.4516,1.5842,1.6993,1.6878,1.7962,1.8991,1.9574,1.9992,2.043,2.1157,2.1284,2.1554,2.1917,2.2154,0.0,2.2517,2.2727,2.3196,2.4035,2.4226,2.438,2.453,2.4575,2.4613,2.4508,2.4193,2.3982,2.4088,2.3665,2.347,2.347,2.3725,2.3827,2.4059,2.4425,2.4683,2.4795,2.4098,2.3911,2.3999,2.3086,2.2434,2.1988,2.1877,2.1204,2.0456,1.9928,1.9566,1.925,1.925,1.903,1.8782,1.8578,1.8306,1.8101,1.7961,1.7909,1.8004,1.7944,1.794,1.7806,1.7493,1.7358,1.7067,1.6345,1.6126,1.584,1.5369,1.5074,1.477,1.4561,1.4654,1.4831,1.4761,1.4498,1.4103,1.3594,1.3596,1.3268,1.2346,1.2107,1.1851,1.1395,1.0763,1.0142,0.9676,0.8262,0.6893,0.5803,0.4957,0.4036,0.3029,0.2807,0.2468,0.2132,0.1908,0.1683,0.1459,0.0681,-0.0456,1.4728,1.4806,1.4746,1.536,1.5805,1.5981,1.5161,1.5439,1.5541,1.45,1.4787,1.5372,1.5653,1.6847,1.7813,1.7912,1.9059,2.0027,2.0248,2.0602,2.1048,2.1606,2.1715,2.1805,2.2057,2.22,0.0,2.2745,2.317,2.3709,2.4332,2.4639,2.4787,2.4827,2.4739,2.4703,2.4489,2.4184,2.3928,2.3955,2.3737,2.3711,2.3844,2.4172,2.4496,2.4624,2.4991,2.536,2.5549,2.4628,2.4433,2.4614,2.3598,2.2928,2.2467,2.2351,2.1698,2.0816,2.0413,2.0017,1.9794,1.9794,1.9682,1.9431,1.9237,1.8947,1.8642,1.8486,1.848,1.8512,1.8429,1.8351,1.826,1.7852,1.7824,1.7547,1.6797,1.6529,1.6333,1.5814,1.5539,1.5232,1.5134,1.5303,1.5539,1.5471,1.5141,1.4841,1.4391,1.4291,1.3721,1.2658,1.2542,1.229,1.1708,1.1304,1.0665,0.9591,0.8629,0.7359,0.5788,0.5017,0.4199,0.3309,0.2839,0.2612,0.2283,0.2055,0.1827,0.1828,0.0808,-0.0232,1.482,1.524,1.5505,1.591,1.6478,1.6649,1.5883,1.5883,1.5822,1.5033,1.5842,1.6891,1.7594,1.8028,1.892,2.0652,2.0855,2.0975,2.1749,2.2423,2.2564,2.209,2.247,2.2582,2.1917,2.2364,0.0,2.3116,0.0,2.4386,2.3582,2.4703,2.5237,2.4715,2.5046,2.511,2.511,2.4607,2.4361,2.4351,2.4367,2.4664,2.4994,2.5227,2.5461,2.5461,2.5693,2.5827,2.5844,2.5244,2.501,2.491,2.3952,2.3479,2.3093,2.2736,2.2053,2.1262,2.1205,2.0859,2.0385,2.0601,2.05,2.027,2.0256,2.0026,1.9726,1.9453,1.9347,1.915,1.8656,1.8672,1.8765,1.8206,1.8194,1.8181,1.7596,1.7286,1.699,1.6633,1.6299,1.6068,1.6068,1.6377,1.6419,1.6087,1.6087,1.5731,1.4769,1.465,1.4172,1.2844,1.2964,1.2844,1.1897,1.1614,1.0917,0.971,0.8284,0.7046,0.6107,0.4868,0.4174,0.4232,0.3248,0.29,0.3298,0.2356,0.1885,0.1885,0.1297,0.059,1.4735,1.4984,1.5041,1.5907,1.6403,1.6553,1.6316,1.6541,1.6621,1.5909,1.6524,1.709,1.6713,1.7738,1.8729,1.8937,1.9527,2.0262,2.0931,2.1179,2.1422,2.1804,2.1787,2.2005,2.2382,2.2769,0.0,0.0,2.3528,2.3895,2.4686,2.4558,2.4585,2.4751,2.465,2.4479,2.4239,2.4298,2.4269,2.4122,2.4614,2.4911,2.4994,2.5344,2.5594,2.5809,2.5577,2.5746,2.5864,2.4992,2.4805,2.5033,2.4284,2.3819,2.3417,2.3068,2.2696,2.221,2.2009,2.1189,2.027,2.0385,2.0385,2.0228,1.9777,1.9594,1.958,1.9611,1.9539,1.9407,1.9428,1.9292,1.9127,1.879,1.844,1.796,1.756,1.7277,1.6891,1.6552,1.6446,1.6446,1.6446,1.6621,1.6667,1.6205,1.6076,1.5709,1.4748,1.465,1.4172,1.2844,1.2844,1.2603,1.1897,1.1238,1.0673,0.9954,0.8011,0.6655,0.6107,0.4688,0.3752,0.3531,0.3284,0.2932,0.2592,0.2356,0.2121,0.1887,0.167,0.132,1.477,1.4971,1.4912,1.5968,1.6477,1.6734,1.6437,1.6812,1.7057,1.6402,1.6796,1.7237,1.7007,1.8038,1.8966,1.9265,2.0162,2.0982,2.1556,2.1722,2.1841,2.2364,2.2361,2.2512,2.2892,2.3219,2.36,0.0,2.393,2.4121,2.4538,2.4665,2.4701,2.4794,2.4754,2.4514,2.4155,2.4252,2.4315,2.4242,2.4671,2.4849,2.5115,2.537,2.5608,2.5727,0.0,2.6066,2.6251,2.5675,2.5588,2.5649,2.4836,2.4515,2.4379,2.3816,2.3422,2.315,2.2598,2.1642,2.0684,2.0672,2.05,2.0242,2.006,1.9904,1.9904,2.0118,2.0118,1.9932,1.9883,1.9809,1.9591,1.901,1.8661,1.8298,1.7818,1.7475,1.7169,1.6844,1.6728,1.6763,1.6868,1.702,1.6785,1.6312,1.6194,1.5709,1.4759,1.452,1.4043,1.3084,1.2973,1.2621,1.201,1.1518,1.0868,1.0172,0.8486,0.725,0.6593,0.5245,0.4413,0.4205,0.3939,0.3582,0.3247,0.3007,0.2766,0.2646,0.2184,0.1706,1.4727,1.5008,1.4977,1.5981,1.6652,1.6958,1.6629,1.7056,1.7286,1.6648,1.6894,1.7417,1.7762,1.8396,1.9157,2.0421,2.1369,2.2136,2.2736,2.2976,2.3049,2.3084,2.3286,2.3323,2.3118,2.3662,2.4063,2.4173,2.4746,2.478,2.3947,2.4715,2.5087,2.4859,2.4829,2.476,2.4408,2.422,2.4277,2.4579,2.4747,2.4939,2.5226,2.5488,2.5733,2.5733,2.6205,0.0,2.6571,2.6449,2.6449,2.6449,2.5472,2.5365,2.5472,2.4564,2.4085,2.3929,2.3051,2.2064,2.1174,2.1018,2.0658,2.027,2.0486,2.05,2.0385,2.073,2.0716,2.0601,2.004,2.004,2.004,1.9113,1.8881,1.8648,1.8089,1.7774,1.7486,1.7256,1.7141,1.7213,1.7443,1.728,1.6938,1.6549,1.625,1.5807,1.482,1.4421,1.4033,1.3324,1.3232,1.2991,1.2363,1.2001,1.1269,1.0301,0.9105,0.8011,0.7276,0.5985,0.538,0.5328,0.4651,0.4285,0.4342,0.3722,0.3477,0.3477,0.2607,0.2109,1.4417,1.464,1.4895,1.6019,1.6453,1.6753,1.7091,1.7511,1.768,1.7122,1.7627,1.7989,1.7191,1.7712,1.8539,1.9767,2.0232,2.1045,2.2501,2.2766,2.2805,2.2831,2.2888,2.2872,2.2831,2.3485,2.3978,0.0,2.4594,2.4926,2.4721,2.4647,2.4545,2.4194,2.4258,2.429,2.4172,2.4341,2.4515,2.4579,2.5124,2.5423,2.5488,2.5839,2.5961,2.5961,2.5839,0.0,2.6205,2.5839,2.5961,2.6205,2.5733,2.561,2.5456,2.4785,2.4154,2.3712,2.3484,2.2275,2.067,2.0219,2.0027,1.9924,1.9924,2.0155,2.0385,2.0974,2.096,2.0601,2.027,2.027,2.004,1.9127,1.8661,1.8428,1.8102,1.7701,1.7523,1.7418,1.7418,1.743,1.7479,1.7434,1.7148,1.6571,1.642,1.5996,1.5439,1.4891,1.4172,1.3343,1.3213,1.3093,1.2621,1.1881,1.0906,0.993,0.8694,0.751,0.6268,0.5827,0.5358,0.4862,0.4725,0.4339,0.371,0.3582,0.3454,0.3203,0.2945,0.2817,1.4629,1.5285,1.5752,1.6384,1.6627,1.6846,1.7186,1.7379,1.7433,1.7253,1.7546,1.7663,1.7511,1.8029,1.8938,2.0033,2.0802,2.1571,2.2822,2.2848,2.2872,2.3141,2.3119,2.3152,2.3435,2.3891,2.4284,2.4466,2.486,2.4874,2.4746,2.4724,2.4778,2.4595,2.4852,2.4852,2.4595,2.477,2.4849,2.4865,2.5146,2.5365,2.5365,2.5472,2.5717,2.5839,2.5839,0.0,2.6327,2.6327,2.6466,2.6571,2.6205,2.6083,2.6067,2.5521,2.5028,2.4585,2.3991,2.3007,2.1872,2.0828,2.0223,1.9848,2.0115,2.051,2.0836,2.1264,2.1336,2.1162,2.063,2.0371,2.0155,1.9372,1.8777,1.8311,1.7855,1.7608,1.7479,1.7479,1.7587,1.7565,1.7197,1.742,1.7318,1.6464,1.6284,1.6113,1.5432,1.5013,1.4465,1.3984,1.3573,1.3337,1.3134,1.2479,1.1781,1.0907,0.9606,0.8385,0.7248,0.6541,0.5929,0.554,0.554,0.5283,0.464,0.4511,0.4254,0.3871,0.3482,0.3224,1.5074,1.585,1.6473,1.6861,1.6942,1.7025,1.7467,1.7347,1.7237,1.7416,1.7221,1.7171,1.7695,1.8213,1.9027,2.0279,2.1147,2.2001,2.3086,2.2977,2.295,2.3295,2.3389,2.3487,2.3843,2.4268,2.458,2.4858,2.5044,2.4884,2.465,2.4972,2.5156,2.5103,2.5429,2.5445,2.5103,2.5103,2.5103,2.5103,2.5103,2.5103,2.5242,2.5242,2.5365,2.5733,2.5961,0.0,0.0,2.683,2.7073,2.7073,2.6692,2.6571,2.6571,2.6083,2.5578,2.5194,2.4301,2.3535,2.2704,2.1746,2.0874,2.012,2.0591,2.0874,2.1138,2.1374,2.1435,2.1363,2.0829,2.0526,2.0164,1.9502,1.8777,1.8181,1.7726,1.7596,1.762,1.7551,1.7744,1.7673,1.6971,1.72,1.7236,1.6447,1.6273,1.6024,1.5587,1.5347,1.4992,1.4888,1.4213,1.3706,1.3665,1.3198,1.2523,1.1728,1.0531,0.9288,0.8258,0.7389,0.6761,0.6239,0.6239,0.611,0.5595,0.5332,0.5072,0.4816,0.4177,0.3789,1.552,1.5711,1.6063,1.7266,1.7278,1.728,1.8148,1.7872,1.753,1.7466,1.7057,1.6759,1.6938,1.6967,1.7552,1.9638,1.9946,2.0647,2.265,2.2736,2.2733,2.3006,2.3276,2.3467,2.3546,2.4118,2.4619,2.4651,2.4904,2.5124,2.5024,2.5342,2.5405,2.5119,2.5421,2.5437,2.5119,2.5103,2.5103,2.5103,2.5103,2.5242,2.561,2.561,2.5717,2.6083,2.6067,0.0,0.0,2.6571,2.683,2.7073,2.6692,2.6571,2.6449,2.5594,2.4794,2.424,2.3822,2.2813,2.1925,2.231,2.1658,2.0604,2.0631,2.074,2.0698,2.067,2.0657,2.0657,2.075,2.0506,2.0064,1.9452,1.8648,1.8064,1.796,1.796,1.7904,1.7912,1.7913,1.7792,1.7234,1.6963,1.6675,1.6344,1.617,1.6219,1.6509,1.6285,1.607,1.6107,1.5292,1.4624,1.446,1.3715,1.2724,1.1565,1.0445,0.9429,0.8388,0.8101,0.7493,0.6427,0.6427,0.616,0.5492,0.5359,0.5359,0.5362,0.5021,0.464,1.5798,1.6397,1.7011,1.7705,1.7745,1.7676,1.8284,1.7673,1.7153,1.7335,1.7252,1.7159,1.7423,1.7768,1.8535,1.9987,2.0358,2.0878,2.2135,2.2336,2.242,2.2735,2.3121,2.3372,2.3763,2.418,2.4511,2.4812,2.4968,2.5155,2.536,2.5501,2.5628,2.5739,2.5866,2.5882,2.5739,2.5991,2.6117,2.6117,2.6242,2.6384,2.6493,2.6264,2.6414,2.6644,2.6549,0.0,0.0,2.6952,2.6952,2.7073,2.6952,2.6587,2.5961,2.5839,2.5071,2.4054,2.3961,2.3454,2.2842,2.2644,2.2213,2.1728,2.1409,2.1216,2.1341,2.176,2.1704,2.1582,2.1811,2.1213,2.0415,1.9972,1.9469,1.9043,1.8804,1.8564,1.848,1.8458,1.8398,1.8185,1.7247,1.7334,1.7139,1.6431,1.6457,1.6671,1.7,1.6775,1.6624,1.7135,1.6073,1.5228,1.4925,1.4061,1.3276,1.2141,1.0871,0.9612,0.8622,0.8339,0.7655,0.6853,0.6774,0.6669,0.613,0.5906,0.5928,0.5928,0.5269,0.5002,1.6104,1.6912,1.7522,1.8025,1.7916,1.7906,1.8143,1.7488,1.6857,1.7253,1.7183,1.7211,1.7541,1.799,1.88,1.9828,2.0251,2.0819,2.1726,2.1979,2.223,2.2589,2.3022,2.3448,2.3929,2.4146,2.4471,2.5093,2.5057,2.5273,2.5778,2.5758,2.5856,2.6024,2.6247,2.6247,2.6152,2.6536,2.6663,2.6663,2.7062,2.7317,2.73,2.7044,2.7176,2.7526,2.7258,0.0,0.0,2.7366,2.7176,2.683,2.683,2.6222,2.5488,2.5594,2.5087,2.4224,2.4085,2.3822,2.3559,2.3076,2.2702,2.2452,2.1908,2.1642,2.1685,2.1962,2.1782,2.1782,2.2139,2.141,2.0535,2.0414,1.9981,1.944,1.9145,1.8778,1.8594,1.8865,1.8632,1.8047,1.7374,1.7249,1.7173,1.642,1.644,1.6737,1.723,1.7099,1.7214,1.7695,1.6911,1.6025,1.5505,1.4577,1.3515,1.2664,1.115,0.985,0.9171,0.8687,0.8122,0.7477,0.741,0.7177,0.6769,0.6553,0.6302,0.6306,0.5768,0.5507,1.6777,1.6979,1.7153,1.79,1.801,1.785,1.7787,1.7251,1.6975,1.704,1.6849,1.6698,1.6946,1.7175,1.7743,1.9015,1.9226,1.9881,2.1395,2.185,2.227,2.2503,2.32,2.3596,2.3596,2.4207,2.473,2.5124,2.5115,0.0,2.6121,2.6065,2.5957,2.5669,2.6356,2.6501,2.6152,2.6536,2.6663,2.6663,2.7062,2.73,2.7664,2.7651,2.7933,0.0,0.0,0.0,0.0,2.8114,2.7276,2.6067,2.6067,2.5717,2.5103,2.4734,2.461,2.461,2.4239,2.3852,2.3619,2.3539,2.3149,2.2495,2.216,2.1894,2.1488,2.0856,2.0602,2.0729,2.0982,2.0724,2.0268,2.0615,1.9676,1.8692,1.8668,1.8201,1.8019,1.8976,1.8177,1.7453,1.7356,1.6563,1.5909,1.6318,1.6052,1.6255,1.7556,1.7723,1.7723,1.7723,1.7712,1.7395,1.6535,1.4922,1.3665,1.3096,1.1293,1.0117,0.9844,0.9443,0.8955,0.8382,0.797,0.7692,0.7279,0.6864,0.6725,0.6729,0.639,0.6041,1.665,1.7179,1.7542,1.7994,1.7919,1.7671,1.7508,1.7165,1.6822,1.648,1.6514,1.6597,1.658,1.6901,1.7494,1.8716,1.908,1.9686,2.0764,2.1472,2.2009,2.2231,2.3308,2.3947,2.3947,2.4394,2.4718,2.5052,2.5169,2.5358,2.608,2.6337,2.6573,2.6751,2.7094,2.7358,2.7245,2.7785,2.8193,2.8193,2.8443,2.8828,2.9181,2.8794,2.8957,0.0,0.0,0.0,0.0,2.7868,2.7276,2.6449,2.6189,2.5717,2.5103,2.498,2.461,2.4239,2.4115,2.3976,2.3961,2.3619,2.3494,2.323,2.2591,2.209,2.1614,2.1362,2.1587,2.1825,2.1515,2.1182,2.075,2.0412,1.9927,1.9401,1.9224,1.8724,1.8473,1.8557,1.7862,1.7267,1.697,1.6573,1.6131,1.637,1.6323,1.6432,1.7364,1.7652,1.793,1.8207,1.8067,1.7569,1.6593,1.5078,1.4026,1.3423,1.1596,1.0404,1.0125,0.9631,0.9043,0.8387,0.8324,0.8082,0.7804,0.7732,0.7478,0.7334,0.7509,0.7395,1.6646,1.7272,1.7784,1.7931,1.7933,1.7812,1.7305,1.7014,1.6722,1.6179,1.6453,1.6647,1.6419,1.6921,1.7592,1.8493,1.8988,1.9613,2.0369,2.1132,2.1918,2.2476,2.3365,2.3991,2.41,2.4469,2.4792,2.4963,2.5237,2.5687,2.6115,2.6532,2.6918,2.7318,2.7584,2.77,2.77,2.8395,2.8807,2.8922,2.9336,2.9595,3.0065,2.9704,2.9887,0.0,0.0,0.0,0.0,2.7826,2.7025,2.5839,2.5717,2.5349,2.4734,2.4857,2.461,2.4363,2.4487,2.4348,2.4209,2.41,2.3728,2.337,2.2972,2.2314,2.174,2.1614,2.1839,2.1992,2.1833,2.1336,2.085,2.0682,2.0117,1.9615,1.9352,1.8684,1.8239,1.8574,1.776,1.6964,1.7099,1.656,1.636,1.6843,1.6629,1.6758,1.7611,1.7752,1.7903,1.8562,1.8218,1.7951,1.7555,1.5725,1.437,1.393,1.2037,1.0816,1.0536,1.018,0.9736,0.8938,0.8913,0.8688,0.84,0.8217,0.8117,0.797,0.8264,0.8411,0.0,1.7311,1.7706,1.7695,1.8033,1.8176,1.6952,1.6742,0.0,1.6171,1.638,1.6654,1.633,1.7065,1.7796,1.8266,1.8985,1.9569,2.0131,2.1088,2.2025,2.2937,2.337,2.3743,2.4146,2.4711,2.4963,2.4735,2.5601,2.6115,2.6145,2.6532,2.7051,2.77,2.77,2.7833,2.7833,2.8527,2.9053,2.9265,2.9622,3.0012,3.0325,3.0301,3.0483,0.0,0.0,0.0,0.0,2.7807,2.6493,2.4765,2.5119,2.4734,2.4239,2.461,2.4749,2.4765,2.5012,2.4904,2.4688,2.4688,2.3943,2.3126,2.3163,2.2624,2.1992,2.1768,2.1389,2.1343,2.1903,2.128,2.0617,2.1187,2.0294,1.9358,1.9224,1.8171,1.7569,1.8857,1.7654,1.6698,1.741,1.6718,1.6292,1.741,1.6945,1.6907,1.8107,1.7824,1.7724,1.8624,1.8322,1.8365,1.9235,1.6627,1.4937,1.4534,1.2743,1.1566,1.1005,1.087,1.0649,1.0047,0.9736,0.9355,0.906,0.886,0.861,0.861,0.906,0.921,1.6737,0.0,1.7254,1.7355,1.7208,1.6868,0.0,1.6448,1.6257,1.5777,1.5748,1.5984,1.6359,1.6607,1.6919,1.7888,1.8791,1.9458,1.9541,2.0723,2.199,2.299,2.3643,2.4082,2.4466,2.4903,2.5231,2.5365,2.5897,2.6253,2.6517,2.7185,2.7584,2.77,2.8263,2.8659,2.8905,2.9299,2.9422,2.9275,2.9598,2.9742,2.9899,3.0139,3.0339,0.0,0.0,0.0,2.8196,2.7781,2.7018,2.6091,2.5937,2.5594,2.5226,2.5594,2.5649,2.5391,2.575,2.5801,2.5771,2.5149,2.4471,2.3927,2.3854,2.3078,2.209,2.2254,2.2016,2.1692,2.128,2.1028,2.06,2.0047,1.9481,1.9084,1.8812,1.827,1.7663,1.7537,1.6965,1.647,1.6917,1.6806,1.6744,1.7428,1.7581,1.7488,1.7233,1.7763,1.8433,1.8608,1.8806,1.917,2.0005,1.7315,1.5605,1.5478,1.3889,1.2743,1.2332,1.1898,1.1623,1.1064,1.0804,1.0518,1.0375,1.0398,1.0416,1.0416,1.0416,1.0416,1.648,1.6857,1.7056,1.7102,1.6951,1.6714,1.6335,1.6221,1.6045,1.5644,1.5651,1.5923,1.6303,1.6566,1.6968,1.7966,1.8822,1.9612,2.034,2.1237,2.2256,2.317,2.3983,2.436,2.4641,2.5045,2.5308,2.5365,2.5974,2.6597,2.6918,2.7451,2.7849,2.8246,2.8543,2.8922,2.9316,2.9388,2.9585,2.9775,2.9744,2.9797,3.0014,2.9978,2.9941,0.0,0.0,0.0,2.7677,2.7184,2.6694,2.6348,2.6149,2.6083,2.6083,2.6083,2.6068,2.6004,2.6113,2.6103,2.6024,2.5381,2.4795,2.4509,2.4422,2.3652,2.2706,2.272,2.2461,2.2141,2.1528,2.1255,2.0983,2.0412,1.9725,1.937,1.9217,1.8639,1.8018,1.7997,1.7572,1.7186,1.7592,1.7468,1.7559,1.8112,1.8279,1.8279,1.8173,1.8571,1.8987,1.9457,1.9446,1.9814,2.092,1.8644,1.6911,1.6195,1.5024,1.3987,1.2947,1.2806,1.2543,1.2155,1.1704,1.1592,1.1656,1.1656,1.1504,1.1352,1.1808,1.1808,1.625,1.6635,1.698,1.6956,1.6947,1.677,1.6331,1.6127,1.5951,1.5687,1.5923,1.6178,1.6293,1.6755,1.7435,1.84,1.9085,2.0061,2.1518,2.2069,2.2646,2.3509,2.4139,2.4577,2.4704,2.5218,2.5463,2.5252,2.623,2.6871,2.72,2.7535,2.8065,2.8807,2.8888,2.9134,2.9447,2.931,2.9612,3.0194,2.9904,2.9847,2.9989,2.9798,2.9598,2.9542,0.0,0.0,2.725,2.675,2.6438,2.6355,2.6371,2.6616,2.6739,2.6494,2.648,2.6668,2.6339,2.6312,2.6182,2.5535,2.5275,2.5076,2.4819,2.417,2.3615,2.3275,2.289,2.2485,2.1988,2.162,2.1344,2.1294,2.0471,1.9853,2.0083,1.9272,1.8619,1.9112,1.8706,1.8425,1.8749,1.8613,1.8675,1.9297,1.9319,1.9287,1.9823,1.9812,1.9992,2.0819,2.0512,2.058,2.1775,2.0407,1.8853,1.733,1.6434,1.5108,1.3626,1.3484,1.3394,1.3065,1.2768,1.2525,1.2656,1.2656,1.2501,1.2192,1.2811,1.312,1.6386,1.6525,1.6497,1.6658,1.6248,1.6068,1.6613,1.6218,1.5837,1.5965,1.6129,1.633,1.6612,1.715,1.7768,1.84,1.9407,2.0559,2.1603,2.219,2.2857,2.3569,2.4204,2.4657,2.5031,2.5408,2.5707,2.5992,2.6387,2.7014,2.7567,2.7687,2.8063,2.879,2.9008,2.9526,3.023,2.9842,2.9725,2.9761,2.961,2.955,2.9324,2.9483,2.9454,2.9153,0.0,2.8639,2.7554,2.806,2.7959,2.7495,2.7764,2.7764,2.7495,2.7495,2.7366,2.7085,2.6982,2.6862,2.6511,2.6111,2.571,2.5457,2.5099,2.4709,2.4274,2.4232,2.3555,2.2629,2.1958,2.1988,2.1914,2.1205,2.0888,2.0767,2.0814,2.0382,1.9815,1.9279,1.9424,1.949,1.9402,1.9878,2.0399,2.0624,2.1291,2.1475,2.0887,2.1394,2.1781,2.1929,2.1965,2.2013,2.2694,2.2061,2.0968,1.9425,1.7615,1.6107,1.4734,1.4436,1.3992,1.3546,1.3546,1.356,1.3583,1.3583,1.3436,1.3436,1.3583,1.3737,1.632,1.6263,1.6188,1.669,1.6594,1.6292,1.6677,1.6484,1.6292,1.6388,1.6508,1.6647,1.7101,1.7395,1.7983,1.9234,2.0224,2.1137,2.2089,2.2804,2.3375,2.3798,0.0,2.4953,2.536,2.5549,2.5801,2.6406,2.6756,2.729,2.7981,2.836,2.8867,2.9299,2.9665,3.0054,3.0378,3.0227,3.0194,3.0247,2.9874,2.9568,2.9683,2.9635,2.969,2.9744,0.0,2.9015,2.8714,2.8697,2.8576,2.8295,2.8438,2.8169,2.768,2.7644,2.744,2.7263,2.7471,2.7178,2.6796,2.6525,2.6254,2.613,2.5717,2.5215,2.4606,2.4719,2.3983,2.3233,2.2486,2.2291,2.2181,2.146,2.1078,2.092,2.1061,2.0793,2.0534,2.0808,2.0978,2.116,2.1585,2.1757,2.1941,2.2198,2.242,2.2606,2.2594,2.2682,2.293,2.3201,2.2955,2.2992,2.3154,2.2408,2.1199,1.9531,1.7864,1.6501,1.5735,1.5283,1.4976,1.4661,1.4507,1.4353,1.4353,1.4661,1.4661,1.4353,1.4814,1.5122,1.6316,1.6281,1.6355,1.6948,1.682,1.6613,1.68,1.68,1.6714,1.6814,1.682,1.7048,1.7502,1.7916,1.8755,2.0329,2.116,2.1933,2.2671,2.3394,2.3991,2.4239,2.4797,2.5376,2.5643,2.5707,2.6037,2.6775,2.7062,2.7652,2.8527,2.8969,2.9344,2.9805,3.0142,3.0272,3.023,3.0245,3.0284,3.0646,2.9965,2.98,3.0328,2.9887,2.9906,3.0374,2.9467,2.9322,2.9742,2.8985,2.8824,2.8824,2.8783,2.8358,2.796,2.7982,2.7818,2.7471,2.7878,2.7733,2.7289,2.6863,2.6785,2.6578,2.6298,2.5606,2.496,2.5059,2.452,2.3794,2.2896,2.279,2.2658,2.2017,2.1607,2.1412,2.1626,2.1367,2.1413,2.2186,2.2533,2.2819,2.3413,2.3413,2.3413,2.3709,2.36,2.3812,2.4473,2.4232,2.4179,2.4555,2.4071,2.3748,2.3438,2.2247,2.1071,1.9605,1.7893,1.6806,1.6357,1.5897,1.5744,1.5744,1.5429,1.5275,1.5275,1.5582,1.5582,1.5275,1.5897,1.605,1.6454,1.6673,1.7052,1.7134,1.6716,1.6513,1.7299,1.71,1.6814,1.7014,1.7346,1.7528,1.7569,1.8919,2.0371,2.1453,2.2393,2.3051,2.3475,2.4147,2.4487,2.461,2.5172,2.5518,2.5643,2.5945,2.6424,2.7052,2.723,2.7769,2.9168,2.8974,2.9051,2.9805,2.986,2.9842,2.9805,2.9824,3.003,3.0284,2.9842,3.0026,3.068,2.9941,2.9996,3.0612,2.9978,2.9671,2.9654,2.9069,2.8952,2.9265,2.896,2.8771,2.8777,2.9067,2.8793,2.8122,2.8567,2.8445,2.8047,2.7354,2.7107,2.6983,2.6703,2.5959,2.5412,2.5784,2.5216,2.4382,2.342,2.3311,2.3459,2.3057,2.2755,2.2806,2.2819,2.2831,2.2682,2.2694,2.329,2.3883,2.4018,2.4609,2.5051,2.5051,2.5359,2.5658,2.606,2.5903,2.5778,2.6126,2.5431,2.4636,2.3451,2.2247,2.1302,2.078,1.8601,1.7121,1.6806,1.6357,1.6203,1.6203,1.6203,1.605,1.605,1.6203,1.6203,1.605,1.6203,1.6357,1.6627,1.6703,1.6858,1.7047,1.7098,1.7274,1.7689,1.7556,1.7371,1.7889,1.7956,1.8036,1.8918,2.0345,2.1657,2.2184,2.2946,2.3627,2.4176,2.4594,2.5141,2.5597,2.6008,2.6423,2.6889,2.7035,2.7133,2.7242,2.767,2.7851,2.7981,2.8901,2.9405,2.943,3.0072,3.0201,2.9561,3.0201,3.0384,3.0372,3.0085,3.0552,3.1444,3.0899,3.1046,3.1451,3.0952,3.0656,3.0437,3.0195,2.9597,2.891,2.8581,2.8535,2.8802,2.8923,2.8648,2.8233,2.8664,2.8376,2.785,2.7725,2.758,2.7478,2.7508,2.6831,2.6056,2.6185,2.5451,2.4475,2.3857,2.3722,2.3709,2.3311,2.3227,2.3154,2.3154,2.3154,2.3438,2.4166,2.477,2.5337,2.608,2.6397,2.6673,2.6823,2.6686,2.66,2.6986,2.6481,2.6178,2.6291,2.5589,2.4636,2.3141,2.2545,2.1695,2.0277,1.9274,1.8598,1.8417,1.7804,1.7281,1.7152,1.6689,1.6472,1.651,1.6815,1.7121,1.7264,1.7578,1.7731,1.6846,1.6806,1.6957,1.7321,1.7401,1.7639,1.8143,1.8118,1.8018,1.8658,1.8906,1.9334,2.0399,2.1686,2.2751,2.3185,2.3733,2.4378,2.4949,2.528,2.5628,2.6248,2.6632,2.7051,2.7685,2.78,2.7851,2.7716,2.8263,2.8395,2.7865,2.9036,2.9743,2.947,3.0407,3.0591,2.9791,3.0584,3.0989,3.0856,3.0591,3.0988,3.2041,3.1634,3.1669,3.192,3.1389,3.099,3.0874,3.0462,2.968,2.8777,2.8563,2.8847,2.9142,2.9142,2.8986,2.8986,2.9126,2.8726,2.8364,2.8222,2.809,2.7985,2.7885,2.7346,2.6692,2.669,2.6066,2.5215,2.493,2.4552,2.4324,2.4026,2.3941,2.3856,2.3856,2.4006,2.4279,2.5215,2.5811,2.656,2.7466,2.7806,2.7953,2.8103,2.7614,2.7335,2.782,2.6986,2.6461,2.6239,2.5786,2.4811,2.3267,2.2893,2.2169,2.0658,2.0298,1.9769,1.9088,1.8621,1.8271,1.8193,1.7508,1.7288,1.7511,1.776,1.7883,1.8177,1.8491,1.8643,1.7305,1.7173,1.7287,1.7904,1.7579,1.7516,1.8635,1.8678,1.8712,1.925,2.0413,2.1521,2.2079,2.2796,0.0,2.4579,2.4922,2.5375,2.6104,2.6152,2.628,2.668,2.6987,2.7328,2.7701,2.8048,2.8395,2.8807,2.9053,2.9316,2.9316,2.9561,2.9865,2.9847,3.0663,3.099,3.0972,3.0972,3.1378,3.1917,3.0972,3.1243,3.2588,3.1788,3.1558,3.1935,3.0837,3.0582,3.0736,2.9352,2.8734,2.8805,2.9155,2.9585,2.9855,2.9855,3.0157,3.0299,2.9997,2.9855,2.9712,2.8434,2.8418,2.8563,2.784,2.752,2.7565,2.7452,2.7158,2.6738,2.6738,2.591,2.509,2.509,2.5001,2.4892,2.4892,2.5198,2.5577,2.5718,2.6723,2.7629,2.8058,2.8516,2.8679,2.8679,2.8369,2.8178,2.8492,2.7674,2.6692,2.5946,2.58,2.5187,2.3983,2.3154,2.2627,2.2377,2.1716,2.0549,1.8663,1.8653,1.8754,1.8967,1.8754,1.8754,1.8967,1.8754,1.8643,1.8643,1.8643,1.8643,1.6976,1.7137,1.7398,1.7428,1.7982,1.8504,1.9024,1.8737,1.8725,1.9849,2.1307,2.2394,2.2837,2.3948,0.0,2.4995,2.5675,2.6248,2.647,2.6777,2.7133,2.7785,2.8179,2.8508,2.8753,2.8986,2.8922,2.879,2.9423,2.956,2.9427,2.9958,3.0415,3.0646,3.0286,3.0187,3.0276,3.0429,3.0566,3.0547,3.1236,3.1779,3.2186,3.1675,3.1726,3.2069,3.1374,3.0954,3.05,2.9271,2.8962,2.9155,2.925,2.9441,2.9585,2.9855,2.9712,2.9585,2.9871,2.9729,2.9356,2.8919,2.909,2.9408,2.8796,2.8535,2.8152,2.7909,2.7254,2.6821,2.6794,2.6753,2.6405,2.5895,2.5756,2.5671,2.5365,2.5671,2.6101,2.6763,2.7525,2.8443,2.9049,2.9534,2.9686,2.9686,2.9593,2.9317,2.8923,2.7703,2.6666,2.6122,2.5335,2.4525,2.3794,2.3417,2.3005,2.2283,2.2058,2.144,2.0494,2.035,2.0141,1.9881,1.9521,1.959,1.9941,1.9573,1.9703,2.0307,2.0307,2.0156,1.6932,1.7047,1.7277,1.7604,1.8184,1.897,1.9668,1.9679,1.9815,2.1074,2.2097,2.2976,2.3638,2.4595,0.0,2.5458,2.6084,2.6599,2.7082,2.7277,2.7621,2.8378,2.8675,2.8939,2.9316,2.943,2.943,2.9168,2.9774,2.9864,2.9446,2.9732,3.0122,3.0377,3.0172,3.0102,3.0321,3.0467,3.051,3.061,3.1311,3.1824,3.2018,3.2017,3.2141,3.2308,3.1735,3.1159,3.0549,2.9761,2.9425,2.952,2.9647,2.976,2.9809,2.9937,3.005,2.9953,3.0082,2.9743,2.9399,2.9229,2.9415,2.957,2.8866,2.8816,2.8903,2.8198,2.7917,2.7593,2.7579,2.7762,2.7593,2.6682,2.6543,2.6625,2.6316,2.6639,2.706,2.7392,2.8286,2.903,2.9641,3.0115,3.0391,3.0391,3.0174,2.9714,2.8984,2.8012,2.7273,2.6458,2.5827,2.5157,2.4392,2.4023,2.3745,2.3101,2.2858,2.2553,2.1946,2.1454,2.1022,2.0649,2.0408,2.0342,2.0743,2.0491,2.0609,2.1071,2.1071,2.091,1.7201,1.6963,1.7066,1.8224,1.8596,1.9155,2.055,2.1022,2.1491,2.2557,2.2961,2.355,2.4518,2.4764,2.5083,2.5944,2.6199,2.6588,2.7403,2.7567,2.7998,2.8577,2.8726,2.8973,2.9367,2.9647,2.9778,2.9874,3.0143,3.0118,2.948,2.939,2.9478,2.9466,3.0026,3.0475,3.0952,3.086,3.0876,3.1326,3.1072,3.1384,3.199,3.2457,3.2619,3.2543,3.1809,3.1236,3.0824,3.0479,3.014,2.9901,3.0203,3.0271,3.034,3.0351,3.0566,3.0924,3.0499,3.014,2.9818,2.939,2.9513,2.9694,2.8428,2.8731,2.9412,2.8681,2.87,2.8886,2.8886,2.8886,2.8657,2.7593,2.7437,2.7633,2.7633,2.7961,2.8203,2.7903,2.8754,2.9671,2.9686,3.0296,3.0902,3.0918,3.0143,2.9397,2.8777,2.8561,2.7856,2.6794,2.6586,2.6238,2.5335,2.5075,2.4855,2.4672,2.412,2.3661,2.3198,2.1977,2.1394,2.146,2.1243,2.1383,2.1578,2.136,2.1245,2.1222,2.1222,2.1222,1.7525,1.765,1.7862,1.8609,1.9747,2.0849,2.1948,2.2032,2.2086,2.2944,2.3484,2.4245,2.5231,2.6049,2.6518,2.6142,2.7044,2.7557,2.6563,2.7185,2.7814,2.7987,2.8423,2.9094,2.9628,2.9497,2.9682,3.0177,3.0361,3.0459,3.0607,3.0285,3.0348,3.0989,2.992,2.966,3.0371,3.0383,3.0283,0.0,3.1334,3.1811,3.1612,3.1997,3.204,3.1809,3.1515,3.1234,3.0878,3.0442,3.0283,3.0219,3.0283,3.0267,3.0367,3.0299,3.0415,3.0515,3.0283,3.0458,3.0648,3.0124,3.0479,3.0851,2.9468,2.9468,2.9807,2.8997,2.8886,2.8886,2.8886,2.8886,2.8871,2.8642,2.8374,2.8118,2.7633,2.7961,2.8417,2.8657,2.9094,2.9698,3.0022,3.0146,3.0453,3.0823,3.0037,2.9607,2.9883,2.868,2.762,2.7074,2.6252,2.5564,2.5148,2.5037,2.4855,2.4672,2.4585,2.4431,2.4124,2.3089,2.2591,2.2175,2.2128,2.2189,2.2353,2.2281,2.215,2.2109,2.2408,2.2109,1.7525,1.7806,1.8324,1.9523,2.0903,2.223,2.248,2.2976,2.3359,2.3788,2.3873,2.4306,2.562,2.63,2.6775,2.683,2.7715,2.8052,2.7453,2.7964,2.857,2.8783,2.8935,2.9207,2.975,2.9646,2.968,3.002,3.0132,3.0211,3.025,2.9889,2.9949,3.0315,2.957,2.9256,2.9719,3.0046,3.014,2.9984,3.1345,3.1893,3.1743,3.2124,3.2288,3.201,3.1663,3.1283,3.0839,3.0473,3.0315,3.033,3.0505,3.0569,3.0601,3.0775,3.0728,3.0601,3.0775,3.0688,3.0584,3.0451,3.0623,3.0608,2.9819,2.9664,2.9664,2.9042,2.8886,2.8886,2.8886,2.8886,2.8886,2.8886,2.8744,2.8588,2.8261,2.8431,2.8588,2.8886,2.9197,2.9508,2.9834,2.9944,3.0238,3.0778,3.0083,2.9513,2.99,2.8961,2.8172,2.7707,2.7114,2.6676,2.636,2.6262,2.6141,2.6132,2.5999,2.5763,2.5608,2.4984,2.4233,2.3353,2.334,2.3433,2.3451,2.3314,2.3039,2.2741,2.2918,2.2558,1.7711,1.8164,1.892,2.0537,2.2118,2.3148,2.2875,2.3789,2.469,2.4653,2.4238,2.4491,2.5977,2.6402,2.6679,2.7616,2.8158,2.8451,2.8526,2.8923,2.9215,2.9572,2.9313,2.9451,2.9864,2.9776,2.9655,2.9793,2.9704,2.9537,2.952,2.922,2.9109,2.9018,2.897,2.8985,2.9018,2.9716,2.9992,3.0037,3.1236,3.1999,3.2159,3.2409,3.2526,3.232,3.1663,3.1283,3.0839,3.0473,3.0315,3.0346,3.0728,3.0855,3.0902,3.1252,3.1204,3.0998,3.1284,3.0882,3.0389,3.0839,3.0624,3.0144,2.9694,2.9523,2.9493,2.9042,2.8886,2.8886,2.8886,2.8886,2.8886,2.8886,2.8886,2.8886,2.8886,2.8886,2.8886,2.8886,2.9212,2.9368,2.9368,2.9619,3.0068,3.0454,2.9868,2.9344,2.9508,2.9212,2.8744,2.8289,2.8289,2.8118,2.7633,2.7633,2.7633,2.7633,2.7319,2.7162,2.7162,2.6847,2.6002,2.474,2.4534,2.4483,2.4278,2.415,2.3681,2.3329,2.3105,2.2707,1.8659,1.9672,2.099,2.1789,2.2745,2.3461,2.3545,2.4336,2.5161,2.5026,2.513,2.571,2.6784,2.7261,2.7522,2.7725,2.8224,2.8443,2.7602,2.7956,2.8344,2.8365,2.8694,2.9115,2.9798,2.9531,2.9424,2.9693,2.9488,2.926,2.9109,2.9063,2.8937,2.8909,2.8968,2.8968,2.8924,2.9323,2.9508,2.9619,3.0901,3.196,3.2961,3.2359,3.1942,3.1523,3.1118,3.0985,3.0839,3.0473,3.0315,3.0346,3.0728,3.0855,3.0902,3.1252,3.1363,3.1331,3.1379,3.1363,3.1178,3.1225,3.1087,3.0639,3.019,2.9849,2.9493,2.9042,2.8886,2.8886,2.8886,2.8886,2.8886,2.8886,2.8886,2.8886,2.8886,2.8886,2.8886,2.8886,2.8886,2.9042,2.9042,2.8953,2.9234,2.9634,2.9323,2.9168,2.9493,2.9197,2.8744,2.8289,2.8289,2.8118,2.7633,2.7633,2.7633,2.7633,2.7476,2.7476,2.7476,2.7476,2.7134,2.6594,2.57,2.483,2.4278,2.4302,2.4031,2.3353,2.3315,2.3154,1.9793,2.0765,2.1712,2.2754,2.3403,2.3866,2.4124,2.4934,2.574,2.5697,2.6299,2.6831,2.74,2.7897,2.8365,2.8554,2.9106,2.9218,2.8694,2.8948,2.9232,2.9441,2.9201,2.9201,2.9776,2.9388,2.9299,2.9283,2.9148,2.9018,2.9015,2.8901,2.8894,2.8886,2.8886,2.8886,2.8886,2.9989,3.0763,3.1209,3.1533,3.184,3.213,3.2287,3.2205,3.2037,3.1183,3.0985,3.1125,3.0623,3.0442,3.0632,3.0791,3.0982,3.1172,3.1331,3.1395,3.1395,3.1395,3.1395,3.1395,3.1087,3.0778,3.0314,2.9864,2.9523,2.9197,2.8886,2.9218,2.9567,2.9498,2.9873,3.0062,2.9888,2.9964,2.9895,2.9553,2.9383,2.9212,2.9212,2.9056,2.8886,2.9212,2.9012,2.8983,2.9508,2.9197,2.9042,2.9508,2.9197,2.89,2.89,2.8744,2.8588,2.8417,2.8261,2.8261,2.8261,2.8261,2.8261,2.8261,2.8261,2.8033,2.7395,2.6479,2.5737,2.5295,2.4987,2.456,2.398,2.3812,2.3451,2.0888,2.1669,2.2374,2.348,2.4094,2.439,2.4684,2.5636,2.6345,2.6391,2.7246,2.7971,2.7998,2.8458,2.8949,2.9266,2.9649,2.9809,2.979,2.9873,2.9986,3.034,2.964,2.9345,2.9655,2.9148,2.8882,2.8973,2.8896,2.9105,2.9115,2.9042,2.9047,2.9134,2.9292,2.9262,2.9174,3.05,3.1533,3.2299,3.1993,3.184,3.1686,3.2299,3.2588,3.2555,3.1479,3.1215,3.1275,3.0607,3.0473,3.0728,3.0823,3.1029,3.1268,3.1363,3.1395,3.1395,3.1395,3.1395,3.1395,3.1087,3.0608,2.9989,2.9784,2.9487,2.9032,2.912,2.9641,3.0052,3.0215,3.0525,3.0922,3.0756,3.0617,3.0515,3.019,2.9849,2.9664,2.9538,2.9227,2.9071,2.9368,2.9056,2.9056,2.9368,2.9197,2.9197,2.9508,2.9197,2.9212,2.9523,2.9212,2.9056,2.9056,2.9056,2.9056,2.9056,2.8886,2.8886,2.8886,2.8886,2.8628,2.7931,2.7158,2.6584,2.5886,2.5375,2.497,2.4507,2.4136,2.3748,2.1985,2.2731,2.3217,2.3858,2.4607,2.503,2.513,2.6103,2.7077,2.7145,2.802,2.8822,2.9049,2.9158,2.9211,2.9345,2.9584,2.9806,2.9822,2.9806,2.9917,3.0251,2.9539,2.9091,2.9091,2.8822,2.852,2.8388,2.8724,2.9145,2.9295,2.9339,2.95,2.9807,3.0144,3.0316,3.0002,3.0141,3.0608,3.1395,3.1395,3.184,3.2604,3.2588,3.2588,3.2571,3.1739,3.1292,3.0839,3.0473,3.033,3.0378,3.0728,3.0871,3.0934,3.1268,3.1395,3.1395,3.1395,3.1395,3.1395,3.1395,3.0763,3.019,3.0511,2.9987,2.9412,2.972,2.9865,2.9966,3.0379,3.0292,3.0188,3.068,3.0419,3.0161,3.0114,3.0098,2.9944,2.9568,2.9442,2.9427,2.9056,2.8886,2.8886,2.8886,2.9197,2.9479,2.9434,2.9493,2.9523,2.9523,2.9523,2.9523,2.9523,2.9523,2.9523,2.9523,2.9056,2.8886,2.8886,2.8886,2.873,2.8261,2.7674,2.6777,2.5732,2.5417,2.4958,2.4663,2.4193,2.4044,2.2767,2.2898,2.2886,2.4109,2.4479,2.4639,2.5576,2.6269,2.7137,2.7952,2.8707,2.9293,3.0208,2.9965,2.9707,2.9933,3.006,3.0219,3.0458,3.0283,3.0118,3.0166,2.9744,2.9291,2.9003,2.8877,2.8747,2.8725,2.9071,2.9292,2.9369,2.9573,2.9749,2.9866,3.0364,3.0786,3.1604,3.1402,3.1541,3.2023,3.1952,3.1993,3.2299,3.274,3.274,3.2283,3.2456,3.2406,3.1934,3.1213,3.115,3.1317,3.1309,3.1204,3.122,3.1347,3.1395,3.1427,3.1649,3.1729,3.1605,3.1355,3.0963,3.0369,3.0226,2.9863,2.9471,3.0071,3.0704,3.1043,3.1319,3.1588,3.1848,3.1575,3.1197,3.087,3.0608,3.0253,3.0083,3.033,2.9849,2.9538,2.9709,2.9538,2.9368,2.9368,2.9664,2.9959,2.9944,2.9664,2.9523,2.9834,2.9679,2.9368,2.9212,2.9368,2.9368,2.9212,2.9042,2.8886,2.8886,2.8886,2.8798,2.8298,2.7864,2.7136,2.5978,2.5472,2.4931,2.4636,2.4488,2.4193,2.3278,2.3268,2.3157,2.426,2.457,2.496,2.6117,2.6664,2.7351,2.8722,2.9356,2.9949,3.1037,3.0776,3.0663,3.0759,3.0724,3.0734,3.0823,3.0498,3.0181,2.9931,2.9502,2.9026,2.8578,2.8458,2.8417,2.8417,2.9035,0.0,2.9529,2.9851,3.0248,3.0676,3.0896,3.1641,3.2587,3.2126,3.206,3.2216,3.2017,3.1993,3.2146,3.2873,3.2939,3.2649,3.3226,3.3126,3.2299,3.184,3.1766,3.2171,3.1724,3.1633,3.1729,3.1729,3.1729,3.176,3.1999,3.2078,3.1968,3.1569,3.1158,3.0733,3.0424,3.0042,3.0114,3.0721,3.1166,3.1625,3.1957,3.2298,3.2491,3.1927,3.1565,3.1427,3.1244,3.0825,3.0546,3.0377,3.019,3.003,3.0136,2.9919,2.997,2.9879,3.0159,3.0284,3.0268,3.0129,2.9989,3.0129,2.9834,2.9523,2.9212,2.9368,2.9323,2.8894,2.8983,2.8842,2.8739,2.8842,2.8798,2.8593,2.8271,2.7611,2.6586,2.5811,2.5226,2.4784,2.4636,2.4488,0.0,0.0,0.0,2.4487,2.5107,2.5735,2.6496,2.7107,2.799,2.9003,2.9822,3.0632,3.1345,3.1942,3.1977,3.1778,3.1547,3.1324,3.1022,3.0568,3.0084,2.9493,2.8744,2.8118,2.7633,2.7633,2.7633,2.7633,2.8719,2.9515,2.9837,3.0173,3.1003,3.2174,3.2344,3.2482,3.2952,3.2285,3.1935,3.1935,3.157,3.1872,3.2637,3.3017,3.3492,3.3819,3.4172,3.3453,3.2025,3.2025,3.2236,3.2544,3.2092,3.2126,3.2412,3.2412,3.2412,3.2412,3.2428,3.2428,3.2428,3.1966,3.1502,3.1243,3.1091,3.1018,3.1048,3.1377,3.1571,3.1655,3.2112,3.2094,3.1824,3.1474,3.1395,3.149,3.1824,3.1649,3.104,2.9761,3.0468,3.1071,3.0301,3.0469,3.0698,3.0732,3.081,3.0763,3.0839,3.0747,3.0624,3.0129,3.0129,2.9989,2.9523,2.9523,2.9389,2.906,2.888,2.8754,2.8461,2.8739,2.8886,2.8886,2.8593,2.8133,2.751,2.6418,2.5667,2.5226,2.4784,2.4636,2.3926,0.0,0.0,0.0,0.0,0.0,2.6019,2.7285,2.8535,2.9729,3.06,3.1449,3.2609,3.2742,3.3028,3.3095,3.239,3.1695,3.1236,3.0945,3.0361,2.9523,2.9056,2.8744,2.8573,2.7947,2.779,0.0,2.8576,2.895,2.905,3.0204,3.1317,3.2654,3.3053,3.3043,3.2952,3.2825,3.2585,3.2269,3.256,3.2994,3.3397,3.4138,3.4345,3.4189,3.4603,3.4379,3.3553,3.3068,3.3133,3.3702,3.2601,3.2491,3.2888,3.257,3.2412,3.2444,3.2714,3.2809,3.2841,3.2623,3.2042,3.1594,3.1422,3.1183,3.1003,3.1435,3.1895,3.2034,3.2015,3.1715,3.1506,3.1411,3.1395,3.1427,3.1213,3.123,3.1417,3.1273,3.1011,3.095,3.0996,3.0965,3.0748,3.081,3.1103,3.1087,3.0917,3.0778,3.0624,3.0129,3.0454,3.0314,2.9523,2.9834,2.9789,2.9389,2.8997,2.8856,2.8769,2.8842,2.8886,2.8886,2.8887,2.868,2.8591,2.7193,2.6319,2.5653,2.5506,2.5506,0.0,0.0,0.0,0.0,0.0,0.0,2.6666,2.7717,2.8964,3.0341,3.1236,3.2026,3.3062,3.3348,3.3517,3.3837,3.2757,3.184,3.1395,3.0778,2.9849,2.89,2.8573,2.8261,2.7947,2.7476,2.749,2.7819,2.8259,2.8645,2.8787,2.9777,3.0706,3.1879,3.222,3.2613,3.273,3.2697,3.2601,3.2729,3.2706,3.3035,3.4025,3.4508,3.4717,3.4891,3.5202,3.5288,3.4953,3.4299,3.4216,3.44,3.3273,3.321,3.3499,3.3018,3.2857,3.2888,3.3111,3.3174,3.3206,3.2921,3.253,3.2079,3.1933,3.1857,3.1823,3.1864,3.1972,3.2125,3.1699,3.1538,3.1395,3.1395,3.1395,3.1427,3.1276,3.137,3.1354,3.1134,3.1244,3.1199,3.1323,3.1307,3.1323,3.1215,3.1367,3.1395,3.1087,3.1087,3.0933,3.0454,3.0624,3.0469,2.9834,2.9989,2.9928,2.9638,2.9293,2.9153,2.9005,2.9138,2.9212,2.9212,2.9329,2.9258,2.8988,2.77,2.67,2.58,2.58,2.573,0.0,0.0,0.0,0.0,2.5928,0.0,2.7398,2.8154,2.9237,3.0647,3.1463,3.2267,3.2976,3.343,3.3597,3.3648,3.2759,3.1896,3.1533,3.0299,2.9056,2.7961,2.779,2.7476,2.6702,2.6874,2.7032,2.7189,2.7741,2.834,2.8825,2.9163,2.9807,3.0641,3.1136,3.1585,3.2348,3.2062,3.2219,3.2997,3.2408,3.2943,3.425,3.4459,3.4945,3.5583,3.5943,3.6097,3.6097,3.5595,3.5231,3.4928,3.3967,3.3856,3.4131,3.364,3.3656,3.3476,3.3476,3.3492,3.3476,3.2983,3.2819,3.2654,3.2339,3.2505,3.2741,3.2514,3.2141,3.1903,3.149,3.1395,3.1395,3.1395,3.1395,3.1474,3.1792,3.1617,3.1225,3.0392,3.1059,3.1653,3.1449,3.1559,3.1887,3.1826,3.1649,3.1395,3.1395,3.1395,3.1241,3.0778,3.0778,3.0624,3.0299,3.0144,3.0007,2.987,2.9668,2.9389,2.909,2.9374,2.9523,2.9523,2.9944,2.9747,2.9091,2.8193,2.7129,2.5946,2.6078,2.5937,2.4452,2.4812,2.525,2.4784,0.0,0.0,2.6327,2.7949,2.9427,2.9981,3.0975,3.1755,3.2221,3.2451,3.2411,3.2415,3.2414,3.2209,3.1453,3.0299,2.9368,2.873,2.8431,2.8275,2.8417,2.749,2.7347,2.7976,2.8189,2.8819,3.025,3.0121,3.0559,3.1919,3.1775,3.1809,3.2015,3.1951,3.1951,3.2171,3.3009,3.3618,3.4299,3.5325,3.5816,3.5977,3.6063,3.6097,3.6097,3.5935,3.5723,3.5315,3.4847,3.4555,3.4621,3.4131,3.3968,3.3968,3.364,3.3492,3.3492,3.3328,3.3148,3.2819,3.267,3.2654,3.2858,3.2874,3.2408,3.2033,3.1872,3.1888,3.1766,3.1411,3.1395,3.1411,3.1474,3.1443,3.1379,3.1225,3.1304,3.1522,3.1352,3.1506,3.1506,3.1522,3.1443,3.1395,3.1395,3.1395,3.1241,3.0778,3.1087,3.1087,3.0624,3.0624,3.0593,3.0531,3.0268,2.9944,2.9883,2.9944,2.9974,2.9974,3.0176,2.9864,2.9167,2.8679,2.8026,2.726,2.7825,2.7939,2.4488,2.4758,2.5461,2.5394,0.0,0.0,0.0,2.8101,2.9206,3.0206,3.0701,3.1094,3.1495,3.1565,3.1496,3.1251,3.1463,3.1521,3.0875,3.0631,3.0129,2.9042,2.89,2.8744,2.8588,2.7805,2.7333,2.7333,2.7504,2.8032,2.8819,2.8676,2.9222,3.0947,3.0805,3.1042,3.1959,3.1959,3.2291,3.3117,3.3454,3.4292,3.5164,3.5511,3.5918,3.6097,3.6097,3.6097,3.6097,3.6097,3.5774,3.5109,3.5109,3.4946,3.4783,3.4294,3.3968,3.3804,3.3656,3.3492,3.3492,3.3492,3.3312,3.3148,3.3148,3.3038,3.2933,3.3285,3.2986,3.2439,3.2041,3.2171,3.2162,3.1613,3.1395,3.1395,3.1395,3.1395,3.1395,3.1686,3.1686,3.1686,3.1395,3.1395,3.1395,3.1395,3.1395,3.1395,3.1395,3.1395,3.1395,3.1087,3.1395,3.1549,3.1087,3.1241,3.1241,3.1087,3.0624,3.0454,3.0454,3.0608,3.0917,3.1055,3.0898,3.0552,3.0033,3.033,2.9524,2.784,2.8418,2.847,0.0,0.0,0.0,0.0,0.0,2.6489,0.0,0.0,0.0,3.039,3.0373,3.0215,3.06,3.0484,3.0351,3.0087,3.0394,3.0573,3.0111,3.073,3.0703,2.9284,2.9389,2.9249,2.8569,2.8146,2.7577,2.686,2.7175,2.7504,2.7504,2.749,2.8275,2.9679,2.9679,3.0485,3.2106,3.2106,3.274,3.4166,3.3934,3.4601,3.5816,3.5561,3.5757,3.6097,3.6097,3.6097,3.6097,3.5935,3.5595,3.4946,3.5271,3.5109,3.4621,3.4294,3.3968,3.364,3.3492,3.3492,3.3492,3.3492,3.3492,3.3476,3.364,3.3401,3.3194,3.3743,3.3603,3.3182,3.2561,3.2569,3.2576,3.1895,3.175,3.1686,3.1686,3.1686,3.184,3.2146,3.2299,3.2146,3.1686,3.1686,3.1533,3.1549,3.1533,3.1533,3.1549,3.1533,3.1686,3.1686,3.1993,3.1993,3.1686,3.1993,3.1993,3.1549,3.1241,3.1087,3.1087,3.1533,3.1807,3.2184,3.1896,3.1566,3.1211,3.1944,3.1055,2.8619,2.912,2.9218,0.0,0.0,0.0,0.0,2.6334,0.0,0.0,0.0,2.8774,2.9636,0.0,2.9367,2.9744,0.0,0.0,2.8983,2.9822,3.0205,2.9497,3.0088,3.0319,2.9704,2.9655,2.9427,2.8988,2.8925,2.8593,2.8104,2.8744,2.9212,2.9212,2.9508,2.9989,3.0624,3.0624,3.1244,3.2479,3.2479,3.2986,3.3835,3.4484,3.4861,3.5105,3.5765,3.6097,3.6097,3.6097,3.6097,3.6097,3.5595,3.5433,3.5271,3.5433,3.4946,3.4131,3.4131,3.4131,3.3968,3.364,3.3492,3.3492,3.3492,3.3492,3.3656,3.3968,3.3872,3.3741,3.4475,3.4424,3.421,3.4015,3.3776,3.3609,3.3133,3.2682,3.2452,3.2452,3.274,3.3044,3.3044,3.3348,3.3348,3.2588,3.2452,3.2299,3.1993,3.2299,3.2299,3.1993,3.2299,3.2452,3.2452,3.2452,3.2435,3.2452,3.2452,3.2299,3.1993,3.184,3.184,3.184,3.2588,3.2894,3.2559,3.3008,3.2969,3.2611,3.2611,3.1956,3.0647,3.1488,3.1591,0.0,0.0,0.0,0.0,0.0,0.0,2.728,0.0,2.8553,0.0,0.0,0.0,0.0,0.0,0.0,0.0,2.8569,2.9095,2.8725,2.9475,2.9914,2.9439,2.9414,0.0,2.8507,2.8671,2.8424,2.7664,2.8468,2.9005,2.9197,2.9523,2.9989,3.0794,3.0965,3.1605,3.2544,3.3068,3.3661,3.4467,3.4953,3.5316,3.5536,3.6011,3.6097,3.6097,3.6097,3.6097,3.6114,3.5848,3.5606,3.5294,3.5328,3.4817,3.4131,3.4131,3.3968,3.3804,3.3476,3.3492,3.3492,3.3492,3.364,3.3935,3.4034,3.418,3.447,3.4852,3.5027,3.4727,3.4155,3.4088,3.3898,3.3413,3.3009,3.3044,3.3196,3.35,3.3651,3.3802,3.4105,3.4105,3.3954,3.3651,3.3196,3.3044,3.3044,3.2892,3.274,3.2588,3.2588,3.2588,3.274,3.2892,3.2588,3.274,3.274,3.2452,3.2299,3.255,3.3072,3.2961,3.3061,3.3262,3.3208,3.3272,3.334,3.3787,3.3787,3.3306,3.2791,3.2411,2.6532,0.0,0.0,0.0,0.0,0.0,0.0,0.0,0.0,0.0,0.0,0.0,0.0,0.0,0.0,0.0,0.0,2.7869,2.7658,2.8289,2.8858,2.9239,2.9074,2.8691,0.0,2.8119,2.8118,2.7364,2.8075,2.8571,2.8894,2.9389,3.0053,3.0778,3.1417,3.1951,3.2673,3.352,3.4359,3.5029,3.5509,3.5823,3.6097,3.6097,3.6097,3.6097,3.62,3.6234,3.6268,3.6005,3.5825,3.551,3.5087,3.4709,3.4258,3.4258,3.4029,3.3635,3.3635,3.3572,3.3476,3.364,3.3804,3.4083,3.4453,3.4664,3.4842,3.5275,3.5271,3.5105,3.445,3.4365,3.4365,3.3856,3.377,3.3785,3.4221,3.4389,3.4556,3.5007,3.5157,3.5306,3.5605,3.4857,3.4105,3.3954,3.3802,3.3651,3.35,3.3348,3.3196,3.3196,3.35,3.3651,3.3348,3.35,3.35,3.3044,3.3196,3.3483,3.406,3.385,3.3828,3.4389,3.4145,3.4127,3.4406,3.5007,3.5306,3.5288,3.4031,3.3318,0.0,0.0,0.0,2.8372,0.0,0.0,0.0,0.0,2.9568,0.0,0.0,0.0,0.0,0.0,0.0,0.0,0.0,0.0,0.0,2.6045,2.69,2.9076,2.8607,2.8115,0.0,2.7725,2.7583,0.0,2.8238,2.8701,2.903,2.9824,3.0436,3.0778,3.19,3.2706,3.303,3.4183,3.5046,3.5416,3.5901,3.608,3.6097,3.6097,3.6097,3.6114,3.6457,3.6611,3.6481,3.6025,3.5856,3.5856,3.4847,3.4493,3.4477,3.4477,3.4271,3.4001,3.4001,3.3778,3.3476,3.3968,3.4131,3.4294,3.5092,3.5164,3.5037,3.5815,3.5573,3.5158,3.5435,3.5295,3.4897,3.4899,3.4977,3.4989,3.5497,3.5849,3.6201,3.6664,3.7107,3.7274,3.7255,3.6052,3.4857,3.4406,3.4707,3.4857,3.4406,3.4707,3.4857,3.4857,3.5007,3.5007,3.4857,3.5007,3.4707,3.4406,3.4707,3.4857,3.5025,3.5754,3.6052,3.6052,3.6052,3.6052,3.6052,3.6201,3.6201,3.6201,3.5338,3.501,0.0,0.0,2.8701,2.913,0.0,0.0,0.0,0.0,0.0,0.0,0.0,0.0,0.0,0.0,0.0,0.0,0.0,0.0,0.0,2.6148,2.673,2.7753,2.7445,2.7074,2.7034,2.6766,2.6614,2.6808,2.7569,0.0,0.0,2.9837,3.0725,3.1533,3.242,3.3106,3.3536,3.4609,3.5298,3.5433,3.5935,3.6097,3.6097,3.6097,3.5935,3.5612,3.6311,3.63,3.5708,3.6157,3.605,3.5743,3.5301,3.5208,3.516,3.4684,3.443,3.4302,3.4096,3.4253,3.4555,3.3921,3.4261,3.4847,3.4702,3.5095,3.5763,3.5696,3.5852,3.585,3.5894,3.5869,3.5861,3.6116,3.6216,3.6349,3.6775,3.6941,3.696,3.7107,3.7274,3.7421,3.7421,3.696,3.6497,3.6052,3.5605,3.5306,3.5157,3.5157,3.5007,3.5007,3.5306,3.5456,3.5456,3.5605,3.5731,3.5548,3.5449,3.5431,3.5397,3.5664,3.5944,3.6201,3.6532,3.6532,3.6664,3.6664,3.6516,3.6201,3.5924,3.5723,3.0063,3.0063,0.0,3.041,3.0701,0.0,2.9984,0.0,0.0,0.0,0.0,0.0,0.0,0.0,0.0,0.0,0.0,0.0,0.0,2.5571,2.5948,2.6321,2.6312,2.6283,2.6405,2.5844,2.5681,2.612,2.6742,2.749,0.0,0.0,3.0385,3.1646,3.2608,3.322,3.3536,3.4742,3.5433,3.5433,3.5935,3.5935,3.5935,3.5935,3.5825,3.5652,3.6169,3.6257,3.5941,3.6198,3.6257,3.6101,3.5999,3.5922,3.6031,3.5392,3.5071,3.4967,3.4612,3.4734,3.5015,3.4259,3.4709,3.5274,3.484,3.5348,3.6181,3.623,3.6154,3.6246,3.6479,3.6467,3.6549,3.6757,3.6979,3.7107,3.7511,3.753,3.7715,3.7843,3.799,3.8009,3.7843,3.7843,3.7696,3.7107,3.6516,3.6201,3.6201,3.5903,3.5605,3.5605,3.5754,3.5903,3.6052,3.6367,3.6627,3.6604,3.6366,3.6402,3.6655,3.6478,3.6683,3.7241,3.7349,3.7201,3.7259,3.7315,3.7092,3.657,3.6719,3.6516]}]]